<?xml version="1.0" encoding="UTF-8" standalone="no" ?>
<gpx xmlns="http://www.topografix.com/GPX/1/1" xmlns:xsi="http://www.w3.org/2001/XMLSchema-instance" xsi:schemaLocation="http://www.topografix.com/GPX/1/1 http://www.topografix.com/GPX/1/1/gpx.xsd" version="1.1" creator="VisuGPX - https://www.visugpx.com">
  <metadata>
    <name>Randonnée du 01-10-2017</name>
    <desc><![CDATA[Randonnée dans la forêt d' EAUNES]]></desc>
  </metadata>
  <trk>
    <name><![CDATA[Randonnée du 01-10-2017_1]]></name>
    <trkseg>
      <trkpt lat="43.38789" lon="1.32232">
        <ele>258</ele>
        <time>2017-10-01T09:46:32Z</time>
      </trkpt>
      <trkpt lat="43.38784" lon="1.3223">
        <ele>258</ele>
        <time>2017-10-01T09:46:32Z</time>
      </trkpt>
      <trkpt lat="43.38781" lon="1.32228">
        <ele>258</ele>
        <time>2017-10-01T09:46:32Z</time>
      </trkpt>
      <trkpt lat="43.38778" lon="1.32224">
        <ele>258</ele>
        <time>2017-10-01T09:46:32Z</time>
      </trkpt>
      <trkpt lat="43.38776" lon="1.3222">
        <ele>258</ele>
        <time>2017-10-01T09:46:48Z</time>
      </trkpt>
      <trkpt lat="43.38774" lon="1.32215">
        <ele>258</ele>
        <time>2017-10-01T09:46:48Z</time>
      </trkpt>
      <trkpt lat="43.38774" lon="1.3221">
        <ele>258</ele>
        <time>2017-10-01T09:46:48Z</time>
      </trkpt>
      <trkpt lat="43.38774" lon="1.32205">
        <ele>256</ele>
        <time>2017-10-01T09:46:48Z</time>
      </trkpt>
      <trkpt lat="43.38773" lon="1.32199">
        <ele>256</ele>
        <time>2017-10-01T09:47:04Z</time>
      </trkpt>
      <trkpt lat="43.38773" lon="1.32193">
        <ele>256</ele>
        <time>2017-10-01T09:47:05Z</time>
      </trkpt>
      <trkpt lat="43.38771" lon="1.32186">
        <ele>256</ele>
        <time>2017-10-01T09:47:05Z</time>
      </trkpt>
      <trkpt lat="43.3877" lon="1.32178">
        <ele>256</ele>
        <time>2017-10-01T09:47:05Z</time>
      </trkpt>
      <trkpt lat="43.38769" lon="1.32171">
        <ele>256</ele>
        <time>2017-10-01T09:47:20Z</time>
      </trkpt>
      <trkpt lat="43.38769" lon="1.32165">
        <ele>256</ele>
        <time>2017-10-01T09:47:20Z</time>
      </trkpt>
      <trkpt lat="43.3877" lon="1.32156">
        <ele>256</ele>
        <time>2017-10-01T09:47:20Z</time>
      </trkpt>
      <trkpt lat="43.38771" lon="1.32151">
        <ele>256</ele>
        <time>2017-10-01T09:47:20Z</time>
      </trkpt>
      <trkpt lat="43.38773" lon="1.32145">
        <ele>256</ele>
        <time>2017-10-01T09:47:36Z</time>
      </trkpt>
      <trkpt lat="43.38776" lon="1.32136">
        <ele>256</ele>
        <time>2017-10-01T09:47:36Z</time>
      </trkpt>
      <trkpt lat="43.38777" lon="1.3213">
        <ele>256</ele>
        <time>2017-10-01T09:47:36Z</time>
      </trkpt>
      <trkpt lat="43.38779" lon="1.32124">
        <ele>252</ele>
        <time>2017-10-01T09:47:36Z</time>
      </trkpt>
      <trkpt lat="43.38782" lon="1.3212">
        <ele>252</ele>
        <time>2017-10-01T09:47:53Z</time>
      </trkpt>
      <trkpt lat="43.38784" lon="1.32115">
        <ele>252</ele>
        <time>2017-10-01T09:47:53Z</time>
      </trkpt>
      <trkpt lat="43.38785" lon="1.32108">
        <ele>252</ele>
        <time>2017-10-01T09:47:53Z</time>
      </trkpt>
      <trkpt lat="43.38789" lon="1.32106">
        <ele>252</ele>
        <time>2017-10-01T09:47:53Z</time>
      </trkpt>
      <trkpt lat="43.3879" lon="1.32103">
        <ele>252</ele>
        <time>2017-10-01T09:48:08Z</time>
      </trkpt>
      <trkpt lat="43.38792" lon="1.32096">
        <ele>260</ele>
        <time>2017-10-01T09:48:08Z</time>
      </trkpt>
      <trkpt lat="43.38792" lon="1.32089">
        <ele>260</ele>
        <time>2017-10-01T09:48:08Z</time>
      </trkpt>
      <trkpt lat="43.38793" lon="1.32081">
        <ele>260</ele>
        <time>2017-10-01T09:48:08Z</time>
      </trkpt>
      <trkpt lat="43.38796" lon="1.32073">
        <ele>260</ele>
        <time>2017-10-01T09:48:24Z</time>
      </trkpt>
      <trkpt lat="43.38798" lon="1.32067">
        <ele>260</ele>
        <time>2017-10-01T09:48:24Z</time>
      </trkpt>
      <trkpt lat="43.38801" lon="1.32058">
        <ele>260</ele>
        <time>2017-10-01T09:48:24Z</time>
      </trkpt>
      <trkpt lat="43.38803" lon="1.32051">
        <ele>260</ele>
        <time>2017-10-01T09:48:24Z</time>
      </trkpt>
      <trkpt lat="43.38804" lon="1.32045">
        <ele>260</ele>
        <time>2017-10-01T09:48:40Z</time>
      </trkpt>
      <trkpt lat="43.38809" lon="1.32046">
        <ele>260</ele>
        <time>2017-10-01T09:48:40Z</time>
      </trkpt>
      <trkpt lat="43.38813" lon="1.32044">
        <ele>260</ele>
        <time>2017-10-01T09:48:40Z</time>
      </trkpt>
      <trkpt lat="43.3882" lon="1.32041">
        <ele>248</ele>
        <time>2017-10-01T09:48:40Z</time>
      </trkpt>
      <trkpt lat="43.38827" lon="1.3204">
        <ele>248</ele>
        <time>2017-10-01T09:48:56Z</time>
      </trkpt>
      <trkpt lat="43.38833" lon="1.32041">
        <ele>248</ele>
        <time>2017-10-01T09:48:56Z</time>
      </trkpt>
      <trkpt lat="43.38838" lon="1.32038">
        <ele>248</ele>
        <time>2017-10-01T09:48:56Z</time>
      </trkpt>
      <trkpt lat="43.38844" lon="1.32037">
        <ele>248</ele>
        <time>2017-10-01T09:48:56Z</time>
      </trkpt>
      <trkpt lat="43.38848" lon="1.32038">
        <ele>248</ele>
        <time>2017-10-01T09:49:12Z</time>
      </trkpt>
      <trkpt lat="43.38852" lon="1.32038">
        <ele>248</ele>
        <time>2017-10-01T09:49:12Z</time>
      </trkpt>
      <trkpt lat="43.38855" lon="1.32035">
        <ele>248</ele>
        <time>2017-10-01T09:49:12Z</time>
      </trkpt>
      <trkpt lat="43.38857" lon="1.32032">
        <ele>248</ele>
        <time>2017-10-01T09:49:12Z</time>
      </trkpt>
      <trkpt lat="43.38857" lon="1.32027">
        <ele>248</ele>
        <time>2017-10-01T09:49:28Z</time>
      </trkpt>
      <trkpt lat="43.38858" lon="1.32021">
        <ele>248</ele>
        <time>2017-10-01T09:49:28Z</time>
      </trkpt>
      <trkpt lat="43.38858" lon="1.32015">
        <ele>248</ele>
        <time>2017-10-01T09:49:28Z</time>
      </trkpt>
      <trkpt lat="43.38859" lon="1.32009">
        <ele>248</ele>
        <time>2017-10-01T09:49:28Z</time>
      </trkpt>
      <trkpt lat="43.38859" lon="1.32002">
        <ele>248</ele>
        <time>2017-10-01T09:49:47Z</time>
      </trkpt>
      <trkpt lat="43.38857" lon="1.31993">
        <ele>248</ele>
        <time>2017-10-01T09:49:47Z</time>
      </trkpt>
      <trkpt lat="43.38855" lon="1.31984">
        <ele>248</ele>
        <time>2017-10-01T09:49:47Z</time>
      </trkpt>
      <trkpt lat="43.38853" lon="1.31972">
        <ele>248</ele>
        <time>2017-10-01T09:49:47Z</time>
      </trkpt>
      <trkpt lat="43.38852" lon="1.31969">
        <ele>248</ele>
        <time>2017-10-01T09:50:00Z</time>
      </trkpt>
      <trkpt lat="43.38851" lon="1.31965">
        <ele>248</ele>
        <time>2017-10-01T09:50:00Z</time>
      </trkpt>
      <trkpt lat="43.38851" lon="1.31961">
        <ele>248</ele>
        <time>2017-10-01T09:50:00Z</time>
      </trkpt>
      <trkpt lat="43.3885" lon="1.31955">
        <ele>237</ele>
        <time>2017-10-01T09:50:00Z</time>
      </trkpt>
      <trkpt lat="43.38848" lon="1.31947">
        <ele>237</ele>
        <time>2017-10-01T09:50:16Z</time>
      </trkpt>
      <trkpt lat="43.38845" lon="1.31941">
        <ele>237</ele>
        <time>2017-10-01T09:50:16Z</time>
      </trkpt>
      <trkpt lat="43.38841" lon="1.31932">
        <ele>237</ele>
        <time>2017-10-01T09:50:16Z</time>
      </trkpt>
      <trkpt lat="43.38837" lon="1.31927">
        <ele>237</ele>
        <time>2017-10-01T09:50:16Z</time>
      </trkpt>
      <trkpt lat="43.38836" lon="1.31927">
        <ele>237</ele>
        <time>2017-10-01T09:50:32Z</time>
      </trkpt>
      <trkpt lat="43.38832" lon="1.31924">
        <ele>237</ele>
        <time>2017-10-01T09:50:32Z</time>
      </trkpt>
      <trkpt lat="43.38829" lon="1.31923">
        <ele>237</ele>
        <time>2017-10-01T09:50:32Z</time>
      </trkpt>
      <trkpt lat="43.38825" lon="1.31919">
        <ele>237</ele>
        <time>2017-10-01T09:50:32Z</time>
      </trkpt>
      <trkpt lat="43.38822" lon="1.31917">
        <ele>237</ele>
        <time>2017-10-01T09:50:48Z</time>
      </trkpt>
      <trkpt lat="43.3882" lon="1.31915">
        <ele>237</ele>
        <time>2017-10-01T09:50:48Z</time>
      </trkpt>
      <trkpt lat="43.38816" lon="1.31911">
        <ele>237</ele>
        <time>2017-10-01T09:50:48Z</time>
      </trkpt>
      <trkpt lat="43.38811" lon="1.31907">
        <ele>237</ele>
        <time>2017-10-01T09:50:48Z</time>
      </trkpt>
      <trkpt lat="43.38808" lon="1.31904">
        <ele>237</ele>
        <time>2017-10-01T09:51:04Z</time>
      </trkpt>
      <trkpt lat="43.38803" lon="1.31901">
        <ele>237</ele>
        <time>2017-10-01T09:51:04Z</time>
      </trkpt>
      <trkpt lat="43.388" lon="1.31898">
        <ele>237</ele>
        <time>2017-10-01T09:51:04Z</time>
      </trkpt>
      <trkpt lat="43.38797" lon="1.31897">
        <ele>237</ele>
        <time>2017-10-01T09:51:04Z</time>
      </trkpt>
      <trkpt lat="43.38793" lon="1.31895">
        <ele>237</ele>
        <time>2017-10-01T09:51:20Z</time>
      </trkpt>
      <trkpt lat="43.3879" lon="1.31891">
        <ele>234</ele>
        <time>2017-10-01T09:51:20Z</time>
      </trkpt>
      <trkpt lat="43.38788" lon="1.31888">
        <ele>234</ele>
        <time>2017-10-01T09:51:20Z</time>
      </trkpt>
      <trkpt lat="43.38784" lon="1.31883">
        <ele>234</ele>
        <time>2017-10-01T09:51:20Z</time>
      </trkpt>
      <trkpt lat="43.3878" lon="1.31876">
        <ele>234</ele>
        <time>2017-10-01T09:51:37Z</time>
      </trkpt>
      <trkpt lat="43.38779" lon="1.31871">
        <ele>224</ele>
        <time>2017-10-01T09:51:37Z</time>
      </trkpt>
      <trkpt lat="43.38778" lon="1.31865">
        <ele>224</ele>
        <time>2017-10-01T09:51:37Z</time>
      </trkpt>
      <trkpt lat="43.38778" lon="1.31858">
        <ele>224</ele>
        <time>2017-10-01T09:51:37Z</time>
      </trkpt>
      <trkpt lat="43.38778" lon="1.31852">
        <ele>224</ele>
        <time>2017-10-01T09:51:52Z</time>
      </trkpt>
      <trkpt lat="43.38778" lon="1.31844">
        <ele>224</ele>
        <time>2017-10-01T09:51:52Z</time>
      </trkpt>
      <trkpt lat="43.38777" lon="1.31836">
        <ele>224</ele>
        <time>2017-10-01T09:51:52Z</time>
      </trkpt>
      <trkpt lat="43.38777" lon="1.31826">
        <ele>224</ele>
        <time>2017-10-01T09:51:52Z</time>
      </trkpt>
      <trkpt lat="43.38777" lon="1.3182">
        <ele>224</ele>
        <time>2017-10-01T09:52:09Z</time>
      </trkpt>
      <trkpt lat="43.38778" lon="1.31814">
        <ele>224</ele>
        <time>2017-10-01T09:52:09Z</time>
      </trkpt>
      <trkpt lat="43.38778" lon="1.31809">
        <ele>224</ele>
        <time>2017-10-01T09:52:09Z</time>
      </trkpt>
      <trkpt lat="43.38778" lon="1.31802">
        <ele>224</ele>
        <time>2017-10-01T09:52:09Z</time>
      </trkpt>
      <trkpt lat="43.38779" lon="1.31796">
        <ele>224</ele>
        <time>2017-10-01T09:52:24Z</time>
      </trkpt>
      <trkpt lat="43.38778" lon="1.3179">
        <ele>227</ele>
        <time>2017-10-01T09:52:24Z</time>
      </trkpt>
      <trkpt lat="43.38779" lon="1.31784">
        <ele>227</ele>
        <time>2017-10-01T09:52:24Z</time>
      </trkpt>
      <trkpt lat="43.38778" lon="1.31778">
        <ele>227</ele>
        <time>2017-10-01T09:52:24Z</time>
      </trkpt>
      <trkpt lat="43.38778" lon="1.31771">
        <ele>227</ele>
        <time>2017-10-01T09:52:40Z</time>
      </trkpt>
      <trkpt lat="43.38777" lon="1.31763">
        <ele>227</ele>
        <time>2017-10-01T09:52:40Z</time>
      </trkpt>
      <trkpt lat="43.38776" lon="1.31756">
        <ele>227</ele>
        <time>2017-10-01T09:52:40Z</time>
      </trkpt>
      <trkpt lat="43.38776" lon="1.31751">
        <ele>227</ele>
        <time>2017-10-01T09:52:40Z</time>
      </trkpt>
      <trkpt lat="43.38778" lon="1.31747">
        <ele>227</ele>
        <time>2017-10-01T09:52:57Z</time>
      </trkpt>
      <trkpt lat="43.38778" lon="1.31742">
        <ele>227</ele>
        <time>2017-10-01T09:52:57Z</time>
      </trkpt>
      <trkpt lat="43.38779" lon="1.31737">
        <ele>227</ele>
        <time>2017-10-01T09:52:57Z</time>
      </trkpt>
      <trkpt lat="43.3878" lon="1.31732">
        <ele>227</ele>
        <time>2017-10-01T09:52:57Z</time>
      </trkpt>
      <trkpt lat="43.3878" lon="1.31726">
        <ele>227</ele>
        <time>2017-10-01T09:53:12Z</time>
      </trkpt>
      <trkpt lat="43.38781" lon="1.3172">
        <ele>227</ele>
        <time>2017-10-01T09:53:12Z</time>
      </trkpt>
      <trkpt lat="43.38783" lon="1.31715">
        <ele>227</ele>
        <time>2017-10-01T09:53:12Z</time>
      </trkpt>
      <trkpt lat="43.38784" lon="1.31709">
        <ele>227</ele>
        <time>2017-10-01T09:53:12Z</time>
      </trkpt>
      <trkpt lat="43.38785" lon="1.31705">
        <ele>233</ele>
        <time>2017-10-01T09:53:32Z</time>
      </trkpt>
      <trkpt lat="43.38785" lon="1.31699">
        <ele>233</ele>
        <time>2017-10-01T09:53:33Z</time>
      </trkpt>
      <trkpt lat="43.38785" lon="1.31696">
        <ele>233</ele>
        <time>2017-10-01T09:53:33Z</time>
      </trkpt>
      <trkpt lat="43.38786" lon="1.31693">
        <ele>233</ele>
        <time>2017-10-01T09:53:33Z</time>
      </trkpt>
      <trkpt lat="43.38788" lon="1.31688">
        <ele>233</ele>
        <time>2017-10-01T09:53:33Z</time>
      </trkpt>
      <trkpt lat="43.38791" lon="1.31682">
        <ele>233</ele>
        <time>2017-10-01T09:53:48Z</time>
      </trkpt>
      <trkpt lat="43.38792" lon="1.3168">
        <ele>239</ele>
        <time>2017-10-01T09:53:48Z</time>
      </trkpt>
      <trkpt lat="43.38795" lon="1.31676">
        <ele>239</ele>
        <time>2017-10-01T09:53:48Z</time>
      </trkpt>
      <trkpt lat="43.38797" lon="1.31672">
        <ele>239</ele>
        <time>2017-10-01T09:53:48Z</time>
      </trkpt>
      <trkpt lat="43.388" lon="1.31666">
        <ele>239</ele>
        <time>2017-10-01T09:54:04Z</time>
      </trkpt>
      <trkpt lat="43.38805" lon="1.31657">
        <ele>239</ele>
        <time>2017-10-01T09:54:04Z</time>
      </trkpt>
      <trkpt lat="43.38807" lon="1.31652">
        <ele>239</ele>
        <time>2017-10-01T09:54:04Z</time>
      </trkpt>
      <trkpt lat="43.38809" lon="1.31646">
        <ele>239</ele>
        <time>2017-10-01T09:54:04Z</time>
      </trkpt>
      <trkpt lat="43.38811" lon="1.31639">
        <ele>239</ele>
        <time>2017-10-01T09:54:20Z</time>
      </trkpt>
      <trkpt lat="43.38811" lon="1.31636">
        <ele>239</ele>
        <time>2017-10-01T09:54:20Z</time>
      </trkpt>
      <trkpt lat="43.38813" lon="1.31631">
        <ele>239</ele>
        <time>2017-10-01T09:54:20Z</time>
      </trkpt>
      <trkpt lat="43.38816" lon="1.31628">
        <ele>239</ele>
        <time>2017-10-01T09:54:20Z</time>
      </trkpt>
      <trkpt lat="43.38817" lon="1.31623">
        <ele>245</ele>
        <time>2017-10-01T09:54:36Z</time>
      </trkpt>
      <trkpt lat="43.38818" lon="1.31616">
        <ele>245</ele>
        <time>2017-10-01T09:54:36Z</time>
      </trkpt>
      <trkpt lat="43.3882" lon="1.31611">
        <ele>245</ele>
        <time>2017-10-01T09:54:36Z</time>
      </trkpt>
      <trkpt lat="43.38823" lon="1.31605">
        <ele>245</ele>
        <time>2017-10-01T09:54:36Z</time>
      </trkpt>
      <trkpt lat="43.38827" lon="1.31597">
        <ele>245</ele>
        <time>2017-10-01T09:54:52Z</time>
      </trkpt>
      <trkpt lat="43.38829" lon="1.31592">
        <ele>245</ele>
        <time>2017-10-01T09:54:52Z</time>
      </trkpt>
      <trkpt lat="43.38829" lon="1.31584">
        <ele>245</ele>
        <time>2017-10-01T09:54:52Z</time>
      </trkpt>
      <trkpt lat="43.38831" lon="1.31574">
        <ele>245</ele>
        <time>2017-10-01T09:54:52Z</time>
      </trkpt>
      <trkpt lat="43.38834" lon="1.31567">
        <ele>245</ele>
        <time>2017-10-01T09:55:08Z</time>
      </trkpt>
      <trkpt lat="43.38835" lon="1.3156">
        <ele>245</ele>
        <time>2017-10-01T09:55:08Z</time>
      </trkpt>
      <trkpt lat="43.38838" lon="1.31553">
        <ele>245</ele>
        <time>2017-10-01T09:55:08Z</time>
      </trkpt>
      <trkpt lat="43.38841" lon="1.31547">
        <ele>245</ele>
        <time>2017-10-01T09:55:08Z</time>
      </trkpt>
      <trkpt lat="43.38842" lon="1.31541">
        <ele>247</ele>
        <time>2017-10-01T09:55:24Z</time>
      </trkpt>
      <trkpt lat="43.38842" lon="1.31537">
        <ele>247</ele>
        <time>2017-10-01T09:55:24Z</time>
      </trkpt>
      <trkpt lat="43.38844" lon="1.31533">
        <ele>247</ele>
        <time>2017-10-01T09:55:24Z</time>
      </trkpt>
      <trkpt lat="43.38846" lon="1.31529">
        <ele>247</ele>
        <time>2017-10-01T09:55:24Z</time>
      </trkpt>
      <trkpt lat="43.38847" lon="1.31524">
        <ele>247</ele>
        <time>2017-10-01T09:55:41Z</time>
      </trkpt>
      <trkpt lat="43.3885" lon="1.31517">
        <ele>247</ele>
        <time>2017-10-01T09:55:41Z</time>
      </trkpt>
      <trkpt lat="43.3885" lon="1.31513">
        <ele>247</ele>
        <time>2017-10-01T09:55:41Z</time>
      </trkpt>
      <trkpt lat="43.38852" lon="1.31505">
        <ele>247</ele>
        <time>2017-10-01T09:55:41Z</time>
      </trkpt>
      <trkpt lat="43.38852" lon="1.31501">
        <ele>247</ele>
        <time>2017-10-01T09:55:56Z</time>
      </trkpt>
      <trkpt lat="43.38854" lon="1.31497">
        <ele>247</ele>
        <time>2017-10-01T09:55:56Z</time>
      </trkpt>
      <trkpt lat="43.38856" lon="1.31492">
        <ele>247</ele>
        <time>2017-10-01T09:55:56Z</time>
      </trkpt>
      <trkpt lat="43.38858" lon="1.31488">
        <ele>247</ele>
        <time>2017-10-01T09:55:56Z</time>
      </trkpt>
      <trkpt lat="43.38861" lon="1.31486">
        <ele>247</ele>
        <time>2017-10-01T09:56:13Z</time>
      </trkpt>
      <trkpt lat="43.38864" lon="1.31478">
        <ele>247</ele>
        <time>2017-10-01T09:56:13Z</time>
      </trkpt>
      <trkpt lat="43.38865" lon="1.31472">
        <ele>247</ele>
        <time>2017-10-01T09:56:13Z</time>
      </trkpt>
      <trkpt lat="43.38867" lon="1.31468">
        <ele>247</ele>
        <time>2017-10-01T09:56:13Z</time>
      </trkpt>
      <trkpt lat="43.38869" lon="1.31465">
        <ele>247</ele>
        <time>2017-10-01T09:56:28Z</time>
      </trkpt>
      <trkpt lat="43.38871" lon="1.31461">
        <ele>247</ele>
        <time>2017-10-01T09:56:28Z</time>
      </trkpt>
      <trkpt lat="43.38873" lon="1.31454">
        <ele>245</ele>
        <time>2017-10-01T09:56:28Z</time>
      </trkpt>
      <trkpt lat="43.38875" lon="1.31451">
        <ele>245</ele>
        <time>2017-10-01T09:56:28Z</time>
      </trkpt>
      <trkpt lat="43.38877" lon="1.31446">
        <ele>257</ele>
        <time>2017-10-01T09:56:44Z</time>
      </trkpt>
      <trkpt lat="43.3888" lon="1.31438">
        <ele>257</ele>
        <time>2017-10-01T09:56:44Z</time>
      </trkpt>
      <trkpt lat="43.38881" lon="1.31433">
        <ele>257</ele>
        <time>2017-10-01T09:56:44Z</time>
      </trkpt>
      <trkpt lat="43.38882" lon="1.31426">
        <ele>257</ele>
        <time>2017-10-01T09:56:44Z</time>
      </trkpt>
      <trkpt lat="43.38884" lon="1.31419">
        <ele>257</ele>
        <time>2017-10-01T09:57:00Z</time>
      </trkpt>
      <trkpt lat="43.38885" lon="1.31415">
        <ele>257</ele>
        <time>2017-10-01T09:57:01Z</time>
      </trkpt>
      <trkpt lat="43.38885" lon="1.31409">
        <ele>257</ele>
        <time>2017-10-01T09:57:01Z</time>
      </trkpt>
      <trkpt lat="43.38887" lon="1.314">
        <ele>257</ele>
        <time>2017-10-01T09:57:01Z</time>
      </trkpt>
      <trkpt lat="43.3889" lon="1.31394">
        <ele>257</ele>
        <time>2017-10-01T09:57:16Z</time>
      </trkpt>
      <trkpt lat="43.38891" lon="1.31386">
        <ele>257</ele>
        <time>2017-10-01T09:57:16Z</time>
      </trkpt>
      <trkpt lat="43.38892" lon="1.31377">
        <ele>257</ele>
        <time>2017-10-01T09:57:16Z</time>
      </trkpt>
      <trkpt lat="43.38894" lon="1.31374">
        <ele>257</ele>
        <time>2017-10-01T09:57:16Z</time>
      </trkpt>
      <trkpt lat="43.38895" lon="1.31371">
        <ele>257</ele>
        <time>2017-10-01T09:57:36Z</time>
      </trkpt>
      <trkpt lat="43.38896" lon="1.31372">
        <ele>257</ele>
        <time>2017-10-01T09:57:36Z</time>
      </trkpt>
      <trkpt lat="43.38898" lon="1.31369">
        <ele>257</ele>
        <time>2017-10-01T09:57:36Z</time>
      </trkpt>
      <trkpt lat="43.38902" lon="1.31363">
        <ele>257</ele>
        <time>2017-10-01T09:57:36Z</time>
      </trkpt>
      <trkpt lat="43.38903" lon="1.31357">
        <ele>257</ele>
        <time>2017-10-01T09:57:36Z</time>
      </trkpt>
      <trkpt lat="43.38907" lon="1.3135">
        <ele>257</ele>
        <time>2017-10-01T09:57:52Z</time>
      </trkpt>
      <trkpt lat="43.3891" lon="1.31343">
        <ele>257</ele>
        <time>2017-10-01T09:57:52Z</time>
      </trkpt>
      <trkpt lat="43.38911" lon="1.31339">
        <ele>257</ele>
        <time>2017-10-01T09:57:52Z</time>
      </trkpt>
      <trkpt lat="43.38911" lon="1.31332">
        <ele>257</ele>
        <time>2017-10-01T09:57:52Z</time>
      </trkpt>
      <trkpt lat="43.38914" lon="1.31324">
        <ele>257</ele>
        <time>2017-10-01T09:58:08Z</time>
      </trkpt>
      <trkpt lat="43.38916" lon="1.31318">
        <ele>257</ele>
        <time>2017-10-01T09:58:08Z</time>
      </trkpt>
      <trkpt lat="43.3892" lon="1.31311">
        <ele>257</ele>
        <time>2017-10-01T09:58:08Z</time>
      </trkpt>
      <trkpt lat="43.38919" lon="1.31305">
        <ele>257</ele>
        <time>2017-10-01T09:58:08Z</time>
      </trkpt>
      <trkpt lat="43.3892" lon="1.31299">
        <ele>257</ele>
        <time>2017-10-01T09:58:24Z</time>
      </trkpt>
      <trkpt lat="43.38919" lon="1.31292">
        <ele>257</ele>
        <time>2017-10-01T09:58:24Z</time>
      </trkpt>
      <trkpt lat="43.38922" lon="1.31286">
        <ele>255</ele>
        <time>2017-10-01T09:58:24Z</time>
      </trkpt>
      <trkpt lat="43.38925" lon="1.3128">
        <ele>255</ele>
        <time>2017-10-01T09:58:24Z</time>
      </trkpt>
      <trkpt lat="43.38927" lon="1.31272">
        <ele>255</ele>
        <time>2017-10-01T09:58:41Z</time>
      </trkpt>
      <trkpt lat="43.38932" lon="1.31267">
        <ele>255</ele>
        <time>2017-10-01T09:58:41Z</time>
      </trkpt>
      <trkpt lat="43.38935" lon="1.31262">
        <ele>255</ele>
        <time>2017-10-01T09:58:41Z</time>
      </trkpt>
      <trkpt lat="43.38938" lon="1.31256">
        <ele>255</ele>
        <time>2017-10-01T09:58:41Z</time>
      </trkpt>
      <trkpt lat="43.38938" lon="1.31259">
        <ele>255</ele>
        <time>2017-10-01T09:59:00Z</time>
      </trkpt>
      <trkpt lat="43.3894" lon="1.3126">
        <ele>255</ele>
        <time>2017-10-01T09:59:00Z</time>
      </trkpt>
      <trkpt lat="43.3894" lon="1.31255">
        <ele>255</ele>
        <time>2017-10-01T09:59:00Z</time>
      </trkpt>
      <trkpt lat="43.3894" lon="1.31248">
        <ele>255</ele>
        <time>2017-10-01T09:59:00Z</time>
      </trkpt>
      <trkpt lat="43.38941" lon="1.31244">
        <ele>255</ele>
        <time>2017-10-01T09:59:00Z</time>
      </trkpt>
      <trkpt lat="43.38943" lon="1.31239">
        <ele>255</ele>
        <time>2017-10-01T09:59:16Z</time>
      </trkpt>
      <trkpt lat="43.38945" lon="1.31233">
        <ele>255</ele>
        <time>2017-10-01T09:59:16Z</time>
      </trkpt>
      <trkpt lat="43.38949" lon="1.31227">
        <ele>255</ele>
        <time>2017-10-01T09:59:16Z</time>
      </trkpt>
      <trkpt lat="43.38951" lon="1.3122">
        <ele>255</ele>
        <time>2017-10-01T09:59:16Z</time>
      </trkpt>
      <trkpt lat="43.38951" lon="1.31213">
        <ele>255</ele>
        <time>2017-10-01T09:59:32Z</time>
      </trkpt>
      <trkpt lat="43.38954" lon="1.31206">
        <ele>254</ele>
        <time>2017-10-01T09:59:32Z</time>
      </trkpt>
      <trkpt lat="43.38957" lon="1.31199">
        <ele>254</ele>
        <time>2017-10-01T09:59:32Z</time>
      </trkpt>
      <trkpt lat="43.38959" lon="1.31194">
        <ele>267</ele>
        <time>2017-10-01T09:59:32Z</time>
      </trkpt>
      <trkpt lat="43.38961" lon="1.31188">
        <ele>267</ele>
        <time>2017-10-01T09:59:48Z</time>
      </trkpt>
      <trkpt lat="43.38962" lon="1.31181">
        <ele>267</ele>
        <time>2017-10-01T09:59:48Z</time>
      </trkpt>
      <trkpt lat="43.38965" lon="1.31176">
        <ele>267</ele>
        <time>2017-10-01T09:59:48Z</time>
      </trkpt>
      <trkpt lat="43.38969" lon="1.31171">
        <ele>267</ele>
        <time>2017-10-01T09:59:48Z</time>
      </trkpt>
      <trkpt lat="43.38972" lon="1.31168">
        <ele>267</ele>
        <time>2017-10-01T10:00:04Z</time>
      </trkpt>
      <trkpt lat="43.38975" lon="1.31168">
        <ele>267</ele>
        <time>2017-10-01T10:00:04Z</time>
      </trkpt>
      <trkpt lat="43.38981" lon="1.31171">
        <ele>267</ele>
        <time>2017-10-01T10:00:04Z</time>
      </trkpt>
      <trkpt lat="43.38984" lon="1.31172">
        <ele>267</ele>
        <time>2017-10-01T10:00:04Z</time>
      </trkpt>
      <trkpt lat="43.38989" lon="1.31173">
        <ele>267</ele>
        <time>2017-10-01T10:00:20Z</time>
      </trkpt>
      <trkpt lat="43.38994" lon="1.31172">
        <ele>267</ele>
        <time>2017-10-01T10:00:20Z</time>
      </trkpt>
      <trkpt lat="43.38997" lon="1.3117">
        <ele>267</ele>
        <time>2017-10-01T10:00:20Z</time>
      </trkpt>
      <trkpt lat="43.39" lon="1.31167">
        <ele>267</ele>
        <time>2017-10-01T10:00:21Z</time>
      </trkpt>
      <trkpt lat="43.39001" lon="1.31161">
        <ele>267</ele>
        <time>2017-10-01T10:00:37Z</time>
      </trkpt>
      <trkpt lat="43.39001" lon="1.31158">
        <ele>267</ele>
        <time>2017-10-01T10:00:37Z</time>
      </trkpt>
      <trkpt lat="43.39002" lon="1.31151">
        <ele>267</ele>
        <time>2017-10-01T10:00:37Z</time>
      </trkpt>
      <trkpt lat="43.39004" lon="1.31141">
        <ele>267</ele>
        <time>2017-10-01T10:00:37Z</time>
      </trkpt>
      <trkpt lat="43.39007" lon="1.31138">
        <ele>267</ele>
        <time>2017-10-01T10:00:52Z</time>
      </trkpt>
      <trkpt lat="43.39009" lon="1.31134">
        <ele>267</ele>
        <time>2017-10-01T10:00:52Z</time>
      </trkpt>
      <trkpt lat="43.39011" lon="1.31129">
        <ele>267</ele>
        <time>2017-10-01T10:00:52Z</time>
      </trkpt>
      <trkpt lat="43.39012" lon="1.31123">
        <ele>266</ele>
        <time>2017-10-01T10:00:52Z</time>
      </trkpt>
      <trkpt lat="43.39013" lon="1.31116">
        <ele>266</ele>
        <time>2017-10-01T10:01:08Z</time>
      </trkpt>
      <trkpt lat="43.39013" lon="1.31112">
        <ele>266</ele>
        <time>2017-10-01T10:01:08Z</time>
      </trkpt>
      <trkpt lat="43.39013" lon="1.31107">
        <ele>266</ele>
        <time>2017-10-01T10:01:08Z</time>
      </trkpt>
      <trkpt lat="43.39014" lon="1.311">
        <ele>266</ele>
        <time>2017-10-01T10:01:08Z</time>
      </trkpt>
      <trkpt lat="43.39014" lon="1.31094">
        <ele>266</ele>
        <time>2017-10-01T10:01:24Z</time>
      </trkpt>
      <trkpt lat="43.39014" lon="1.31086">
        <ele>266</ele>
        <time>2017-10-01T10:01:24Z</time>
      </trkpt>
      <trkpt lat="43.39015" lon="1.3108">
        <ele>266</ele>
        <time>2017-10-01T10:01:24Z</time>
      </trkpt>
      <trkpt lat="43.39017" lon="1.31075">
        <ele>266</ele>
        <time>2017-10-01T10:01:24Z</time>
      </trkpt>
      <trkpt lat="43.39018" lon="1.3107">
        <ele>266</ele>
        <time>2017-10-01T10:01:40Z</time>
      </trkpt>
      <trkpt lat="43.39018" lon="1.31063">
        <ele>266</ele>
        <time>2017-10-01T10:01:40Z</time>
      </trkpt>
      <trkpt lat="43.39016" lon="1.3106">
        <ele>266</ele>
        <time>2017-10-01T10:01:40Z</time>
      </trkpt>
      <trkpt lat="43.39013" lon="1.31055">
        <ele>266</ele>
        <time>2017-10-01T10:01:40Z</time>
      </trkpt>
      <trkpt lat="43.3901" lon="1.3105">
        <ele>266</ele>
        <time>2017-10-01T10:01:56Z</time>
      </trkpt>
      <trkpt lat="43.39008" lon="1.31048">
        <ele>266</ele>
        <time>2017-10-01T10:01:56Z</time>
      </trkpt>
      <trkpt lat="43.39006" lon="1.31043">
        <ele>266</ele>
        <time>2017-10-01T10:01:56Z</time>
      </trkpt>
      <trkpt lat="43.39004" lon="1.31038">
        <ele>263</ele>
        <time>2017-10-01T10:01:56Z</time>
      </trkpt>
      <trkpt lat="43.39001" lon="1.31034">
        <ele>263</ele>
        <time>2017-10-01T10:02:12Z</time>
      </trkpt>
      <trkpt lat="43.38998" lon="1.31031">
        <ele>263</ele>
        <time>2017-10-01T10:02:12Z</time>
      </trkpt>
      <trkpt lat="43.38996" lon="1.31025">
        <ele>263</ele>
        <time>2017-10-01T10:02:12Z</time>
      </trkpt>
      <trkpt lat="43.38994" lon="1.31019">
        <ele>263</ele>
        <time>2017-10-01T10:02:12Z</time>
      </trkpt>
      <trkpt lat="43.38992" lon="1.31013">
        <ele>263</ele>
        <time>2017-10-01T10:02:28Z</time>
      </trkpt>
      <trkpt lat="43.38989" lon="1.31007">
        <ele>263</ele>
        <time>2017-10-01T10:02:28Z</time>
      </trkpt>
      <trkpt lat="43.38986" lon="1.31001">
        <ele>263</ele>
        <time>2017-10-01T10:02:28Z</time>
      </trkpt>
      <trkpt lat="43.38983" lon="1.30993">
        <ele>263</ele>
        <time>2017-10-01T10:02:28Z</time>
      </trkpt>
      <trkpt lat="43.38978" lon="1.30985">
        <ele>263</ele>
        <time>2017-10-01T10:02:44Z</time>
      </trkpt>
      <trkpt lat="43.38974" lon="1.30978">
        <ele>263</ele>
        <time>2017-10-01T10:02:44Z</time>
      </trkpt>
      <trkpt lat="43.38972" lon="1.30975">
        <ele>263</ele>
        <time>2017-10-01T10:02:44Z</time>
      </trkpt>
      <trkpt lat="43.38971" lon="1.3097">
        <ele>263</ele>
        <time>2017-10-01T10:02:44Z</time>
      </trkpt>
      <trkpt lat="43.38967" lon="1.30963">
        <ele>263</ele>
        <time>2017-10-01T10:03:00Z</time>
      </trkpt>
      <trkpt lat="43.38963" lon="1.30957">
        <ele>260</ele>
        <time>2017-10-01T10:03:00Z</time>
      </trkpt>
      <trkpt lat="43.3896" lon="1.3095">
        <ele>260</ele>
        <time>2017-10-01T10:03:00Z</time>
      </trkpt>
      <trkpt lat="43.38958" lon="1.30946">
        <ele>250</ele>
        <time>2017-10-01T10:03:00Z</time>
      </trkpt>
      <trkpt lat="43.38955" lon="1.3094">
        <ele>250</ele>
        <time>2017-10-01T10:03:16Z</time>
      </trkpt>
      <trkpt lat="43.38954" lon="1.30934">
        <ele>250</ele>
        <time>2017-10-01T10:03:16Z</time>
      </trkpt>
      <trkpt lat="43.38951" lon="1.30929">
        <ele>250</ele>
        <time>2017-10-01T10:03:16Z</time>
      </trkpt>
      <trkpt lat="43.38948" lon="1.30923">
        <ele>250</ele>
        <time>2017-10-01T10:03:16Z</time>
      </trkpt>
      <trkpt lat="43.38945" lon="1.30917">
        <ele>250</ele>
        <time>2017-10-01T10:03:32Z</time>
      </trkpt>
      <trkpt lat="43.38943" lon="1.30913">
        <ele>250</ele>
        <time>2017-10-01T10:03:32Z</time>
      </trkpt>
      <trkpt lat="43.3894" lon="1.30907">
        <ele>250</ele>
        <time>2017-10-01T10:03:32Z</time>
      </trkpt>
      <trkpt lat="43.38937" lon="1.30902">
        <ele>250</ele>
        <time>2017-10-01T10:03:32Z</time>
      </trkpt>
      <trkpt lat="43.38934" lon="1.30895">
        <ele>250</ele>
        <time>2017-10-01T10:03:48Z</time>
      </trkpt>
      <trkpt lat="43.38932" lon="1.3089">
        <ele>250</ele>
        <time>2017-10-01T10:03:48Z</time>
      </trkpt>
      <trkpt lat="43.3893" lon="1.30882">
        <ele>250</ele>
        <time>2017-10-01T10:03:48Z</time>
      </trkpt>
      <trkpt lat="43.38931" lon="1.3088">
        <ele>250</ele>
        <time>2017-10-01T10:03:48Z</time>
      </trkpt>
      <trkpt lat="43.38934" lon="1.30879">
        <ele>250</ele>
        <time>2017-10-01T10:04:04Z</time>
      </trkpt>
      <trkpt lat="43.38936" lon="1.3088">
        <ele>250</ele>
        <time>2017-10-01T10:04:04Z</time>
      </trkpt>
      <trkpt lat="43.3894" lon="1.30879">
        <ele>250</ele>
        <time>2017-10-01T10:04:04Z</time>
      </trkpt>
      <trkpt lat="43.38945" lon="1.30877">
        <ele>250</ele>
        <time>2017-10-01T10:04:04Z</time>
      </trkpt>
      <trkpt lat="43.38952" lon="1.30878">
        <ele>250</ele>
        <time>2017-10-01T10:04:29Z</time>
      </trkpt>
      <trkpt lat="43.38954" lon="1.30877">
        <ele>250</ele>
        <time>2017-10-01T10:04:29Z</time>
      </trkpt>
      <trkpt lat="43.38954" lon="1.30882">
        <ele>250</ele>
        <time>2017-10-01T10:04:29Z</time>
      </trkpt>
      <trkpt lat="43.38955" lon="1.30882">
        <ele>250</ele>
        <time>2017-10-01T10:04:29Z</time>
      </trkpt>
      <trkpt lat="43.38959" lon="1.30884">
        <ele>260</ele>
        <time>2017-10-01T10:04:29Z</time>
      </trkpt>
      <trkpt lat="43.38962" lon="1.30881">
        <ele>260</ele>
        <time>2017-10-01T10:04:44Z</time>
      </trkpt>
      <trkpt lat="43.38968" lon="1.30878">
        <ele>260</ele>
        <time>2017-10-01T10:04:44Z</time>
      </trkpt>
      <trkpt lat="43.38973" lon="1.30876">
        <ele>260</ele>
        <time>2017-10-01T10:04:44Z</time>
      </trkpt>
      <trkpt lat="43.38977" lon="1.30875">
        <ele>259</ele>
        <time>2017-10-01T10:04:44Z</time>
      </trkpt>
      <trkpt lat="43.38983" lon="1.30871">
        <ele>259</ele>
        <time>2017-10-01T10:05:00Z</time>
      </trkpt>
      <trkpt lat="43.3899" lon="1.30867">
        <ele>259</ele>
        <time>2017-10-01T10:05:00Z</time>
      </trkpt>
      <trkpt lat="43.38996" lon="1.30863">
        <ele>259</ele>
        <time>2017-10-01T10:05:00Z</time>
      </trkpt>
      <trkpt lat="43.39001" lon="1.3086">
        <ele>259</ele>
        <time>2017-10-01T10:05:00Z</time>
      </trkpt>
      <trkpt lat="43.39005" lon="1.3086">
        <ele>259</ele>
        <time>2017-10-01T10:05:17Z</time>
      </trkpt>
      <trkpt lat="43.39006" lon="1.30867">
        <ele>259</ele>
        <time>2017-10-01T10:05:17Z</time>
      </trkpt>
      <trkpt lat="43.39008" lon="1.30868">
        <ele>259</ele>
        <time>2017-10-01T10:05:17Z</time>
      </trkpt>
      <trkpt lat="43.39013" lon="1.30865">
        <ele>259</ele>
        <time>2017-10-01T10:05:17Z</time>
      </trkpt>
      <trkpt lat="43.39016" lon="1.30864">
        <ele>259</ele>
        <time>2017-10-01T10:05:32Z</time>
      </trkpt>
      <trkpt lat="43.39021" lon="1.30863">
        <ele>259</ele>
        <time>2017-10-01T10:05:32Z</time>
      </trkpt>
      <trkpt lat="43.39028" lon="1.30861">
        <ele>259</ele>
        <time>2017-10-01T10:05:32Z</time>
      </trkpt>
      <trkpt lat="43.39031" lon="1.30858">
        <ele>259</ele>
        <time>2017-10-01T10:05:32Z</time>
      </trkpt>
      <trkpt lat="43.39034" lon="1.30858">
        <ele>259</ele>
        <time>2017-10-01T10:05:48Z</time>
      </trkpt>
      <trkpt lat="43.39039" lon="1.30859">
        <ele>259</ele>
        <time>2017-10-01T10:05:48Z</time>
      </trkpt>
      <trkpt lat="43.39043" lon="1.30858">
        <ele>269</ele>
        <time>2017-10-01T10:05:48Z</time>
      </trkpt>
      <trkpt lat="43.39047" lon="1.30856">
        <ele>269</ele>
        <time>2017-10-01T10:05:48Z</time>
      </trkpt>
      <trkpt lat="43.39054" lon="1.30852">
        <ele>269</ele>
        <time>2017-10-01T10:06:04Z</time>
      </trkpt>
      <trkpt lat="43.39058" lon="1.3085">
        <ele>269</ele>
        <time>2017-10-01T10:06:04Z</time>
      </trkpt>
      <trkpt lat="43.39064" lon="1.30847">
        <ele>269</ele>
        <time>2017-10-01T10:06:04Z</time>
      </trkpt>
      <trkpt lat="43.39069" lon="1.30845">
        <ele>269</ele>
        <time>2017-10-01T10:06:04Z</time>
      </trkpt>
      <trkpt lat="43.39074" lon="1.30842">
        <ele>269</ele>
        <time>2017-10-01T10:06:20Z</time>
      </trkpt>
      <trkpt lat="43.39078" lon="1.30842">
        <ele>269</ele>
        <time>2017-10-01T10:06:20Z</time>
      </trkpt>
      <trkpt lat="43.39082" lon="1.3084">
        <ele>269</ele>
        <time>2017-10-01T10:06:20Z</time>
      </trkpt>
      <trkpt lat="43.39086" lon="1.30838">
        <ele>269</ele>
        <time>2017-10-01T10:06:20Z</time>
      </trkpt>
      <trkpt lat="43.39091" lon="1.30837">
        <ele>269</ele>
        <time>2017-10-01T10:06:36Z</time>
      </trkpt>
      <trkpt lat="43.39095" lon="1.30837">
        <ele>269</ele>
        <time>2017-10-01T10:06:36Z</time>
      </trkpt>
      <trkpt lat="43.39099" lon="1.30836">
        <ele>269</ele>
        <time>2017-10-01T10:06:36Z</time>
      </trkpt>
      <trkpt lat="43.39101" lon="1.30839">
        <ele>269</ele>
        <time>2017-10-01T10:06:36Z</time>
      </trkpt>
      <trkpt lat="43.39104" lon="1.3084">
        <ele>269</ele>
        <time>2017-10-01T10:06:52Z</time>
      </trkpt>
      <trkpt lat="43.3911" lon="1.30835">
        <ele>269</ele>
        <time>2017-10-01T10:06:52Z</time>
      </trkpt>
      <trkpt lat="43.39114" lon="1.30834">
        <ele>269</ele>
        <time>2017-10-01T10:06:52Z</time>
      </trkpt>
      <trkpt lat="43.39116" lon="1.30837">
        <ele>269</ele>
        <time>2017-10-01T10:06:52Z</time>
      </trkpt>
      <trkpt lat="43.39119" lon="1.30839">
        <ele>269</ele>
        <time>2017-10-01T10:07:09Z</time>
      </trkpt>
      <trkpt lat="43.39121" lon="1.3084">
        <ele>269</ele>
        <time>2017-10-01T10:07:09Z</time>
      </trkpt>
      <trkpt lat="43.39125" lon="1.30841">
        <ele>269</ele>
        <time>2017-10-01T10:07:09Z</time>
      </trkpt>
      <trkpt lat="43.39129" lon="1.30843">
        <ele>278</ele>
        <time>2017-10-01T10:07:09Z</time>
      </trkpt>
      <trkpt lat="43.39132" lon="1.30843">
        <ele>278</ele>
        <time>2017-10-01T10:07:24Z</time>
      </trkpt>
      <trkpt lat="43.39138" lon="1.30841">
        <ele>278</ele>
        <time>2017-10-01T10:07:24Z</time>
      </trkpt>
      <trkpt lat="43.39142" lon="1.3084">
        <ele>278</ele>
        <time>2017-10-01T10:07:24Z</time>
      </trkpt>
      <trkpt lat="43.39147" lon="1.30841">
        <ele>278</ele>
        <time>2017-10-01T10:07:24Z</time>
      </trkpt>
      <trkpt lat="43.39152" lon="1.30842">
        <ele>278</ele>
        <time>2017-10-01T10:07:41Z</time>
      </trkpt>
      <trkpt lat="43.39155" lon="1.30844">
        <ele>278</ele>
        <time>2017-10-01T10:07:41Z</time>
      </trkpt>
      <trkpt lat="43.39159" lon="1.30844">
        <ele>278</ele>
        <time>2017-10-01T10:07:41Z</time>
      </trkpt>
      <trkpt lat="43.39166" lon="1.30843">
        <ele>278</ele>
        <time>2017-10-01T10:07:41Z</time>
      </trkpt>
      <trkpt lat="43.3917" lon="1.30842">
        <ele>278</ele>
        <time>2017-10-01T10:07:56Z</time>
      </trkpt>
      <trkpt lat="43.39175" lon="1.30842">
        <ele>278</ele>
        <time>2017-10-01T10:07:56Z</time>
      </trkpt>
      <trkpt lat="43.3918" lon="1.30843">
        <ele>278</ele>
        <time>2017-10-01T10:07:56Z</time>
      </trkpt>
      <trkpt lat="43.39183" lon="1.30844">
        <ele>278</ele>
        <time>2017-10-01T10:07:56Z</time>
      </trkpt>
      <trkpt lat="43.39194" lon="1.30842">
        <ele>278</ele>
        <time>2017-10-01T10:12:40Z</time>
      </trkpt>
      <trkpt lat="43.39194" lon="1.30842">
        <ele>278</ele>
        <time>2017-10-01T10:12:40Z</time>
      </trkpt>
      <trkpt lat="43.39196" lon="1.30844">
        <ele>278</ele>
        <time>2017-10-01T10:12:40Z</time>
      </trkpt>
      <trkpt lat="43.392" lon="1.30845">
        <ele>278</ele>
        <time>2017-10-01T10:12:40Z</time>
      </trkpt>
      <trkpt lat="43.39205" lon="1.30845">
        <ele>278</ele>
        <time>2017-10-01T10:12:40Z</time>
      </trkpt>
      <trkpt lat="43.3921" lon="1.30846">
        <ele>279</ele>
        <time>2017-10-01T10:12:56Z</time>
      </trkpt>
      <trkpt lat="43.39215" lon="1.30847">
        <ele>279</ele>
        <time>2017-10-01T10:12:56Z</time>
      </trkpt>
      <trkpt lat="43.39219" lon="1.3085">
        <ele>279</ele>
        <time>2017-10-01T10:12:56Z</time>
      </trkpt>
      <trkpt lat="43.39223" lon="1.30853">
        <ele>279</ele>
        <time>2017-10-01T10:12:56Z</time>
      </trkpt>
      <trkpt lat="43.39227" lon="1.30854">
        <ele>279</ele>
        <time>2017-10-01T10:13:12Z</time>
      </trkpt>
      <trkpt lat="43.39232" lon="1.30854">
        <ele>279</ele>
        <time>2017-10-01T10:13:12Z</time>
      </trkpt>
      <trkpt lat="43.39237" lon="1.30856">
        <ele>279</ele>
        <time>2017-10-01T10:13:12Z</time>
      </trkpt>
      <trkpt lat="43.39241" lon="1.30857">
        <ele>279</ele>
        <time>2017-10-01T10:13:12Z</time>
      </trkpt>
      <trkpt lat="43.39246" lon="1.30859">
        <ele>279</ele>
        <time>2017-10-01T10:13:29Z</time>
      </trkpt>
      <trkpt lat="43.39247" lon="1.3086">
        <ele>279</ele>
        <time>2017-10-01T10:13:29Z</time>
      </trkpt>
      <trkpt lat="43.39251" lon="1.30861">
        <ele>279</ele>
        <time>2017-10-01T10:13:29Z</time>
      </trkpt>
      <trkpt lat="43.39255" lon="1.30863">
        <ele>279</ele>
        <time>2017-10-01T10:13:29Z</time>
      </trkpt>
      <trkpt lat="43.39259" lon="1.30865">
        <ele>279</ele>
        <time>2017-10-01T10:13:44Z</time>
      </trkpt>
      <trkpt lat="43.39265" lon="1.30867">
        <ele>279</ele>
        <time>2017-10-01T10:13:44Z</time>
      </trkpt>
      <trkpt lat="43.39271" lon="1.30868">
        <ele>279</ele>
        <time>2017-10-01T10:13:44Z</time>
      </trkpt>
      <trkpt lat="43.39274" lon="1.30869">
        <ele>279</ele>
        <time>2017-10-01T10:13:44Z</time>
      </trkpt>
      <trkpt lat="43.39276" lon="1.3087">
        <ele>279</ele>
        <time>2017-10-01T10:14:01Z</time>
      </trkpt>
      <trkpt lat="43.3928" lon="1.30872">
        <ele>279</ele>
        <time>2017-10-01T10:14:01Z</time>
      </trkpt>
      <trkpt lat="43.39287" lon="1.30874">
        <ele>279</ele>
        <time>2017-10-01T10:14:01Z</time>
      </trkpt>
      <trkpt lat="43.39297" lon="1.30875">
        <ele>270</ele>
        <time>2017-10-01T10:14:01Z</time>
      </trkpt>
      <trkpt lat="43.39302" lon="1.30875">
        <ele>270</ele>
        <time>2017-10-01T10:14:16Z</time>
      </trkpt>
      <trkpt lat="43.39308" lon="1.30875">
        <ele>270</ele>
        <time>2017-10-01T10:14:16Z</time>
      </trkpt>
      <trkpt lat="43.39317" lon="1.30874">
        <ele>275</ele>
        <time>2017-10-01T10:14:16Z</time>
      </trkpt>
      <trkpt lat="43.39323" lon="1.30875">
        <ele>275</ele>
        <time>2017-10-01T10:14:16Z</time>
      </trkpt>
      <trkpt lat="43.39329" lon="1.30875">
        <ele>270</ele>
        <time>2017-10-01T10:14:32Z</time>
      </trkpt>
      <trkpt lat="43.39333" lon="1.30876">
        <ele>270</ele>
        <time>2017-10-01T10:14:33Z</time>
      </trkpt>
      <trkpt lat="43.39336" lon="1.30875">
        <ele>270</ele>
        <time>2017-10-01T10:14:33Z</time>
      </trkpt>
      <trkpt lat="43.39342" lon="1.30875">
        <ele>270</ele>
        <time>2017-10-01T10:14:33Z</time>
      </trkpt>
      <trkpt lat="43.39346" lon="1.30875">
        <ele>275</ele>
        <time>2017-10-01T10:14:52Z</time>
      </trkpt>
      <trkpt lat="43.39348" lon="1.30875">
        <ele>275</ele>
        <time>2017-10-01T10:14:52Z</time>
      </trkpt>
      <trkpt lat="43.39351" lon="1.30876">
        <ele>270</ele>
        <time>2017-10-01T10:14:52Z</time>
      </trkpt>
      <trkpt lat="43.39354" lon="1.30875">
        <ele>270</ele>
        <time>2017-10-01T10:14:52Z</time>
      </trkpt>
      <trkpt lat="43.39359" lon="1.30874">
        <ele>275</ele>
        <time>2017-10-01T10:14:52Z</time>
      </trkpt>
      <trkpt lat="43.39364" lon="1.30876">
        <ele>270</ele>
        <time>2017-10-01T10:15:09Z</time>
      </trkpt>
      <trkpt lat="43.3937" lon="1.30877">
        <ele>270</ele>
        <time>2017-10-01T10:15:09Z</time>
      </trkpt>
      <trkpt lat="43.39377" lon="1.30878">
        <ele>263</ele>
        <time>2017-10-01T10:15:09Z</time>
      </trkpt>
      <trkpt lat="43.39382" lon="1.30878">
        <ele>263</ele>
        <time>2017-10-01T10:15:09Z</time>
      </trkpt>
      <trkpt lat="43.39385" lon="1.30878">
        <ele>263</ele>
        <time>2017-10-01T10:15:24Z</time>
      </trkpt>
      <trkpt lat="43.39392" lon="1.30878">
        <ele>263</ele>
        <time>2017-10-01T10:15:24Z</time>
      </trkpt>
      <trkpt lat="43.39399" lon="1.30878">
        <ele>263</ele>
        <time>2017-10-01T10:15:24Z</time>
      </trkpt>
      <trkpt lat="43.39403" lon="1.30878">
        <ele>263</ele>
        <time>2017-10-01T10:15:24Z</time>
      </trkpt>
      <trkpt lat="43.39406" lon="1.30879">
        <ele>263</ele>
        <time>2017-10-01T10:15:41Z</time>
      </trkpt>
      <trkpt lat="43.39409" lon="1.3088">
        <ele>263</ele>
        <time>2017-10-01T10:15:41Z</time>
      </trkpt>
      <trkpt lat="43.39414" lon="1.30882">
        <ele>263</ele>
        <time>2017-10-01T10:15:41Z</time>
      </trkpt>
      <trkpt lat="43.39418" lon="1.30883">
        <ele>263</ele>
        <time>2017-10-01T10:15:41Z</time>
      </trkpt>
      <trkpt lat="43.39422" lon="1.30885">
        <ele>263</ele>
        <time>2017-10-01T10:15:56Z</time>
      </trkpt>
      <trkpt lat="43.39427" lon="1.30888">
        <ele>263</ele>
        <time>2017-10-01T10:15:56Z</time>
      </trkpt>
      <trkpt lat="43.39429" lon="1.3089">
        <ele>263</ele>
        <time>2017-10-01T10:15:56Z</time>
      </trkpt>
      <trkpt lat="43.39435" lon="1.30893">
        <ele>263</ele>
        <time>2017-10-01T10:15:56Z</time>
      </trkpt>
      <trkpt lat="43.39442" lon="1.30897">
        <ele>263</ele>
        <time>2017-10-01T10:16:15Z</time>
      </trkpt>
      <trkpt lat="43.39446" lon="1.309">
        <ele>263</ele>
        <time>2017-10-01T10:16:16Z</time>
      </trkpt>
      <trkpt lat="43.3945" lon="1.30904">
        <ele>263</ele>
        <time>2017-10-01T10:16:16Z</time>
      </trkpt>
      <trkpt lat="43.39457" lon="1.3091">
        <ele>263</ele>
        <time>2017-10-01T10:16:16Z</time>
      </trkpt>
      <trkpt lat="43.39459" lon="1.30912">
        <ele>260</ele>
        <time>2017-10-01T10:16:32Z</time>
      </trkpt>
      <trkpt lat="43.39465" lon="1.3092">
        <ele>260</ele>
        <time>2017-10-01T10:16:32Z</time>
      </trkpt>
      <trkpt lat="43.39469" lon="1.30924">
        <ele>260</ele>
        <time>2017-10-01T10:16:32Z</time>
      </trkpt>
      <trkpt lat="43.39471" lon="1.30928">
        <ele>260</ele>
        <time>2017-10-01T10:16:32Z</time>
      </trkpt>
      <trkpt lat="43.39474" lon="1.30935">
        <ele>260</ele>
        <time>2017-10-01T10:16:48Z</time>
      </trkpt>
      <trkpt lat="43.39477" lon="1.30938">
        <ele>260</ele>
        <time>2017-10-01T10:16:48Z</time>
      </trkpt>
      <trkpt lat="43.39483" lon="1.30944">
        <ele>260</ele>
        <time>2017-10-01T10:16:48Z</time>
      </trkpt>
      <trkpt lat="43.39487" lon="1.30947">
        <ele>260</ele>
        <time>2017-10-01T10:16:48Z</time>
      </trkpt>
      <trkpt lat="43.39492" lon="1.30951">
        <ele>260</ele>
        <time>2017-10-01T10:17:04Z</time>
      </trkpt>
      <trkpt lat="43.39499" lon="1.30955">
        <ele>260</ele>
        <time>2017-10-01T10:17:04Z</time>
      </trkpt>
      <trkpt lat="43.395" lon="1.30956">
        <ele>260</ele>
        <time>2017-10-01T10:17:04Z</time>
      </trkpt>
      <trkpt lat="43.39502" lon="1.30958">
        <ele>260</ele>
        <time>2017-10-01T10:17:04Z</time>
      </trkpt>
      <trkpt lat="43.39507" lon="1.30962">
        <ele>253</ele>
        <time>2017-10-01T10:17:21Z</time>
      </trkpt>
      <trkpt lat="43.39511" lon="1.30966">
        <ele>253</ele>
        <time>2017-10-01T10:17:21Z</time>
      </trkpt>
      <trkpt lat="43.39516" lon="1.3097">
        <ele>253</ele>
        <time>2017-10-01T10:17:21Z</time>
      </trkpt>
      <trkpt lat="43.39522" lon="1.30974">
        <ele>253</ele>
        <time>2017-10-01T10:17:21Z</time>
      </trkpt>
      <trkpt lat="43.39525" lon="1.30976">
        <ele>253</ele>
        <time>2017-10-01T10:17:36Z</time>
      </trkpt>
      <trkpt lat="43.39531" lon="1.30979">
        <ele>253</ele>
        <time>2017-10-01T10:17:36Z</time>
      </trkpt>
      <trkpt lat="43.39534" lon="1.30982">
        <ele>253</ele>
        <time>2017-10-01T10:17:36Z</time>
      </trkpt>
      <trkpt lat="43.39539" lon="1.30986">
        <ele>253</ele>
        <time>2017-10-01T10:17:36Z</time>
      </trkpt>
      <trkpt lat="43.39544" lon="1.30991">
        <ele>251</ele>
        <time>2017-10-01T10:17:53Z</time>
      </trkpt>
      <trkpt lat="43.39547" lon="1.30993">
        <ele>251</ele>
        <time>2017-10-01T10:17:53Z</time>
      </trkpt>
      <trkpt lat="43.39551" lon="1.30996">
        <ele>251</ele>
        <time>2017-10-01T10:17:53Z</time>
      </trkpt>
      <trkpt lat="43.39555" lon="1.31">
        <ele>251</ele>
        <time>2017-10-01T10:17:53Z</time>
      </trkpt>
      <trkpt lat="43.39558" lon="1.31003">
        <ele>251</ele>
        <time>2017-10-01T10:18:08Z</time>
      </trkpt>
      <trkpt lat="43.3956" lon="1.31006">
        <ele>251</ele>
        <time>2017-10-01T10:18:08Z</time>
      </trkpt>
      <trkpt lat="43.39566" lon="1.31011">
        <ele>251</ele>
        <time>2017-10-01T10:18:08Z</time>
      </trkpt>
      <trkpt lat="43.3957" lon="1.31013">
        <ele>251</ele>
        <time>2017-10-01T10:18:08Z</time>
      </trkpt>
      <trkpt lat="43.39575" lon="1.31018">
        <ele>251</ele>
        <time>2017-10-01T10:18:25Z</time>
      </trkpt>
      <trkpt lat="43.39577" lon="1.31021">
        <ele>251</ele>
        <time>2017-10-01T10:18:25Z</time>
      </trkpt>
      <trkpt lat="43.39581" lon="1.31027">
        <ele>251</ele>
        <time>2017-10-01T10:18:25Z</time>
      </trkpt>
      <trkpt lat="43.39583" lon="1.31032">
        <ele>251</ele>
        <time>2017-10-01T10:18:25Z</time>
      </trkpt>
      <trkpt lat="43.39585" lon="1.31034">
        <ele>251</ele>
        <time>2017-10-01T10:18:44Z</time>
      </trkpt>
      <trkpt lat="43.39591" lon="1.31034">
        <ele>251</ele>
        <time>2017-10-01T10:18:44Z</time>
      </trkpt>
      <trkpt lat="43.39592" lon="1.31034">
        <ele>251</ele>
        <time>2017-10-01T10:18:44Z</time>
      </trkpt>
      <trkpt lat="43.39593" lon="1.31034">
        <ele>251</ele>
        <time>2017-10-01T10:18:44Z</time>
      </trkpt>
      <trkpt lat="43.39597" lon="1.31038">
        <ele>251</ele>
        <time>2017-10-01T10:18:44Z</time>
      </trkpt>
      <trkpt lat="43.39599" lon="1.31043">
        <ele>255</ele>
        <time>2017-10-01T10:19:00Z</time>
      </trkpt>
      <trkpt lat="43.39602" lon="1.31046">
        <ele>255</ele>
        <time>2017-10-01T10:19:00Z</time>
      </trkpt>
      <trkpt lat="43.39608" lon="1.3105">
        <ele>255</ele>
        <time>2017-10-01T10:19:00Z</time>
      </trkpt>
      <trkpt lat="43.39614" lon="1.31054">
        <ele>255</ele>
        <time>2017-10-01T10:19:00Z</time>
      </trkpt>
      <trkpt lat="43.39619" lon="1.31058">
        <ele>255</ele>
        <time>2017-10-01T10:19:17Z</time>
      </trkpt>
      <trkpt lat="43.39623" lon="1.31061">
        <ele>255</ele>
        <time>2017-10-01T10:19:17Z</time>
      </trkpt>
      <trkpt lat="43.39628" lon="1.31065">
        <ele>256</ele>
        <time>2017-10-01T10:19:17Z</time>
      </trkpt>
      <trkpt lat="43.39631" lon="1.31068">
        <ele>256</ele>
        <time>2017-10-01T10:19:17Z</time>
      </trkpt>
      <trkpt lat="43.39635" lon="1.31072">
        <ele>256</ele>
        <time>2017-10-01T10:19:32Z</time>
      </trkpt>
      <trkpt lat="43.3964" lon="1.31075">
        <ele>256</ele>
        <time>2017-10-01T10:19:32Z</time>
      </trkpt>
      <trkpt lat="43.39643" lon="1.31079">
        <ele>256</ele>
        <time>2017-10-01T10:19:32Z</time>
      </trkpt>
      <trkpt lat="43.39646" lon="1.31081">
        <ele>256</ele>
        <time>2017-10-01T10:19:32Z</time>
      </trkpt>
      <trkpt lat="43.39652" lon="1.31091">
        <ele>256</ele>
        <time>2017-10-01T10:19:56Z</time>
      </trkpt>
      <trkpt lat="43.39651" lon="1.31094">
        <ele>256</ele>
        <time>2017-10-01T10:19:56Z</time>
      </trkpt>
      <trkpt lat="43.39653" lon="1.31096">
        <ele>256</ele>
        <time>2017-10-01T10:19:56Z</time>
      </trkpt>
      <trkpt lat="43.39654" lon="1.31096">
        <ele>256</ele>
        <time>2017-10-01T10:19:56Z</time>
      </trkpt>
      <trkpt lat="43.39657" lon="1.31099">
        <ele>256</ele>
        <time>2017-10-01T10:19:56Z</time>
      </trkpt>
      <trkpt lat="43.3966" lon="1.31104">
        <ele>256</ele>
        <time>2017-10-01T10:20:12Z</time>
      </trkpt>
      <trkpt lat="43.39663" lon="1.31109">
        <ele>256</ele>
        <time>2017-10-01T10:20:12Z</time>
      </trkpt>
      <trkpt lat="43.39669" lon="1.31122">
        <ele>256</ele>
        <time>2017-10-01T10:20:12Z</time>
      </trkpt>
      <trkpt lat="43.39672" lon="1.31126">
        <ele>264</ele>
        <time>2017-10-01T10:20:12Z</time>
      </trkpt>
      <trkpt lat="43.39675" lon="1.31131">
        <ele>264</ele>
        <time>2017-10-01T10:20:28Z</time>
      </trkpt>
      <trkpt lat="43.39678" lon="1.31136">
        <ele>264</ele>
        <time>2017-10-01T10:20:28Z</time>
      </trkpt>
      <trkpt lat="43.39682" lon="1.31142">
        <ele>264</ele>
        <time>2017-10-01T10:20:28Z</time>
      </trkpt>
      <trkpt lat="43.39685" lon="1.31147">
        <ele>264</ele>
        <time>2017-10-01T10:20:28Z</time>
      </trkpt>
      <trkpt lat="43.39688" lon="1.31151">
        <ele>264</ele>
        <time>2017-10-01T10:20:44Z</time>
      </trkpt>
      <trkpt lat="43.39689" lon="1.31155">
        <ele>264</ele>
        <time>2017-10-01T10:20:45Z</time>
      </trkpt>
      <trkpt lat="43.39694" lon="1.31158">
        <ele>264</ele>
        <time>2017-10-01T10:20:45Z</time>
      </trkpt>
      <trkpt lat="43.39701" lon="1.31163">
        <ele>264</ele>
        <time>2017-10-01T10:20:45Z</time>
      </trkpt>
      <trkpt lat="43.39706" lon="1.31165">
        <ele>264</ele>
        <time>2017-10-01T10:21:00Z</time>
      </trkpt>
      <trkpt lat="43.39711" lon="1.31168">
        <ele>268</ele>
        <time>2017-10-01T10:21:00Z</time>
      </trkpt>
      <trkpt lat="43.39715" lon="1.31172">
        <ele>268</ele>
        <time>2017-10-01T10:21:00Z</time>
      </trkpt>
      <trkpt lat="43.39719" lon="1.31175">
        <ele>268</ele>
        <time>2017-10-01T10:21:00Z</time>
      </trkpt>
      <trkpt lat="43.39723" lon="1.31178">
        <ele>268</ele>
        <time>2017-10-01T10:21:16Z</time>
      </trkpt>
      <trkpt lat="43.39728" lon="1.31181">
        <ele>268</ele>
        <time>2017-10-01T10:21:16Z</time>
      </trkpt>
      <trkpt lat="43.39732" lon="1.31183">
        <ele>268</ele>
        <time>2017-10-01T10:21:16Z</time>
      </trkpt>
      <trkpt lat="43.39736" lon="1.31185">
        <ele>268</ele>
        <time>2017-10-01T10:21:16Z</time>
      </trkpt>
      <trkpt lat="43.3974" lon="1.31186">
        <ele>268</ele>
        <time>2017-10-01T10:21:32Z</time>
      </trkpt>
      <trkpt lat="43.39745" lon="1.31188">
        <ele>268</ele>
        <time>2017-10-01T10:21:32Z</time>
      </trkpt>
      <trkpt lat="43.39749" lon="1.31189">
        <ele>268</ele>
        <time>2017-10-01T10:21:32Z</time>
      </trkpt>
      <trkpt lat="43.39753" lon="1.3119">
        <ele>268</ele>
        <time>2017-10-01T10:21:32Z</time>
      </trkpt>
      <trkpt lat="43.39758" lon="1.31191">
        <ele>268</ele>
        <time>2017-10-01T10:21:49Z</time>
      </trkpt>
      <trkpt lat="43.39762" lon="1.31192">
        <ele>268</ele>
        <time>2017-10-01T10:21:49Z</time>
      </trkpt>
      <trkpt lat="43.39767" lon="1.31192">
        <ele>268</ele>
        <time>2017-10-01T10:21:49Z</time>
      </trkpt>
      <trkpt lat="43.39772" lon="1.31194">
        <ele>268</ele>
        <time>2017-10-01T10:21:49Z</time>
      </trkpt>
      <trkpt lat="43.39774" lon="1.31196">
        <ele>268</ele>
        <time>2017-10-01T10:22:04Z</time>
      </trkpt>
      <trkpt lat="43.39777" lon="1.31198">
        <ele>268</ele>
        <time>2017-10-01T10:22:04Z</time>
      </trkpt>
      <trkpt lat="43.39782" lon="1.312">
        <ele>268</ele>
        <time>2017-10-01T10:22:04Z</time>
      </trkpt>
      <trkpt lat="43.39786" lon="1.31202">
        <ele>268</ele>
        <time>2017-10-01T10:22:04Z</time>
      </trkpt>
      <trkpt lat="43.39792" lon="1.31204">
        <ele>268</ele>
        <time>2017-10-01T10:22:20Z</time>
      </trkpt>
      <trkpt lat="43.39794" lon="1.31206">
        <ele>268</ele>
        <time>2017-10-01T10:22:20Z</time>
      </trkpt>
      <trkpt lat="43.39797" lon="1.31209">
        <ele>275</ele>
        <time>2017-10-01T10:22:20Z</time>
      </trkpt>
      <trkpt lat="43.39802" lon="1.31212">
        <ele>275</ele>
        <time>2017-10-01T10:22:20Z</time>
      </trkpt>
      <trkpt lat="43.39807" lon="1.31215">
        <ele>275</ele>
        <time>2017-10-01T10:22:36Z</time>
      </trkpt>
      <trkpt lat="43.39811" lon="1.31218">
        <ele>275</ele>
        <time>2017-10-01T10:22:36Z</time>
      </trkpt>
      <trkpt lat="43.39814" lon="1.31223">
        <ele>275</ele>
        <time>2017-10-01T10:22:36Z</time>
      </trkpt>
      <trkpt lat="43.39816" lon="1.31226">
        <ele>275</ele>
        <time>2017-10-01T10:22:36Z</time>
      </trkpt>
      <trkpt lat="43.3982" lon="1.31231">
        <ele>275</ele>
        <time>2017-10-01T10:22:52Z</time>
      </trkpt>
      <trkpt lat="43.39822" lon="1.31236">
        <ele>275</ele>
        <time>2017-10-01T10:22:52Z</time>
      </trkpt>
      <trkpt lat="43.39826" lon="1.3124">
        <ele>275</ele>
        <time>2017-10-01T10:22:52Z</time>
      </trkpt>
      <trkpt lat="43.3983" lon="1.31244">
        <ele>275</ele>
        <time>2017-10-01T10:22:52Z</time>
      </trkpt>
      <trkpt lat="43.3983" lon="1.31249">
        <ele>275</ele>
        <time>2017-10-01T10:23:08Z</time>
      </trkpt>
      <trkpt lat="43.39832" lon="1.31251">
        <ele>275</ele>
        <time>2017-10-01T10:23:08Z</time>
      </trkpt>
      <trkpt lat="43.39835" lon="1.31257">
        <ele>275</ele>
        <time>2017-10-01T10:23:08Z</time>
      </trkpt>
      <trkpt lat="43.39835" lon="1.3126">
        <ele>275</ele>
        <time>2017-10-01T10:23:08Z</time>
      </trkpt>
      <trkpt lat="43.39839" lon="1.31265">
        <ele>275</ele>
        <time>2017-10-01T10:23:24Z</time>
      </trkpt>
      <trkpt lat="43.3984" lon="1.31269">
        <ele>275</ele>
        <time>2017-10-01T10:23:24Z</time>
      </trkpt>
      <trkpt lat="43.39841" lon="1.31272">
        <ele>275</ele>
        <time>2017-10-01T10:23:24Z</time>
      </trkpt>
      <trkpt lat="43.39839" lon="1.31278">
        <ele>275</ele>
        <time>2017-10-01T10:23:24Z</time>
      </trkpt>
      <trkpt lat="43.3984" lon="1.31277">
        <ele>275</ele>
        <time>2017-10-01T10:23:40Z</time>
      </trkpt>
      <trkpt lat="43.39844" lon="1.31279">
        <ele>275</ele>
        <time>2017-10-01T10:23:40Z</time>
      </trkpt>
      <trkpt lat="43.39849" lon="1.31282">
        <ele>275</ele>
        <time>2017-10-01T10:23:40Z</time>
      </trkpt>
      <trkpt lat="43.3985" lon="1.3129">
        <ele>275</ele>
        <time>2017-10-01T10:23:40Z</time>
      </trkpt>
      <trkpt lat="43.39851" lon="1.31296">
        <ele>279</ele>
        <time>2017-10-01T10:24:01Z</time>
      </trkpt>
      <trkpt lat="43.39851" lon="1.31301">
        <ele>279</ele>
        <time>2017-10-01T10:24:01Z</time>
      </trkpt>
      <trkpt lat="43.39854" lon="1.31303">
        <ele>279</ele>
        <time>2017-10-01T10:24:01Z</time>
      </trkpt>
      <trkpt lat="43.39854" lon="1.31306">
        <ele>279</ele>
        <time>2017-10-01T10:24:01Z</time>
      </trkpt>
      <trkpt lat="43.39857" lon="1.3131">
        <ele>279</ele>
        <time>2017-10-01T10:24:01Z</time>
      </trkpt>
      <trkpt lat="43.39862" lon="1.31317">
        <ele>279</ele>
        <time>2017-10-01T10:24:16Z</time>
      </trkpt>
      <trkpt lat="43.39867" lon="1.31322">
        <ele>279</ele>
        <time>2017-10-01T10:24:16Z</time>
      </trkpt>
      <trkpt lat="43.39871" lon="1.31327">
        <ele>279</ele>
        <time>2017-10-01T10:24:16Z</time>
      </trkpt>
      <trkpt lat="43.39875" lon="1.31334">
        <ele>279</ele>
        <time>2017-10-01T10:24:16Z</time>
      </trkpt>
      <trkpt lat="43.39877" lon="1.31342">
        <ele>286</ele>
        <time>2017-10-01T10:24:33Z</time>
      </trkpt>
      <trkpt lat="43.3988" lon="1.31348">
        <ele>286</ele>
        <time>2017-10-01T10:24:33Z</time>
      </trkpt>
      <trkpt lat="43.39882" lon="1.31353">
        <ele>286</ele>
        <time>2017-10-01T10:24:33Z</time>
      </trkpt>
      <trkpt lat="43.39884" lon="1.31356">
        <ele>286</ele>
        <time>2017-10-01T10:24:33Z</time>
      </trkpt>
      <trkpt lat="43.39884" lon="1.31358">
        <ele>286</ele>
        <time>2017-10-01T10:24:48Z</time>
      </trkpt>
      <trkpt lat="43.39884" lon="1.31362">
        <ele>286</ele>
        <time>2017-10-01T10:24:48Z</time>
      </trkpt>
      <trkpt lat="43.39884" lon="1.31368">
        <ele>286</ele>
        <time>2017-10-01T10:24:48Z</time>
      </trkpt>
      <trkpt lat="43.39886" lon="1.31379">
        <ele>295</ele>
        <time>2017-10-01T10:24:48Z</time>
      </trkpt>
      <trkpt lat="43.39887" lon="1.31385">
        <ele>295</ele>
        <time>2017-10-01T10:25:05Z</time>
      </trkpt>
      <trkpt lat="43.39887" lon="1.31389">
        <ele>295</ele>
        <time>2017-10-01T10:25:05Z</time>
      </trkpt>
      <trkpt lat="43.39889" lon="1.31394">
        <ele>295</ele>
        <time>2017-10-01T10:25:05Z</time>
      </trkpt>
      <trkpt lat="43.3989" lon="1.31398">
        <ele>295</ele>
        <time>2017-10-01T10:25:05Z</time>
      </trkpt>
      <trkpt lat="43.3989" lon="1.31401">
        <ele>295</ele>
        <time>2017-10-01T10:25:25Z</time>
      </trkpt>
      <trkpt lat="43.39891" lon="1.31403">
        <ele>295</ele>
        <time>2017-10-01T10:25:25Z</time>
      </trkpt>
      <trkpt lat="43.39892" lon="1.31406">
        <ele>295</ele>
        <time>2017-10-01T10:25:25Z</time>
      </trkpt>
      <trkpt lat="43.39892" lon="1.31411">
        <ele>295</ele>
        <time>2017-10-01T10:25:25Z</time>
      </trkpt>
      <trkpt lat="43.39894" lon="1.31416">
        <ele>295</ele>
        <time>2017-10-01T10:25:25Z</time>
      </trkpt>
      <trkpt lat="43.39895" lon="1.31421">
        <ele>295</ele>
        <time>2017-10-01T10:25:40Z</time>
      </trkpt>
      <trkpt lat="43.39896" lon="1.31426">
        <ele>295</ele>
        <time>2017-10-01T10:25:40Z</time>
      </trkpt>
      <trkpt lat="43.39897" lon="1.31431">
        <ele>295</ele>
        <time>2017-10-01T10:25:40Z</time>
      </trkpt>
      <trkpt lat="43.39897" lon="1.31436">
        <ele>295</ele>
        <time>2017-10-01T10:25:40Z</time>
      </trkpt>
      <trkpt lat="43.39898" lon="1.31439">
        <ele>295</ele>
        <time>2017-10-01T10:25:56Z</time>
      </trkpt>
      <trkpt lat="43.39897" lon="1.31443">
        <ele>295</ele>
        <time>2017-10-01T10:25:56Z</time>
      </trkpt>
      <trkpt lat="43.39898" lon="1.31449">
        <ele>295</ele>
        <time>2017-10-01T10:25:56Z</time>
      </trkpt>
      <trkpt lat="43.39899" lon="1.31454">
        <ele>295</ele>
        <time>2017-10-01T10:25:56Z</time>
      </trkpt>
      <trkpt lat="43.39899" lon="1.3146">
        <ele>297</ele>
        <time>2017-10-01T10:26:13Z</time>
      </trkpt>
      <trkpt lat="43.399" lon="1.31466">
        <ele>297</ele>
        <time>2017-10-01T10:26:13Z</time>
      </trkpt>
      <trkpt lat="43.399" lon="1.31473">
        <ele>297</ele>
        <time>2017-10-01T10:26:13Z</time>
      </trkpt>
      <trkpt lat="43.399" lon="1.31483">
        <ele>297</ele>
        <time>2017-10-01T10:26:13Z</time>
      </trkpt>
      <trkpt lat="43.39901" lon="1.31494">
        <ele>297</ele>
        <time>2017-10-01T10:26:28Z</time>
      </trkpt>
      <trkpt lat="43.39902" lon="1.31507">
        <ele>297</ele>
        <time>2017-10-01T10:26:28Z</time>
      </trkpt>
      <trkpt lat="43.39903" lon="1.31518">
        <ele>297</ele>
        <time>2017-10-01T10:26:28Z</time>
      </trkpt>
      <trkpt lat="43.39904" lon="1.31527">
        <ele>297</ele>
        <time>2017-10-01T10:26:28Z</time>
      </trkpt>
      <trkpt lat="43.39904" lon="1.31534">
        <ele>297</ele>
        <time>2017-10-01T10:26:44Z</time>
      </trkpt>
      <trkpt lat="43.39903" lon="1.31542">
        <ele>295</ele>
        <time>2017-10-01T10:26:44Z</time>
      </trkpt>
      <trkpt lat="43.39903" lon="1.3155">
        <ele>295</ele>
        <time>2017-10-01T10:26:44Z</time>
      </trkpt>
      <trkpt lat="43.39903" lon="1.31558">
        <ele>295</ele>
        <time>2017-10-01T10:26:44Z</time>
      </trkpt>
      <trkpt lat="43.39903" lon="1.31565">
        <ele>295</ele>
        <time>2017-10-01T10:27:00Z</time>
      </trkpt>
      <trkpt lat="43.39904" lon="1.31568">
        <ele>295</ele>
        <time>2017-10-01T10:27:00Z</time>
      </trkpt>
      <trkpt lat="43.39907" lon="1.31577">
        <ele>295</ele>
        <time>2017-10-01T10:27:00Z</time>
      </trkpt>
      <trkpt lat="43.3991" lon="1.31584">
        <ele>295</ele>
        <time>2017-10-01T10:27:00Z</time>
      </trkpt>
      <trkpt lat="43.39913" lon="1.31594">
        <ele>295</ele>
        <time>2017-10-01T10:27:24Z</time>
      </trkpt>
      <trkpt lat="43.39914" lon="1.31599">
        <ele>295</ele>
        <time>2017-10-01T10:27:24Z</time>
      </trkpt>
      <trkpt lat="43.39913" lon="1.31601">
        <ele>295</ele>
        <time>2017-10-01T10:27:24Z</time>
      </trkpt>
      <trkpt lat="43.39914" lon="1.31601">
        <ele>295</ele>
        <time>2017-10-01T10:27:24Z</time>
      </trkpt>
      <trkpt lat="43.39915" lon="1.31604">
        <ele>295</ele>
        <time>2017-10-01T10:27:24Z</time>
      </trkpt>
      <trkpt lat="43.3992" lon="1.31606">
        <ele>295</ele>
        <time>2017-10-01T10:28:04Z</time>
      </trkpt>
      <trkpt lat="43.39922" lon="1.31608">
        <ele>295</ele>
        <time>2017-10-01T10:28:04Z</time>
      </trkpt>
      <trkpt lat="43.39925" lon="1.3161">
        <ele>295</ele>
        <time>2017-10-01T10:28:04Z</time>
      </trkpt>
      <trkpt lat="43.39929" lon="1.31613">
        <ele>295</ele>
        <time>2017-10-01T10:28:04Z</time>
      </trkpt>
      <trkpt lat="43.39933" lon="1.31617">
        <ele>295</ele>
        <time>2017-10-01T10:28:04Z</time>
      </trkpt>
      <trkpt lat="43.39936" lon="1.31622">
        <ele>295</ele>
        <time>2017-10-01T10:28:20Z</time>
      </trkpt>
      <trkpt lat="43.39939" lon="1.31628">
        <ele>293</ele>
        <time>2017-10-01T10:28:20Z</time>
      </trkpt>
      <trkpt lat="43.39942" lon="1.31633">
        <ele>293</ele>
        <time>2017-10-01T10:28:20Z</time>
      </trkpt>
      <trkpt lat="43.39944" lon="1.31639">
        <ele>293</ele>
        <time>2017-10-01T10:28:20Z</time>
      </trkpt>
      <trkpt lat="43.39945" lon="1.31643">
        <ele>293</ele>
        <time>2017-10-01T10:28:40Z</time>
      </trkpt>
      <trkpt lat="43.39945" lon="1.31644">
        <ele>293</ele>
        <time>2017-10-01T10:28:40Z</time>
      </trkpt>
      <trkpt lat="43.39945" lon="1.31645">
        <ele>293</ele>
        <time>2017-10-01T10:28:40Z</time>
      </trkpt>
      <trkpt lat="43.39946" lon="1.3165">
        <ele>293</ele>
        <time>2017-10-01T10:28:40Z</time>
      </trkpt>
      <trkpt lat="43.39949" lon="1.31656">
        <ele>293</ele>
        <time>2017-10-01T10:28:40Z</time>
      </trkpt>
      <trkpt lat="43.39951" lon="1.31662">
        <ele>293</ele>
        <time>2017-10-01T10:28:56Z</time>
      </trkpt>
      <trkpt lat="43.39953" lon="1.31669">
        <ele>293</ele>
        <time>2017-10-01T10:28:56Z</time>
      </trkpt>
      <trkpt lat="43.39954" lon="1.31677">
        <ele>293</ele>
        <time>2017-10-01T10:28:56Z</time>
      </trkpt>
      <trkpt lat="43.39954" lon="1.31685">
        <ele>293</ele>
        <time>2017-10-01T10:28:56Z</time>
      </trkpt>
      <trkpt lat="43.39954" lon="1.31693">
        <ele>293</ele>
        <time>2017-10-01T10:29:12Z</time>
      </trkpt>
      <trkpt lat="43.39954" lon="1.31698">
        <ele>293</ele>
        <time>2017-10-01T10:29:12Z</time>
      </trkpt>
      <trkpt lat="43.39954" lon="1.31706">
        <ele>293</ele>
        <time>2017-10-01T10:29:12Z</time>
      </trkpt>
      <trkpt lat="43.39954" lon="1.31711">
        <ele>292</ele>
        <time>2017-10-01T10:29:12Z</time>
      </trkpt>
      <trkpt lat="43.39954" lon="1.31719">
        <ele>292</ele>
        <time>2017-10-01T10:29:28Z</time>
      </trkpt>
      <trkpt lat="43.39952" lon="1.31726">
        <ele>292</ele>
        <time>2017-10-01T10:29:28Z</time>
      </trkpt>
      <trkpt lat="43.39951" lon="1.31732">
        <ele>292</ele>
        <time>2017-10-01T10:29:28Z</time>
      </trkpt>
      <trkpt lat="43.3995" lon="1.31739">
        <ele>292</ele>
        <time>2017-10-01T10:29:28Z</time>
      </trkpt>
      <trkpt lat="43.39949" lon="1.31747">
        <ele>292</ele>
        <time>2017-10-01T10:29:44Z</time>
      </trkpt>
      <trkpt lat="43.39948" lon="1.31754">
        <ele>292</ele>
        <time>2017-10-01T10:29:44Z</time>
      </trkpt>
      <trkpt lat="43.39946" lon="1.31761">
        <ele>292</ele>
        <time>2017-10-01T10:29:44Z</time>
      </trkpt>
      <trkpt lat="43.39946" lon="1.31768">
        <ele>292</ele>
        <time>2017-10-01T10:29:44Z</time>
      </trkpt>
      <trkpt lat="43.39945" lon="1.31775">
        <ele>292</ele>
        <time>2017-10-01T10:30:00Z</time>
      </trkpt>
      <trkpt lat="43.39943" lon="1.31785">
        <ele>292</ele>
        <time>2017-10-01T10:30:00Z</time>
      </trkpt>
      <trkpt lat="43.39942" lon="1.31793">
        <ele>290</ele>
        <time>2017-10-01T10:30:00Z</time>
      </trkpt>
      <trkpt lat="43.39941" lon="1.31801">
        <ele>290</ele>
        <time>2017-10-01T10:30:00Z</time>
      </trkpt>
      <trkpt lat="43.3994" lon="1.31809">
        <ele>290</ele>
        <time>2017-10-01T10:30:17Z</time>
      </trkpt>
      <trkpt lat="43.39938" lon="1.31817">
        <ele>290</ele>
        <time>2017-10-01T10:30:17Z</time>
      </trkpt>
      <trkpt lat="43.39937" lon="1.31824">
        <ele>290</ele>
        <time>2017-10-01T10:30:17Z</time>
      </trkpt>
      <trkpt lat="43.39935" lon="1.31831">
        <ele>290</ele>
        <time>2017-10-01T10:30:17Z</time>
      </trkpt>
      <trkpt lat="43.39934" lon="1.31837">
        <ele>290</ele>
        <time>2017-10-01T10:30:32Z</time>
      </trkpt>
      <trkpt lat="43.39932" lon="1.31842">
        <ele>290</ele>
        <time>2017-10-01T10:30:32Z</time>
      </trkpt>
      <trkpt lat="43.39931" lon="1.31848">
        <ele>290</ele>
        <time>2017-10-01T10:30:32Z</time>
      </trkpt>
      <trkpt lat="43.3993" lon="1.31855">
        <ele>290</ele>
        <time>2017-10-01T10:30:32Z</time>
      </trkpt>
      <trkpt lat="43.39929" lon="1.3186">
        <ele>290</ele>
        <time>2017-10-01T10:30:49Z</time>
      </trkpt>
      <trkpt lat="43.39929" lon="1.31867">
        <ele>290</ele>
        <time>2017-10-01T10:30:49Z</time>
      </trkpt>
      <trkpt lat="43.39928" lon="1.31874">
        <ele>290</ele>
        <time>2017-10-01T10:30:49Z</time>
      </trkpt>
      <trkpt lat="43.39929" lon="1.3188">
        <ele>292</ele>
        <time>2017-10-01T10:30:49Z</time>
      </trkpt>
      <trkpt lat="43.39928" lon="1.31887">
        <ele>292</ele>
        <time>2017-10-01T10:31:04Z</time>
      </trkpt>
      <trkpt lat="43.39929" lon="1.31893">
        <ele>292</ele>
        <time>2017-10-01T10:31:04Z</time>
      </trkpt>
      <trkpt lat="43.3993" lon="1.319">
        <ele>292</ele>
        <time>2017-10-01T10:31:04Z</time>
      </trkpt>
      <trkpt lat="43.39931" lon="1.31905">
        <ele>292</ele>
        <time>2017-10-01T10:31:04Z</time>
      </trkpt>
      <trkpt lat="43.39931" lon="1.31912">
        <ele>292</ele>
        <time>2017-10-01T10:31:20Z</time>
      </trkpt>
      <trkpt lat="43.39932" lon="1.31918">
        <ele>292</ele>
        <time>2017-10-01T10:31:20Z</time>
      </trkpt>
      <trkpt lat="43.39933" lon="1.31925">
        <ele>292</ele>
        <time>2017-10-01T10:31:20Z</time>
      </trkpt>
      <trkpt lat="43.39935" lon="1.31931">
        <ele>292</ele>
        <time>2017-10-01T10:31:20Z</time>
      </trkpt>
      <trkpt lat="43.39937" lon="1.31938">
        <ele>292</ele>
        <time>2017-10-01T10:31:36Z</time>
      </trkpt>
      <trkpt lat="43.3994" lon="1.31943">
        <ele>292</ele>
        <time>2017-10-01T10:31:36Z</time>
      </trkpt>
      <trkpt lat="43.39942" lon="1.31948">
        <ele>292</ele>
        <time>2017-10-01T10:31:36Z</time>
      </trkpt>
      <trkpt lat="43.39945" lon="1.31953">
        <ele>292</ele>
        <time>2017-10-01T10:31:36Z</time>
      </trkpt>
      <trkpt lat="43.39947" lon="1.31957">
        <ele>292</ele>
        <time>2017-10-01T10:31:53Z</time>
      </trkpt>
      <trkpt lat="43.39949" lon="1.3196">
        <ele>292</ele>
        <time>2017-10-01T10:31:53Z</time>
      </trkpt>
      <trkpt lat="43.39952" lon="1.31964">
        <ele>292</ele>
        <time>2017-10-01T10:31:53Z</time>
      </trkpt>
      <trkpt lat="43.39956" lon="1.31969">
        <ele>292</ele>
        <time>2017-10-01T10:31:53Z</time>
      </trkpt>
      <trkpt lat="43.39959" lon="1.31974">
        <ele>287</ele>
        <time>2017-10-01T10:32:08Z</time>
      </trkpt>
      <trkpt lat="43.39962" lon="1.31978">
        <ele>287</ele>
        <time>2017-10-01T10:32:08Z</time>
      </trkpt>
      <trkpt lat="43.39965" lon="1.31983">
        <ele>287</ele>
        <time>2017-10-01T10:32:08Z</time>
      </trkpt>
      <trkpt lat="43.39969" lon="1.31989">
        <ele>287</ele>
        <time>2017-10-01T10:32:08Z</time>
      </trkpt>
      <trkpt lat="43.39974" lon="1.31994">
        <ele>287</ele>
        <time>2017-10-01T10:32:24Z</time>
      </trkpt>
      <trkpt lat="43.39978" lon="1.31999">
        <ele>287</ele>
        <time>2017-10-01T10:32:24Z</time>
      </trkpt>
      <trkpt lat="43.39983" lon="1.32004">
        <ele>287</ele>
        <time>2017-10-01T10:32:24Z</time>
      </trkpt>
      <trkpt lat="43.39987" lon="1.32009">
        <ele>287</ele>
        <time>2017-10-01T10:32:24Z</time>
      </trkpt>
      <trkpt lat="43.39992" lon="1.32013">
        <ele>287</ele>
        <time>2017-10-01T10:32:40Z</time>
      </trkpt>
      <trkpt lat="43.39997" lon="1.32017">
        <ele>287</ele>
        <time>2017-10-01T10:32:40Z</time>
      </trkpt>
      <trkpt lat="43.40001" lon="1.32022">
        <ele>287</ele>
        <time>2017-10-01T10:32:40Z</time>
      </trkpt>
      <trkpt lat="43.40007" lon="1.32026">
        <ele>287</ele>
        <time>2017-10-01T10:32:40Z</time>
      </trkpt>
      <trkpt lat="43.40012" lon="1.3203">
        <ele>287</ele>
        <time>2017-10-01T10:32:57Z</time>
      </trkpt>
      <trkpt lat="43.40017" lon="1.32035">
        <ele>287</ele>
        <time>2017-10-01T10:32:57Z</time>
      </trkpt>
      <trkpt lat="43.40022" lon="1.32039">
        <ele>287</ele>
        <time>2017-10-01T10:32:57Z</time>
      </trkpt>
      <trkpt lat="43.40027" lon="1.32043">
        <ele>286</ele>
        <time>2017-10-01T10:32:57Z</time>
      </trkpt>
      <trkpt lat="43.40031" lon="1.32048">
        <ele>286</ele>
        <time>2017-10-01T10:33:12Z</time>
      </trkpt>
      <trkpt lat="43.40036" lon="1.32052">
        <ele>286</ele>
        <time>2017-10-01T10:33:12Z</time>
      </trkpt>
      <trkpt lat="43.4004" lon="1.32058">
        <ele>286</ele>
        <time>2017-10-01T10:33:12Z</time>
      </trkpt>
      <trkpt lat="43.40043" lon="1.32064">
        <ele>293</ele>
        <time>2017-10-01T10:33:12Z</time>
      </trkpt>
      <trkpt lat="43.40044" lon="1.3207">
        <ele>293</ele>
        <time>2017-10-01T10:33:28Z</time>
      </trkpt>
      <trkpt lat="43.40046" lon="1.32077">
        <ele>293</ele>
        <time>2017-10-01T10:33:28Z</time>
      </trkpt>
      <trkpt lat="43.40048" lon="1.32085">
        <ele>293</ele>
        <time>2017-10-01T10:33:28Z</time>
      </trkpt>
      <trkpt lat="43.4005" lon="1.32094">
        <ele>293</ele>
        <time>2017-10-01T10:33:28Z</time>
      </trkpt>
      <trkpt lat="43.40051" lon="1.32102">
        <ele>293</ele>
        <time>2017-10-01T10:33:44Z</time>
      </trkpt>
      <trkpt lat="43.40053" lon="1.3211">
        <ele>293</ele>
        <time>2017-10-01T10:33:44Z</time>
      </trkpt>
      <trkpt lat="43.40054" lon="1.32118">
        <ele>293</ele>
        <time>2017-10-01T10:33:44Z</time>
      </trkpt>
      <trkpt lat="43.40055" lon="1.32124">
        <ele>293</ele>
        <time>2017-10-01T10:33:44Z</time>
      </trkpt>
      <trkpt lat="43.40055" lon="1.32131">
        <ele>294</ele>
        <time>2017-10-01T10:34:00Z</time>
      </trkpt>
      <trkpt lat="43.40055" lon="1.32137">
        <ele>294</ele>
        <time>2017-10-01T10:34:00Z</time>
      </trkpt>
      <trkpt lat="43.40056" lon="1.32144">
        <ele>294</ele>
        <time>2017-10-01T10:34:00Z</time>
      </trkpt>
      <trkpt lat="43.40057" lon="1.32152">
        <ele>294</ele>
        <time>2017-10-01T10:34:00Z</time>
      </trkpt>
      <trkpt lat="43.40058" lon="1.32158">
        <ele>294</ele>
        <time>2017-10-01T10:34:16Z</time>
      </trkpt>
      <trkpt lat="43.40059" lon="1.32162">
        <ele>294</ele>
        <time>2017-10-01T10:34:16Z</time>
      </trkpt>
      <trkpt lat="43.4006" lon="1.32169">
        <ele>294</ele>
        <time>2017-10-01T10:34:16Z</time>
      </trkpt>
      <trkpt lat="43.40059" lon="1.32175">
        <ele>294</ele>
        <time>2017-10-01T10:34:17Z</time>
      </trkpt>
      <trkpt lat="43.40059" lon="1.3218">
        <ele>294</ele>
        <time>2017-10-01T10:34:32Z</time>
      </trkpt>
      <trkpt lat="43.40059" lon="1.32185">
        <ele>294</ele>
        <time>2017-10-01T10:34:32Z</time>
      </trkpt>
      <trkpt lat="43.4006" lon="1.32194">
        <ele>294</ele>
        <time>2017-10-01T10:34:32Z</time>
      </trkpt>
      <trkpt lat="43.40061" lon="1.32202">
        <ele>294</ele>
        <time>2017-10-01T10:34:32Z</time>
      </trkpt>
      <trkpt lat="43.40062" lon="1.32211">
        <ele>294</ele>
        <time>2017-10-01T10:34:48Z</time>
      </trkpt>
      <trkpt lat="43.40063" lon="1.32218">
        <ele>294</ele>
        <time>2017-10-01T10:34:48Z</time>
      </trkpt>
      <trkpt lat="43.40064" lon="1.32226">
        <ele>294</ele>
        <time>2017-10-01T10:34:48Z</time>
      </trkpt>
      <trkpt lat="43.40066" lon="1.3223">
        <ele>294</ele>
        <time>2017-10-01T10:34:48Z</time>
      </trkpt>
      <trkpt lat="43.40067" lon="1.32235">
        <ele>294</ele>
        <time>2017-10-01T10:35:04Z</time>
      </trkpt>
      <trkpt lat="43.40068" lon="1.32242">
        <ele>294</ele>
        <time>2017-10-01T10:35:04Z</time>
      </trkpt>
      <trkpt lat="43.40069" lon="1.32247">
        <ele>294</ele>
        <time>2017-10-01T10:35:04Z</time>
      </trkpt>
      <trkpt lat="43.40071" lon="1.32253">
        <ele>294</ele>
        <time>2017-10-01T10:35:04Z</time>
      </trkpt>
      <trkpt lat="43.40072" lon="1.3226">
        <ele>294</ele>
        <time>2017-10-01T10:35:20Z</time>
      </trkpt>
      <trkpt lat="43.40074" lon="1.32264">
        <ele>294</ele>
        <time>2017-10-01T10:35:20Z</time>
      </trkpt>
      <trkpt lat="43.40076" lon="1.32269">
        <ele>294</ele>
        <time>2017-10-01T10:35:20Z</time>
      </trkpt>
      <trkpt lat="43.40078" lon="1.32276">
        <ele>294</ele>
        <time>2017-10-01T10:35:20Z</time>
      </trkpt>
      <trkpt lat="43.40081" lon="1.3228">
        <ele>294</ele>
        <time>2017-10-01T10:35:44Z</time>
      </trkpt>
      <trkpt lat="43.40083" lon="1.32287">
        <ele>294</ele>
        <time>2017-10-01T10:35:44Z</time>
      </trkpt>
      <trkpt lat="43.40084" lon="1.32288">
        <ele>294</ele>
        <time>2017-10-01T10:35:44Z</time>
      </trkpt>
      <trkpt lat="43.40086" lon="1.32291">
        <ele>294</ele>
        <time>2017-10-01T10:35:44Z</time>
      </trkpt>
      <trkpt lat="43.40088" lon="1.32301">
        <ele>293</ele>
        <time>2017-10-01T10:35:44Z</time>
      </trkpt>
      <trkpt lat="43.40091" lon="1.32311">
        <ele>293</ele>
        <time>2017-10-01T10:36:01Z</time>
      </trkpt>
      <trkpt lat="43.40092" lon="1.32317">
        <ele>293</ele>
        <time>2017-10-01T10:36:01Z</time>
      </trkpt>
      <trkpt lat="43.40095" lon="1.32328">
        <ele>293</ele>
        <time>2017-10-01T10:36:01Z</time>
      </trkpt>
      <trkpt lat="43.40098" lon="1.32337">
        <ele>293</ele>
        <time>2017-10-01T10:36:01Z</time>
      </trkpt>
      <trkpt lat="43.401" lon="1.32341">
        <ele>293</ele>
        <time>2017-10-01T10:36:16Z</time>
      </trkpt>
      <trkpt lat="43.401" lon="1.32343">
        <ele>293</ele>
        <time>2017-10-01T10:36:16Z</time>
      </trkpt>
      <trkpt lat="43.40103" lon="1.32352">
        <ele>293</ele>
        <time>2017-10-01T10:36:16Z</time>
      </trkpt>
      <trkpt lat="43.40104" lon="1.32357">
        <ele>293</ele>
        <time>2017-10-01T10:36:16Z</time>
      </trkpt>
      <trkpt lat="43.40107" lon="1.32366">
        <ele>293</ele>
        <time>2017-10-01T10:36:33Z</time>
      </trkpt>
      <trkpt lat="43.40109" lon="1.32372">
        <ele>293</ele>
        <time>2017-10-01T10:36:33Z</time>
      </trkpt>
      <trkpt lat="43.40112" lon="1.32381">
        <ele>294</ele>
        <time>2017-10-01T10:36:33Z</time>
      </trkpt>
      <trkpt lat="43.40115" lon="1.32392">
        <ele>294</ele>
        <time>2017-10-01T10:36:33Z</time>
      </trkpt>
      <trkpt lat="43.40118" lon="1.32397">
        <ele>294</ele>
        <time>2017-10-01T10:36:48Z</time>
      </trkpt>
      <trkpt lat="43.4012" lon="1.32406">
        <ele>294</ele>
        <time>2017-10-01T10:36:48Z</time>
      </trkpt>
      <trkpt lat="43.40124" lon="1.32415">
        <ele>294</ele>
        <time>2017-10-01T10:36:48Z</time>
      </trkpt>
      <trkpt lat="43.40127" lon="1.32423">
        <ele>291</ele>
        <time>2017-10-01T10:36:48Z</time>
      </trkpt>
      <trkpt lat="43.40129" lon="1.3243">
        <ele>291</ele>
        <time>2017-10-01T10:37:05Z</time>
      </trkpt>
      <trkpt lat="43.4013" lon="1.32432">
        <ele>291</ele>
        <time>2017-10-01T10:37:05Z</time>
      </trkpt>
      <trkpt lat="43.40132" lon="1.32435">
        <ele>291</ele>
        <time>2017-10-01T10:37:05Z</time>
      </trkpt>
      <trkpt lat="43.40135" lon="1.32439">
        <ele>291</ele>
        <time>2017-10-01T10:37:05Z</time>
      </trkpt>
      <trkpt lat="43.40137" lon="1.32441">
        <ele>291</ele>
        <time>2017-10-01T10:37:20Z</time>
      </trkpt>
      <trkpt lat="43.40142" lon="1.32447">
        <ele>291</ele>
        <time>2017-10-01T10:37:20Z</time>
      </trkpt>
      <trkpt lat="43.40146" lon="1.32453">
        <ele>291</ele>
        <time>2017-10-01T10:37:20Z</time>
      </trkpt>
      <trkpt lat="43.40151" lon="1.32459">
        <ele>293</ele>
        <time>2017-10-01T10:37:20Z</time>
      </trkpt>
      <trkpt lat="43.40155" lon="1.32465">
        <ele>293</ele>
        <time>2017-10-01T10:37:36Z</time>
      </trkpt>
      <trkpt lat="43.40159" lon="1.32469">
        <ele>293</ele>
        <time>2017-10-01T10:37:36Z</time>
      </trkpt>
      <trkpt lat="43.40164" lon="1.32474">
        <ele>293</ele>
        <time>2017-10-01T10:37:36Z</time>
      </trkpt>
      <trkpt lat="43.40169" lon="1.32481">
        <ele>293</ele>
        <time>2017-10-01T10:37:36Z</time>
      </trkpt>
      <trkpt lat="43.40172" lon="1.32487">
        <ele>293</ele>
        <time>2017-10-01T10:37:52Z</time>
      </trkpt>
      <trkpt lat="43.40176" lon="1.32492">
        <ele>293</ele>
        <time>2017-10-01T10:37:52Z</time>
      </trkpt>
      <trkpt lat="43.40179" lon="1.32497">
        <ele>293</ele>
        <time>2017-10-01T10:37:52Z</time>
      </trkpt>
      <trkpt lat="43.40181" lon="1.32504">
        <ele>293</ele>
        <time>2017-10-01T10:37:52Z</time>
      </trkpt>
      <trkpt lat="43.40184" lon="1.32515">
        <ele>293</ele>
        <time>2017-10-01T10:38:17Z</time>
      </trkpt>
      <trkpt lat="43.40184" lon="1.32519">
        <ele>293</ele>
        <time>2017-10-01T10:38:17Z</time>
      </trkpt>
      <trkpt lat="43.40184" lon="1.3252">
        <ele>293</ele>
        <time>2017-10-01T10:38:17Z</time>
      </trkpt>
      <trkpt lat="43.40184" lon="1.32521">
        <ele>293</ele>
        <time>2017-10-01T10:38:17Z</time>
      </trkpt>
      <trkpt lat="43.40186" lon="1.32526">
        <ele>293</ele>
        <time>2017-10-01T10:38:17Z</time>
      </trkpt>
      <trkpt lat="43.40189" lon="1.32535">
        <ele>293</ele>
        <time>2017-10-01T10:38:32Z</time>
      </trkpt>
      <trkpt lat="43.40191" lon="1.32545">
        <ele>295</ele>
        <time>2017-10-01T10:38:32Z</time>
      </trkpt>
      <trkpt lat="43.40194" lon="1.32555">
        <ele>295</ele>
        <time>2017-10-01T10:38:32Z</time>
      </trkpt>
      <trkpt lat="43.40195" lon="1.3256">
        <ele>295</ele>
        <time>2017-10-01T10:38:32Z</time>
      </trkpt>
      <trkpt lat="43.40195" lon="1.32567">
        <ele>295</ele>
        <time>2017-10-01T10:38:48Z</time>
      </trkpt>
      <trkpt lat="43.40197" lon="1.32576">
        <ele>295</ele>
        <time>2017-10-01T10:38:48Z</time>
      </trkpt>
      <trkpt lat="43.40197" lon="1.3258">
        <ele>295</ele>
        <time>2017-10-01T10:38:48Z</time>
      </trkpt>
      <trkpt lat="43.40198" lon="1.32587">
        <ele>295</ele>
        <time>2017-10-01T10:38:48Z</time>
      </trkpt>
      <trkpt lat="43.402" lon="1.32595">
        <ele>295</ele>
        <time>2017-10-01T10:39:04Z</time>
      </trkpt>
      <trkpt lat="43.40201" lon="1.32598">
        <ele>295</ele>
        <time>2017-10-01T10:39:04Z</time>
      </trkpt>
      <trkpt lat="43.40202" lon="1.32603">
        <ele>295</ele>
        <time>2017-10-01T10:39:04Z</time>
      </trkpt>
      <trkpt lat="43.40203" lon="1.32608">
        <ele>295</ele>
        <time>2017-10-01T10:39:04Z</time>
      </trkpt>
      <trkpt lat="43.40204" lon="1.32615">
        <ele>295</ele>
        <time>2017-10-01T10:39:20Z</time>
      </trkpt>
      <trkpt lat="43.40206" lon="1.32621">
        <ele>295</ele>
        <time>2017-10-01T10:39:20Z</time>
      </trkpt>
      <trkpt lat="43.40208" lon="1.32626">
        <ele>301</ele>
        <time>2017-10-01T10:39:20Z</time>
      </trkpt>
      <trkpt lat="43.4021" lon="1.32633">
        <ele>305</ele>
        <time>2017-10-01T10:39:21Z</time>
      </trkpt>
      <trkpt lat="43.40211" lon="1.32638">
        <ele>305</ele>
        <time>2017-10-01T10:39:36Z</time>
      </trkpt>
      <trkpt lat="43.40211" lon="1.32646">
        <ele>305</ele>
        <time>2017-10-01T10:39:36Z</time>
      </trkpt>
      <trkpt lat="43.40212" lon="1.32654">
        <ele>305</ele>
        <time>2017-10-01T10:39:36Z</time>
      </trkpt>
      <trkpt lat="43.40213" lon="1.32659">
        <ele>305</ele>
        <time>2017-10-01T10:39:36Z</time>
      </trkpt>
      <trkpt lat="43.40214" lon="1.32664">
        <ele>305</ele>
        <time>2017-10-01T10:39:52Z</time>
      </trkpt>
      <trkpt lat="43.40215" lon="1.32671">
        <ele>305</ele>
        <time>2017-10-01T10:39:52Z</time>
      </trkpt>
      <trkpt lat="43.40216" lon="1.32678">
        <ele>305</ele>
        <time>2017-10-01T10:39:52Z</time>
      </trkpt>
      <trkpt lat="43.40217" lon="1.32687">
        <ele>305</ele>
        <time>2017-10-01T10:39:52Z</time>
      </trkpt>
      <trkpt lat="43.40218" lon="1.32698">
        <ele>305</ele>
        <time>2017-10-01T10:40:08Z</time>
      </trkpt>
      <trkpt lat="43.40218" lon="1.32708">
        <ele>305</ele>
        <time>2017-10-01T10:40:08Z</time>
      </trkpt>
      <trkpt lat="43.40218" lon="1.32716">
        <ele>308</ele>
        <time>2017-10-01T10:40:08Z</time>
      </trkpt>
      <trkpt lat="43.4022" lon="1.32725">
        <ele>308</ele>
        <time>2017-10-01T10:40:08Z</time>
      </trkpt>
      <trkpt lat="43.40223" lon="1.32734">
        <ele>308</ele>
        <time>2017-10-01T10:40:24Z</time>
      </trkpt>
      <trkpt lat="43.40225" lon="1.32739">
        <ele>308</ele>
        <time>2017-10-01T10:40:24Z</time>
      </trkpt>
      <trkpt lat="43.40225" lon="1.32743">
        <ele>308</ele>
        <time>2017-10-01T10:40:24Z</time>
      </trkpt>
      <trkpt lat="43.40225" lon="1.3275">
        <ele>308</ele>
        <time>2017-10-01T10:40:24Z</time>
      </trkpt>
      <trkpt lat="43.40227" lon="1.32758">
        <ele>308</ele>
        <time>2017-10-01T10:40:40Z</time>
      </trkpt>
      <trkpt lat="43.40228" lon="1.32763">
        <ele>308</ele>
        <time>2017-10-01T10:40:40Z</time>
      </trkpt>
      <trkpt lat="43.4023" lon="1.32771">
        <ele>308</ele>
        <time>2017-10-01T10:40:40Z</time>
      </trkpt>
      <trkpt lat="43.40231" lon="1.32777">
        <ele>308</ele>
        <time>2017-10-01T10:40:40Z</time>
      </trkpt>
      <trkpt lat="43.40232" lon="1.32783">
        <ele>308</ele>
        <time>2017-10-01T10:40:56Z</time>
      </trkpt>
      <trkpt lat="43.40234" lon="1.32791">
        <ele>308</ele>
        <time>2017-10-01T10:40:56Z</time>
      </trkpt>
      <trkpt lat="43.40235" lon="1.32796">
        <ele>302</ele>
        <time>2017-10-01T10:40:56Z</time>
      </trkpt>
      <trkpt lat="43.40236" lon="1.32797">
        <ele>302</ele>
        <time>2017-10-01T10:40:56Z</time>
      </trkpt>
      <trkpt lat="43.40239" lon="1.32792">
        <ele>302</ele>
        <time>2017-10-01T10:46:05Z</time>
      </trkpt>
      <trkpt lat="43.40238" lon="1.32799">
        <ele>302</ele>
        <time>2017-10-01T10:46:05Z</time>
      </trkpt>
      <trkpt lat="43.40237" lon="1.32804">
        <ele>302</ele>
        <time>2017-10-01T10:46:05Z</time>
      </trkpt>
      <trkpt lat="43.40239" lon="1.32809">
        <ele>302</ele>
        <time>2017-10-01T10:46:05Z</time>
      </trkpt>
      <trkpt lat="43.40241" lon="1.32814">
        <ele>302</ele>
        <time>2017-10-01T10:46:05Z</time>
      </trkpt>
      <trkpt lat="43.40242" lon="1.3282">
        <ele>302</ele>
        <time>2017-10-01T10:46:20Z</time>
      </trkpt>
      <trkpt lat="43.40244" lon="1.32826">
        <ele>302</ele>
        <time>2017-10-01T10:46:20Z</time>
      </trkpt>
      <trkpt lat="43.40247" lon="1.32832">
        <ele>302</ele>
        <time>2017-10-01T10:46:20Z</time>
      </trkpt>
      <trkpt lat="43.4025" lon="1.32839">
        <ele>302</ele>
        <time>2017-10-01T10:46:20Z</time>
      </trkpt>
      <trkpt lat="43.40252" lon="1.32845">
        <ele>302</ele>
        <time>2017-10-01T10:46:37Z</time>
      </trkpt>
      <trkpt lat="43.40255" lon="1.3285">
        <ele>302</ele>
        <time>2017-10-01T10:46:37Z</time>
      </trkpt>
      <trkpt lat="43.40257" lon="1.32856">
        <ele>302</ele>
        <time>2017-10-01T10:46:37Z</time>
      </trkpt>
      <trkpt lat="43.4026" lon="1.32861">
        <ele>302</ele>
        <time>2017-10-01T10:46:37Z</time>
      </trkpt>
      <trkpt lat="43.40263" lon="1.32867">
        <ele>302</ele>
        <time>2017-10-01T10:46:52Z</time>
      </trkpt>
      <trkpt lat="43.40267" lon="1.32873">
        <ele>302</ele>
        <time>2017-10-01T10:46:52Z</time>
      </trkpt>
      <trkpt lat="43.4027" lon="1.32878">
        <ele>297</ele>
        <time>2017-10-01T10:46:52Z</time>
      </trkpt>
      <trkpt lat="43.40271" lon="1.32882">
        <ele>297</ele>
        <time>2017-10-01T10:46:52Z</time>
      </trkpt>
      <trkpt lat="43.40273" lon="1.32886">
        <ele>297</ele>
        <time>2017-10-01T10:47:09Z</time>
      </trkpt>
      <trkpt lat="43.40275" lon="1.32892">
        <ele>297</ele>
        <time>2017-10-01T10:47:09Z</time>
      </trkpt>
      <trkpt lat="43.40277" lon="1.32896">
        <ele>297</ele>
        <time>2017-10-01T10:47:09Z</time>
      </trkpt>
      <trkpt lat="43.4028" lon="1.32905">
        <ele>297</ele>
        <time>2017-10-01T10:47:09Z</time>
      </trkpt>
      <trkpt lat="43.40281" lon="1.3291">
        <ele>297</ele>
        <time>2017-10-01T10:47:24Z</time>
      </trkpt>
      <trkpt lat="43.40282" lon="1.32918">
        <ele>297</ele>
        <time>2017-10-01T10:47:24Z</time>
      </trkpt>
      <trkpt lat="43.40283" lon="1.32923">
        <ele>297</ele>
        <time>2017-10-01T10:47:24Z</time>
      </trkpt>
      <trkpt lat="43.40284" lon="1.32927">
        <ele>297</ele>
        <time>2017-10-01T10:47:24Z</time>
      </trkpt>
      <trkpt lat="43.40285" lon="1.32933">
        <ele>297</ele>
        <time>2017-10-01T10:47:40Z</time>
      </trkpt>
      <trkpt lat="43.40286" lon="1.3294">
        <ele>297</ele>
        <time>2017-10-01T10:47:40Z</time>
      </trkpt>
      <trkpt lat="43.40287" lon="1.32946">
        <ele>297</ele>
        <time>2017-10-01T10:47:40Z</time>
      </trkpt>
      <trkpt lat="43.40288" lon="1.32948">
        <ele>297</ele>
        <time>2017-10-01T10:47:40Z</time>
      </trkpt>
      <trkpt lat="43.4029" lon="1.32951">
        <ele>297</ele>
        <time>2017-10-01T10:47:56Z</time>
      </trkpt>
      <trkpt lat="43.40292" lon="1.3296">
        <ele>295</ele>
        <time>2017-10-01T10:47:56Z</time>
      </trkpt>
      <trkpt lat="43.40294" lon="1.32968">
        <ele>295</ele>
        <time>2017-10-01T10:47:56Z</time>
      </trkpt>
      <trkpt lat="43.40295" lon="1.32972">
        <ele>295</ele>
        <time>2017-10-01T10:47:56Z</time>
      </trkpt>
      <trkpt lat="43.40296" lon="1.32977">
        <ele>295</ele>
        <time>2017-10-01T10:48:13Z</time>
      </trkpt>
      <trkpt lat="43.40298" lon="1.32986">
        <ele>295</ele>
        <time>2017-10-01T10:48:13Z</time>
      </trkpt>
      <trkpt lat="43.40299" lon="1.32991">
        <ele>295</ele>
        <time>2017-10-01T10:48:13Z</time>
      </trkpt>
      <trkpt lat="43.40301" lon="1.33">
        <ele>295</ele>
        <time>2017-10-01T10:48:13Z</time>
      </trkpt>
      <trkpt lat="43.403" lon="1.33008">
        <ele>295</ele>
        <time>2017-10-01T10:48:28Z</time>
      </trkpt>
      <trkpt lat="43.403" lon="1.33016">
        <ele>295</ele>
        <time>2017-10-01T10:48:28Z</time>
      </trkpt>
      <trkpt lat="43.403" lon="1.33023">
        <ele>295</ele>
        <time>2017-10-01T10:48:28Z</time>
      </trkpt>
      <trkpt lat="43.403" lon="1.3303">
        <ele>295</ele>
        <time>2017-10-01T10:48:28Z</time>
      </trkpt>
      <trkpt lat="43.40299" lon="1.33037">
        <ele>295</ele>
        <time>2017-10-01T10:48:44Z</time>
      </trkpt>
      <trkpt lat="43.40297" lon="1.33045">
        <ele>293</ele>
        <time>2017-10-01T10:48:44Z</time>
      </trkpt>
      <trkpt lat="43.40296" lon="1.33049">
        <ele>293</ele>
        <time>2017-10-01T10:48:44Z</time>
      </trkpt>
      <trkpt lat="43.40294" lon="1.33056">
        <ele>293</ele>
        <time>2017-10-01T10:48:44Z</time>
      </trkpt>
      <trkpt lat="43.40292" lon="1.33062">
        <ele>293</ele>
        <time>2017-10-01T10:49:00Z</time>
      </trkpt>
      <trkpt lat="43.4029" lon="1.33068">
        <ele>293</ele>
        <time>2017-10-01T10:49:00Z</time>
      </trkpt>
      <trkpt lat="43.40289" lon="1.33074">
        <ele>293</ele>
        <time>2017-10-01T10:49:00Z</time>
      </trkpt>
      <trkpt lat="43.40288" lon="1.33078">
        <ele>293</ele>
        <time>2017-10-01T10:49:00Z</time>
      </trkpt>
      <trkpt lat="43.40286" lon="1.33084">
        <ele>293</ele>
        <time>2017-10-01T10:49:17Z</time>
      </trkpt>
      <trkpt lat="43.40284" lon="1.33091">
        <ele>293</ele>
        <time>2017-10-01T10:49:17Z</time>
      </trkpt>
      <trkpt lat="43.40283" lon="1.33096">
        <ele>293</ele>
        <time>2017-10-01T10:49:17Z</time>
      </trkpt>
      <trkpt lat="43.40281" lon="1.33102">
        <ele>293</ele>
        <time>2017-10-01T10:49:17Z</time>
      </trkpt>
      <trkpt lat="43.40279" lon="1.33108">
        <ele>293</ele>
        <time>2017-10-01T10:49:32Z</time>
      </trkpt>
      <trkpt lat="43.40278" lon="1.33114">
        <ele>293</ele>
        <time>2017-10-01T10:49:32Z</time>
      </trkpt>
      <trkpt lat="43.40276" lon="1.33121">
        <ele>293</ele>
        <time>2017-10-01T10:49:32Z</time>
      </trkpt>
      <trkpt lat="43.40274" lon="1.33128">
        <ele>294</ele>
        <time>2017-10-01T10:49:32Z</time>
      </trkpt>
      <trkpt lat="43.40273" lon="1.33135">
        <ele>294</ele>
        <time>2017-10-01T10:49:48Z</time>
      </trkpt>
      <trkpt lat="43.40272" lon="1.33142">
        <ele>294</ele>
        <time>2017-10-01T10:49:48Z</time>
      </trkpt>
      <trkpt lat="43.40271" lon="1.33149">
        <ele>294</ele>
        <time>2017-10-01T10:49:48Z</time>
      </trkpt>
      <trkpt lat="43.4027" lon="1.33155">
        <ele>294</ele>
        <time>2017-10-01T10:49:48Z</time>
      </trkpt>
      <trkpt lat="43.4027" lon="1.33161">
        <ele>294</ele>
        <time>2017-10-01T10:50:05Z</time>
      </trkpt>
      <trkpt lat="43.40269" lon="1.33167">
        <ele>294</ele>
        <time>2017-10-01T10:50:05Z</time>
      </trkpt>
      <trkpt lat="43.40268" lon="1.33173">
        <ele>294</ele>
        <time>2017-10-01T10:50:05Z</time>
      </trkpt>
      <trkpt lat="43.40267" lon="1.3318">
        <ele>294</ele>
        <time>2017-10-01T10:50:05Z</time>
      </trkpt>
      <trkpt lat="43.40266" lon="1.33187">
        <ele>294</ele>
        <time>2017-10-01T10:50:20Z</time>
      </trkpt>
      <trkpt lat="43.40265" lon="1.33193">
        <ele>294</ele>
        <time>2017-10-01T10:50:20Z</time>
      </trkpt>
      <trkpt lat="43.40264" lon="1.33201">
        <ele>294</ele>
        <time>2017-10-01T10:50:20Z</time>
      </trkpt>
      <trkpt lat="43.40263" lon="1.33207">
        <ele>294</ele>
        <time>2017-10-01T10:50:20Z</time>
      </trkpt>
      <trkpt lat="43.40263" lon="1.33213">
        <ele>293</ele>
        <time>2017-10-01T10:50:36Z</time>
      </trkpt>
      <trkpt lat="43.40262" lon="1.3322">
        <ele>293</ele>
        <time>2017-10-01T10:50:36Z</time>
      </trkpt>
      <trkpt lat="43.40261" lon="1.33226">
        <ele>293</ele>
        <time>2017-10-01T10:50:36Z</time>
      </trkpt>
      <trkpt lat="43.40261" lon="1.33233">
        <ele>293</ele>
        <time>2017-10-01T10:50:36Z</time>
      </trkpt>
      <trkpt lat="43.40259" lon="1.33249">
        <ele>293</ele>
        <time>2017-10-01T10:51:12Z</time>
      </trkpt>
      <trkpt lat="43.40259" lon="1.33252">
        <ele>293</ele>
        <time>2017-10-01T10:51:12Z</time>
      </trkpt>
      <trkpt lat="43.40258" lon="1.33258">
        <ele>293</ele>
        <time>2017-10-01T10:51:12Z</time>
      </trkpt>
      <trkpt lat="43.40256" lon="1.33267">
        <ele>293</ele>
        <time>2017-10-01T10:51:12Z</time>
      </trkpt>
      <trkpt lat="43.40255" lon="1.33272">
        <ele>293</ele>
        <time>2017-10-01T10:51:12Z</time>
      </trkpt>
      <trkpt lat="43.40254" lon="1.33278">
        <ele>293</ele>
        <time>2017-10-01T10:51:28Z</time>
      </trkpt>
      <trkpt lat="43.40252" lon="1.33285">
        <ele>293</ele>
        <time>2017-10-01T10:51:28Z</time>
      </trkpt>
      <trkpt lat="43.40251" lon="1.33291">
        <ele>293</ele>
        <time>2017-10-01T10:51:28Z</time>
      </trkpt>
      <trkpt lat="43.40251" lon="1.33298">
        <ele>293</ele>
        <time>2017-10-01T10:51:29Z</time>
      </trkpt>
      <trkpt lat="43.4025" lon="1.33304">
        <ele>293</ele>
        <time>2017-10-01T10:51:44Z</time>
      </trkpt>
      <trkpt lat="43.40249" lon="1.33311">
        <ele>293</ele>
        <time>2017-10-01T10:51:44Z</time>
      </trkpt>
      <trkpt lat="43.40247" lon="1.3332">
        <ele>293</ele>
        <time>2017-10-01T10:51:44Z</time>
      </trkpt>
      <trkpt lat="43.40246" lon="1.33328">
        <ele>293</ele>
        <time>2017-10-01T10:51:45Z</time>
      </trkpt>
      <trkpt lat="43.40246" lon="1.33332">
        <ele>293</ele>
        <time>2017-10-01T10:52:00Z</time>
      </trkpt>
      <trkpt lat="43.40246" lon="1.33337">
        <ele>293</ele>
        <time>2017-10-01T10:52:00Z</time>
      </trkpt>
      <trkpt lat="43.40245" lon="1.33342">
        <ele>293</ele>
        <time>2017-10-01T10:52:00Z</time>
      </trkpt>
      <trkpt lat="43.40243" lon="1.33351">
        <ele>293</ele>
        <time>2017-10-01T10:52:00Z</time>
      </trkpt>
      <trkpt lat="43.40241" lon="1.33359">
        <ele>293</ele>
        <time>2017-10-01T10:52:17Z</time>
      </trkpt>
      <trkpt lat="43.40239" lon="1.33367">
        <ele>293</ele>
        <time>2017-10-01T10:52:17Z</time>
      </trkpt>
      <trkpt lat="43.40238" lon="1.33375">
        <ele>293</ele>
        <time>2017-10-01T10:52:17Z</time>
      </trkpt>
      <trkpt lat="43.40235" lon="1.33384">
        <ele>293</ele>
        <time>2017-10-01T10:52:17Z</time>
      </trkpt>
      <trkpt lat="43.40235" lon="1.33389">
        <ele>293</ele>
        <time>2017-10-01T10:52:32Z</time>
      </trkpt>
      <trkpt lat="43.40234" lon="1.33394">
        <ele>293</ele>
        <time>2017-10-01T10:52:32Z</time>
      </trkpt>
      <trkpt lat="43.40232" lon="1.33399">
        <ele>293</ele>
        <time>2017-10-01T10:52:32Z</time>
      </trkpt>
      <trkpt lat="43.40231" lon="1.33406">
        <ele>293</ele>
        <time>2017-10-01T10:52:32Z</time>
      </trkpt>
      <trkpt lat="43.40229" lon="1.33412">
        <ele>293</ele>
        <time>2017-10-01T10:52:52Z</time>
      </trkpt>
      <trkpt lat="43.40228" lon="1.33414">
        <ele>293</ele>
        <time>2017-10-01T10:52:52Z</time>
      </trkpt>
      <trkpt lat="43.40227" lon="1.33414">
        <ele>293</ele>
        <time>2017-10-01T10:52:52Z</time>
      </trkpt>
      <trkpt lat="43.40226" lon="1.33417">
        <ele>293</ele>
        <time>2017-10-01T10:52:52Z</time>
      </trkpt>
      <trkpt lat="43.40223" lon="1.3343">
        <ele>293</ele>
        <time>2017-10-01T10:52:52Z</time>
      </trkpt>
      <trkpt lat="43.40221" lon="1.33435">
        <ele>293</ele>
        <time>2017-10-01T10:53:08Z</time>
      </trkpt>
      <trkpt lat="43.40219" lon="1.33442">
        <ele>293</ele>
        <time>2017-10-01T10:53:08Z</time>
      </trkpt>
      <trkpt lat="43.40217" lon="1.3345">
        <ele>293</ele>
        <time>2017-10-01T10:53:08Z</time>
      </trkpt>
      <trkpt lat="43.40216" lon="1.33458">
        <ele>293</ele>
        <time>2017-10-01T10:53:08Z</time>
      </trkpt>
      <trkpt lat="43.40215" lon="1.33465">
        <ele>292</ele>
        <time>2017-10-01T10:53:24Z</time>
      </trkpt>
      <trkpt lat="43.40214" lon="1.33472">
        <ele>292</ele>
        <time>2017-10-01T10:53:24Z</time>
      </trkpt>
      <trkpt lat="43.40214" lon="1.33478">
        <ele>292</ele>
        <time>2017-10-01T10:53:24Z</time>
      </trkpt>
      <trkpt lat="43.40213" lon="1.33483">
        <ele>292</ele>
        <time>2017-10-01T10:53:24Z</time>
      </trkpt>
      <trkpt lat="43.40212" lon="1.33489">
        <ele>292</ele>
        <time>2017-10-01T10:53:40Z</time>
      </trkpt>
      <trkpt lat="43.40211" lon="1.33495">
        <ele>292</ele>
        <time>2017-10-01T10:53:40Z</time>
      </trkpt>
      <trkpt lat="43.4021" lon="1.33501">
        <ele>292</ele>
        <time>2017-10-01T10:53:40Z</time>
      </trkpt>
      <trkpt lat="43.40209" lon="1.33507">
        <ele>292</ele>
        <time>2017-10-01T10:53:40Z</time>
      </trkpt>
      <trkpt lat="43.40208" lon="1.33513">
        <ele>292</ele>
        <time>2017-10-01T10:53:56Z</time>
      </trkpt>
      <trkpt lat="43.40207" lon="1.33519">
        <ele>293</ele>
        <time>2017-10-01T10:53:56Z</time>
      </trkpt>
      <trkpt lat="43.40206" lon="1.33526">
        <ele>293</ele>
        <time>2017-10-01T10:53:56Z</time>
      </trkpt>
      <trkpt lat="43.40206" lon="1.33532">
        <ele>293</ele>
        <time>2017-10-01T10:53:56Z</time>
      </trkpt>
      <trkpt lat="43.40204" lon="1.33538">
        <ele>293</ele>
        <time>2017-10-01T10:54:12Z</time>
      </trkpt>
      <trkpt lat="43.40203" lon="1.33544">
        <ele>291</ele>
        <time>2017-10-01T10:54:12Z</time>
      </trkpt>
      <trkpt lat="43.40202" lon="1.33549">
        <ele>291</ele>
        <time>2017-10-01T10:54:12Z</time>
      </trkpt>
      <trkpt lat="43.40201" lon="1.33556">
        <ele>291</ele>
        <time>2017-10-01T10:54:12Z</time>
      </trkpt>
      <trkpt lat="43.402" lon="1.33562">
        <ele>291</ele>
        <time>2017-10-01T10:54:28Z</time>
      </trkpt>
      <trkpt lat="43.40199" lon="1.33568">
        <ele>291</ele>
        <time>2017-10-01T10:54:28Z</time>
      </trkpt>
      <trkpt lat="43.40198" lon="1.33576">
        <ele>291</ele>
        <time>2017-10-01T10:54:28Z</time>
      </trkpt>
      <trkpt lat="43.40197" lon="1.33581">
        <ele>291</ele>
        <time>2017-10-01T10:54:28Z</time>
      </trkpt>
      <trkpt lat="43.40196" lon="1.33588">
        <ele>291</ele>
        <time>2017-10-01T10:54:44Z</time>
      </trkpt>
      <trkpt lat="43.40195" lon="1.33596">
        <ele>291</ele>
        <time>2017-10-01T10:54:44Z</time>
      </trkpt>
      <trkpt lat="43.40193" lon="1.33601">
        <ele>291</ele>
        <time>2017-10-01T10:54:44Z</time>
      </trkpt>
      <trkpt lat="43.40192" lon="1.33609">
        <ele>291</ele>
        <time>2017-10-01T10:54:44Z</time>
      </trkpt>
      <trkpt lat="43.4019" lon="1.33619">
        <ele>291</ele>
        <time>2017-10-01T10:55:00Z</time>
      </trkpt>
      <trkpt lat="43.40189" lon="1.33622">
        <ele>291</ele>
        <time>2017-10-01T10:55:00Z</time>
      </trkpt>
      <trkpt lat="43.40187" lon="1.33629">
        <ele>289</ele>
        <time>2017-10-01T10:55:00Z</time>
      </trkpt>
      <trkpt lat="43.40185" lon="1.33635">
        <ele>289</ele>
        <time>2017-10-01T10:55:00Z</time>
      </trkpt>
      <trkpt lat="43.40184" lon="1.33642">
        <ele>289</ele>
        <time>2017-10-01T10:55:16Z</time>
      </trkpt>
      <trkpt lat="43.40182" lon="1.3365">
        <ele>289</ele>
        <time>2017-10-01T10:55:16Z</time>
      </trkpt>
      <trkpt lat="43.40181" lon="1.33654">
        <ele>289</ele>
        <time>2017-10-01T10:55:16Z</time>
      </trkpt>
      <trkpt lat="43.4018" lon="1.33661">
        <ele>289</ele>
        <time>2017-10-01T10:55:16Z</time>
      </trkpt>
      <trkpt lat="43.4018" lon="1.33669">
        <ele>289</ele>
        <time>2017-10-01T10:55:33Z</time>
      </trkpt>
      <trkpt lat="43.40179" lon="1.33674">
        <ele>289</ele>
        <time>2017-10-01T10:55:33Z</time>
      </trkpt>
      <trkpt lat="43.40178" lon="1.33681">
        <ele>289</ele>
        <time>2017-10-01T10:55:33Z</time>
      </trkpt>
      <trkpt lat="43.40178" lon="1.33689">
        <ele>289</ele>
        <time>2017-10-01T10:55:33Z</time>
      </trkpt>
      <trkpt lat="43.40178" lon="1.33694">
        <ele>289</ele>
        <time>2017-10-01T10:55:48Z</time>
      </trkpt>
      <trkpt lat="43.40178" lon="1.33699">
        <ele>289</ele>
        <time>2017-10-01T10:55:48Z</time>
      </trkpt>
      <trkpt lat="43.40178" lon="1.33706">
        <ele>289</ele>
        <time>2017-10-01T10:55:48Z</time>
      </trkpt>
      <trkpt lat="43.40178" lon="1.33712">
        <ele>289</ele>
        <time>2017-10-01T10:55:49Z</time>
      </trkpt>
      <trkpt lat="43.40179" lon="1.3372">
        <ele>289</ele>
        <time>2017-10-01T10:56:05Z</time>
      </trkpt>
      <trkpt lat="43.4018" lon="1.33724">
        <ele>289</ele>
        <time>2017-10-01T10:56:05Z</time>
      </trkpt>
      <trkpt lat="43.40181" lon="1.33734">
        <ele>289</ele>
        <time>2017-10-01T10:56:05Z</time>
      </trkpt>
      <trkpt lat="43.40181" lon="1.33735">
        <ele>289</ele>
        <time>2017-10-01T10:56:05Z</time>
      </trkpt>
      <trkpt lat="43.40181" lon="1.3374">
        <ele>289</ele>
        <time>2017-10-01T10:56:20Z</time>
      </trkpt>
      <trkpt lat="43.40181" lon="1.33746">
        <ele>289</ele>
        <time>2017-10-01T10:56:20Z</time>
      </trkpt>
      <trkpt lat="43.40182" lon="1.33754">
        <ele>289</ele>
        <time>2017-10-01T10:56:20Z</time>
      </trkpt>
      <trkpt lat="43.40182" lon="1.33759">
        <ele>289</ele>
        <time>2017-10-01T10:56:20Z</time>
      </trkpt>
      <trkpt lat="43.40182" lon="1.33765">
        <ele>289</ele>
        <time>2017-10-01T10:56:36Z</time>
      </trkpt>
      <trkpt lat="43.40183" lon="1.33774">
        <ele>289</ele>
        <time>2017-10-01T10:56:36Z</time>
      </trkpt>
      <trkpt lat="43.40183" lon="1.33779">
        <ele>289</ele>
        <time>2017-10-01T10:56:36Z</time>
      </trkpt>
      <trkpt lat="43.40183" lon="1.33786">
        <ele>289</ele>
        <time>2017-10-01T10:56:36Z</time>
      </trkpt>
      <trkpt lat="43.40183" lon="1.33796">
        <ele>291</ele>
        <time>2017-10-01T10:56:52Z</time>
      </trkpt>
      <trkpt lat="43.40183" lon="1.33801">
        <ele>291</ele>
        <time>2017-10-01T10:56:52Z</time>
      </trkpt>
      <trkpt lat="43.40184" lon="1.33808">
        <ele>291</ele>
        <time>2017-10-01T10:56:52Z</time>
      </trkpt>
      <trkpt lat="43.40183" lon="1.33813">
        <ele>291</ele>
        <time>2017-10-01T10:56:52Z</time>
      </trkpt>
      <trkpt lat="43.40183" lon="1.33819">
        <ele>291</ele>
        <time>2017-10-01T10:57:08Z</time>
      </trkpt>
      <trkpt lat="43.40184" lon="1.33825">
        <ele>291</ele>
        <time>2017-10-01T10:57:08Z</time>
      </trkpt>
      <trkpt lat="43.40185" lon="1.33831">
        <ele>291</ele>
        <time>2017-10-01T10:57:08Z</time>
      </trkpt>
      <trkpt lat="43.40187" lon="1.33835">
        <ele>291</ele>
        <time>2017-10-01T10:57:08Z</time>
      </trkpt>
      <trkpt lat="43.4019" lon="1.33835">
        <ele>291</ele>
        <time>2017-10-01T10:57:29Z</time>
      </trkpt>
      <trkpt lat="43.40193" lon="1.33833">
        <ele>291</ele>
        <time>2017-10-01T10:57:29Z</time>
      </trkpt>
      <trkpt lat="43.40194" lon="1.33833">
        <ele>291</ele>
        <time>2017-10-01T10:57:29Z</time>
      </trkpt>
      <trkpt lat="43.40197" lon="1.33833">
        <ele>291</ele>
        <time>2017-10-01T10:57:29Z</time>
      </trkpt>
      <trkpt lat="43.402" lon="1.33834">
        <ele>291</ele>
        <time>2017-10-01T10:57:29Z</time>
      </trkpt>
      <trkpt lat="43.40203" lon="1.33835">
        <ele>291</ele>
        <time>2017-10-01T10:57:48Z</time>
      </trkpt>
      <trkpt lat="43.40206" lon="1.33837">
        <ele>291</ele>
        <time>2017-10-01T10:57:48Z</time>
      </trkpt>
      <trkpt lat="43.4021" lon="1.33838">
        <ele>291</ele>
        <time>2017-10-01T10:57:48Z</time>
      </trkpt>
      <trkpt lat="43.40211" lon="1.33837">
        <ele>291</ele>
        <time>2017-10-01T10:57:48Z</time>
      </trkpt>
      <trkpt lat="43.40212" lon="1.33836">
        <ele>291</ele>
        <time>2017-10-01T10:57:49Z</time>
      </trkpt>
      <trkpt lat="43.40217" lon="1.33834">
        <ele>291</ele>
        <time>2017-10-01T10:58:04Z</time>
      </trkpt>
      <trkpt lat="43.40224" lon="1.33833">
        <ele>291</ele>
        <time>2017-10-01T10:58:04Z</time>
      </trkpt>
      <trkpt lat="43.40227" lon="1.33833">
        <ele>291</ele>
        <time>2017-10-01T10:58:04Z</time>
      </trkpt>
      <trkpt lat="43.40231" lon="1.33833">
        <ele>291</ele>
        <time>2017-10-01T10:58:04Z</time>
      </trkpt>
      <trkpt lat="43.40238" lon="1.33832">
        <ele>291</ele>
        <time>2017-10-01T10:58:20Z</time>
      </trkpt>
      <trkpt lat="43.40244" lon="1.33834">
        <ele>291</ele>
        <time>2017-10-01T10:58:20Z</time>
      </trkpt>
      <trkpt lat="43.40248" lon="1.33834">
        <ele>291</ele>
        <time>2017-10-01T10:58:20Z</time>
      </trkpt>
      <trkpt lat="43.40251" lon="1.33834">
        <ele>291</ele>
        <time>2017-10-01T10:58:20Z</time>
      </trkpt>
      <trkpt lat="43.40255" lon="1.33834">
        <ele>291</ele>
        <time>2017-10-01T10:58:37Z</time>
      </trkpt>
      <trkpt lat="43.40257" lon="1.33834">
        <ele>291</ele>
        <time>2017-10-01T10:58:37Z</time>
      </trkpt>
      <trkpt lat="43.40261" lon="1.33833">
        <ele>291</ele>
        <time>2017-10-01T10:58:37Z</time>
      </trkpt>
      <trkpt lat="43.40269" lon="1.33833">
        <ele>291</ele>
        <time>2017-10-01T10:58:37Z</time>
      </trkpt>
      <trkpt lat="43.40272" lon="1.33834">
        <ele>291</ele>
        <time>2017-10-01T10:58:52Z</time>
      </trkpt>
      <trkpt lat="43.40276" lon="1.33836">
        <ele>291</ele>
        <time>2017-10-01T10:58:52Z</time>
      </trkpt>
      <trkpt lat="43.40283" lon="1.33839">
        <ele>291</ele>
        <time>2017-10-01T10:58:52Z</time>
      </trkpt>
      <trkpt lat="43.40287" lon="1.33842">
        <ele>291</ele>
        <time>2017-10-01T10:58:52Z</time>
      </trkpt>
      <trkpt lat="43.40291" lon="1.33843">
        <ele>291</ele>
        <time>2017-10-01T10:59:08Z</time>
      </trkpt>
      <trkpt lat="43.40295" lon="1.33846">
        <ele>293</ele>
        <time>2017-10-01T10:59:08Z</time>
      </trkpt>
      <trkpt lat="43.40298" lon="1.3385">
        <ele>293</ele>
        <time>2017-10-01T10:59:08Z</time>
      </trkpt>
      <trkpt lat="43.40301" lon="1.33854">
        <ele>293</ele>
        <time>2017-10-01T10:59:08Z</time>
      </trkpt>
      <trkpt lat="43.40306" lon="1.33859">
        <ele>293</ele>
        <time>2017-10-01T10:59:28Z</time>
      </trkpt>
      <trkpt lat="43.40307" lon="1.33864">
        <ele>293</ele>
        <time>2017-10-01T10:59:28Z</time>
      </trkpt>
      <trkpt lat="43.40308" lon="1.33866">
        <ele>293</ele>
        <time>2017-10-01T10:59:28Z</time>
      </trkpt>
      <trkpt lat="43.40307" lon="1.3387">
        <ele>293</ele>
        <time>2017-10-01T10:59:28Z</time>
      </trkpt>
      <trkpt lat="43.40307" lon="1.33873">
        <ele>293</ele>
        <time>2017-10-01T10:59:28Z</time>
      </trkpt>
      <trkpt lat="43.40307" lon="1.33878">
        <ele>288</ele>
        <time>2017-10-01T10:59:44Z</time>
      </trkpt>
      <trkpt lat="43.40308" lon="1.33884">
        <ele>288</ele>
        <time>2017-10-01T10:59:44Z</time>
      </trkpt>
      <trkpt lat="43.40309" lon="1.3389">
        <ele>288</ele>
        <time>2017-10-01T10:59:44Z</time>
      </trkpt>
      <trkpt lat="43.4031" lon="1.33898">
        <ele>288</ele>
        <time>2017-10-01T10:59:44Z</time>
      </trkpt>
      <trkpt lat="43.40311" lon="1.33905">
        <ele>288</ele>
        <time>2017-10-01T11:00:00Z</time>
      </trkpt>
      <trkpt lat="43.40313" lon="1.33907">
        <ele>288</ele>
        <time>2017-10-01T11:00:00Z</time>
      </trkpt>
      <trkpt lat="43.40316" lon="1.3391">
        <ele>288</ele>
        <time>2017-10-01T11:00:00Z</time>
      </trkpt>
      <trkpt lat="43.4032" lon="1.33915">
        <ele>288</ele>
        <time>2017-10-01T11:00:00Z</time>
      </trkpt>
      <trkpt lat="43.40323" lon="1.33919">
        <ele>288</ele>
        <time>2017-10-01T11:00:16Z</time>
      </trkpt>
      <trkpt lat="43.40328" lon="1.33925">
        <ele>288</ele>
        <time>2017-10-01T11:00:16Z</time>
      </trkpt>
      <trkpt lat="43.4033" lon="1.3393">
        <ele>288</ele>
        <time>2017-10-01T11:00:16Z</time>
      </trkpt>
      <trkpt lat="43.40332" lon="1.33935">
        <ele>288</ele>
        <time>2017-10-01T11:00:16Z</time>
      </trkpt>
      <trkpt lat="43.40336" lon="1.33941">
        <ele>288</ele>
        <time>2017-10-01T11:00:33Z</time>
      </trkpt>
      <trkpt lat="43.40341" lon="1.33948">
        <ele>288</ele>
        <time>2017-10-01T11:00:33Z</time>
      </trkpt>
      <trkpt lat="43.40345" lon="1.33951">
        <ele>288</ele>
        <time>2017-10-01T11:00:33Z</time>
      </trkpt>
      <trkpt lat="43.40351" lon="1.33957">
        <ele>288</ele>
        <time>2017-10-01T11:00:33Z</time>
      </trkpt>
      <trkpt lat="43.40354" lon="1.33961">
        <ele>282</ele>
        <time>2017-10-01T11:00:48Z</time>
      </trkpt>
      <trkpt lat="43.40357" lon="1.33968">
        <ele>282</ele>
        <time>2017-10-01T11:00:48Z</time>
      </trkpt>
      <trkpt lat="43.40359" lon="1.33976">
        <ele>282</ele>
        <time>2017-10-01T11:00:48Z</time>
      </trkpt>
      <trkpt lat="43.40361" lon="1.33979">
        <ele>282</ele>
        <time>2017-10-01T11:00:48Z</time>
      </trkpt>
      <trkpt lat="43.40364" lon="1.33984">
        <ele>282</ele>
        <time>2017-10-01T11:01:04Z</time>
      </trkpt>
      <trkpt lat="43.40369" lon="1.33987">
        <ele>282</ele>
        <time>2017-10-01T11:01:04Z</time>
      </trkpt>
      <trkpt lat="43.40373" lon="1.33989">
        <ele>282</ele>
        <time>2017-10-01T11:01:04Z</time>
      </trkpt>
      <trkpt lat="43.40377" lon="1.33992">
        <ele>268</ele>
        <time>2017-10-01T11:01:04Z</time>
      </trkpt>
      <trkpt lat="43.4038" lon="1.33996">
        <ele>268</ele>
        <time>2017-10-01T11:01:20Z</time>
      </trkpt>
      <trkpt lat="43.40384" lon="1.34">
        <ele>268</ele>
        <time>2017-10-01T11:01:20Z</time>
      </trkpt>
      <trkpt lat="43.40387" lon="1.34006">
        <ele>268</ele>
        <time>2017-10-01T11:01:20Z</time>
      </trkpt>
      <trkpt lat="43.40389" lon="1.34011">
        <ele>268</ele>
        <time>2017-10-01T11:01:20Z</time>
      </trkpt>
      <trkpt lat="43.40391" lon="1.34017">
        <ele>268</ele>
        <time>2017-10-01T11:01:36Z</time>
      </trkpt>
      <trkpt lat="43.40394" lon="1.34024">
        <ele>268</ele>
        <time>2017-10-01T11:01:36Z</time>
      </trkpt>
      <trkpt lat="43.40397" lon="1.34026">
        <ele>268</ele>
        <time>2017-10-01T11:01:36Z</time>
      </trkpt>
      <trkpt lat="43.404" lon="1.3403">
        <ele>268</ele>
        <time>2017-10-01T11:01:36Z</time>
      </trkpt>
      <trkpt lat="43.40403" lon="1.34034">
        <ele>268</ele>
        <time>2017-10-01T11:01:52Z</time>
      </trkpt>
      <trkpt lat="43.40406" lon="1.34036">
        <ele>268</ele>
        <time>2017-10-01T11:01:52Z</time>
      </trkpt>
      <trkpt lat="43.40412" lon="1.34037">
        <ele>268</ele>
        <time>2017-10-01T11:01:52Z</time>
      </trkpt>
      <trkpt lat="43.40417" lon="1.3404">
        <ele>268</ele>
        <time>2017-10-01T11:01:52Z</time>
      </trkpt>
      <trkpt lat="43.40424" lon="1.34045">
        <ele>267</ele>
        <time>2017-10-01T11:02:12Z</time>
      </trkpt>
      <trkpt lat="43.40425" lon="1.34048">
        <ele>267</ele>
        <time>2017-10-01T11:02:12Z</time>
      </trkpt>
      <trkpt lat="43.40426" lon="1.34049">
        <ele>267</ele>
        <time>2017-10-01T11:02:12Z</time>
      </trkpt>
      <trkpt lat="43.40429" lon="1.34052">
        <ele>267</ele>
        <time>2017-10-01T11:02:12Z</time>
      </trkpt>
      <trkpt lat="43.40431" lon="1.34058">
        <ele>267</ele>
        <time>2017-10-01T11:02:12Z</time>
      </trkpt>
      <trkpt lat="43.40434" lon="1.34065">
        <ele>267</ele>
        <time>2017-10-01T11:02:29Z</time>
      </trkpt>
      <trkpt lat="43.40438" lon="1.34069">
        <ele>267</ele>
        <time>2017-10-01T11:02:29Z</time>
      </trkpt>
      <trkpt lat="43.40447" lon="1.34072">
        <ele>267</ele>
        <time>2017-10-01T11:02:29Z</time>
      </trkpt>
      <trkpt lat="43.40457" lon="1.34071">
        <ele>267</ele>
        <time>2017-10-01T11:02:29Z</time>
      </trkpt>
      <trkpt lat="43.4046" lon="1.34074">
        <ele>255</ele>
        <time>2017-10-01T11:02:44Z</time>
      </trkpt>
      <trkpt lat="43.40464" lon="1.34077">
        <ele>255</ele>
        <time>2017-10-01T11:02:44Z</time>
      </trkpt>
      <trkpt lat="43.40468" lon="1.34079">
        <ele>255</ele>
        <time>2017-10-01T11:02:44Z</time>
      </trkpt>
      <trkpt lat="43.40475" lon="1.34082">
        <ele>255</ele>
        <time>2017-10-01T11:02:44Z</time>
      </trkpt>
      <trkpt lat="43.4048" lon="1.34085">
        <ele>255</ele>
        <time>2017-10-01T11:03:01Z</time>
      </trkpt>
      <trkpt lat="43.40484" lon="1.34088">
        <ele>255</ele>
        <time>2017-10-01T11:03:01Z</time>
      </trkpt>
      <trkpt lat="43.40485" lon="1.34089">
        <ele>255</ele>
        <time>2017-10-01T11:03:01Z</time>
      </trkpt>
      <trkpt lat="43.40489" lon="1.34093">
        <ele>255</ele>
        <time>2017-10-01T11:03:01Z</time>
      </trkpt>
      <trkpt lat="43.40492" lon="1.34097">
        <ele>255</ele>
        <time>2017-10-01T11:03:16Z</time>
      </trkpt>
      <trkpt lat="43.40494" lon="1.34101">
        <ele>255</ele>
        <time>2017-10-01T11:03:16Z</time>
      </trkpt>
      <trkpt lat="43.40493" lon="1.34108">
        <ele>255</ele>
        <time>2017-10-01T11:03:16Z</time>
      </trkpt>
      <trkpt lat="43.40494" lon="1.34114">
        <ele>255</ele>
        <time>2017-10-01T11:03:16Z</time>
      </trkpt>
      <trkpt lat="43.40496" lon="1.3412">
        <ele>255</ele>
        <time>2017-10-01T11:03:33Z</time>
      </trkpt>
      <trkpt lat="43.40496" lon="1.34125">
        <ele>255</ele>
        <time>2017-10-01T11:03:33Z</time>
      </trkpt>
      <trkpt lat="43.40497" lon="1.34132">
        <ele>260</ele>
        <time>2017-10-01T11:03:33Z</time>
      </trkpt>
      <trkpt lat="43.40497" lon="1.3414">
        <ele>260</ele>
        <time>2017-10-01T11:03:33Z</time>
      </trkpt>
      <trkpt lat="43.40497" lon="1.34146">
        <ele>260</ele>
        <time>2017-10-01T11:03:49Z</time>
      </trkpt>
      <trkpt lat="43.40499" lon="1.34153">
        <ele>260</ele>
        <time>2017-10-01T11:03:49Z</time>
      </trkpt>
      <trkpt lat="43.40501" lon="1.34158">
        <ele>260</ele>
        <time>2017-10-01T11:03:49Z</time>
      </trkpt>
      <trkpt lat="43.40503" lon="1.34163">
        <ele>260</ele>
        <time>2017-10-01T11:03:49Z</time>
      </trkpt>
      <trkpt lat="43.40505" lon="1.34166">
        <ele>260</ele>
        <time>2017-10-01T11:04:04Z</time>
      </trkpt>
      <trkpt lat="43.40506" lon="1.34168">
        <ele>260</ele>
        <time>2017-10-01T11:04:04Z</time>
      </trkpt>
      <trkpt lat="43.40506" lon="1.34173">
        <ele>260</ele>
        <time>2017-10-01T11:04:04Z</time>
      </trkpt>
      <trkpt lat="43.40508" lon="1.34179">
        <ele>260</ele>
        <time>2017-10-01T11:04:04Z</time>
      </trkpt>
      <trkpt lat="43.40509" lon="1.34191">
        <ele>260</ele>
        <time>2017-10-01T11:04:20Z</time>
      </trkpt>
      <trkpt lat="43.40509" lon="1.34199">
        <ele>260</ele>
        <time>2017-10-01T11:04:20Z</time>
      </trkpt>
      <trkpt lat="43.40511" lon="1.34207">
        <ele>260</ele>
        <time>2017-10-01T11:04:20Z</time>
      </trkpt>
      <trkpt lat="43.40513" lon="1.34214">
        <ele>259</ele>
        <time>2017-10-01T11:04:20Z</time>
      </trkpt>
      <trkpt lat="43.40511" lon="1.3423">
        <ele>259</ele>
        <time>2017-10-01T11:04:37Z</time>
      </trkpt>
      <trkpt lat="43.40512" lon="1.34239">
        <ele>259</ele>
        <time>2017-10-01T11:04:37Z</time>
      </trkpt>
      <trkpt lat="43.40514" lon="1.34243">
        <ele>259</ele>
        <time>2017-10-01T11:04:37Z</time>
      </trkpt>
      <trkpt lat="43.40516" lon="1.34247">
        <ele>259</ele>
        <time>2017-10-01T11:04:37Z</time>
      </trkpt>
      <trkpt lat="43.40517" lon="1.3425">
        <ele>259</ele>
        <time>2017-10-01T11:04:52Z</time>
      </trkpt>
      <trkpt lat="43.40517" lon="1.34257">
        <ele>259</ele>
        <time>2017-10-01T11:04:52Z</time>
      </trkpt>
      <trkpt lat="43.40517" lon="1.34262">
        <ele>259</ele>
        <time>2017-10-01T11:04:52Z</time>
      </trkpt>
      <trkpt lat="43.40513" lon="1.34271">
        <ele>259</ele>
        <time>2017-10-01T11:04:52Z</time>
      </trkpt>
      <trkpt lat="43.40517" lon="1.34277">
        <ele>259</ele>
        <time>2017-10-01T11:05:12Z</time>
      </trkpt>
      <trkpt lat="43.40519" lon="1.34279">
        <ele>259</ele>
        <time>2017-10-01T11:05:12Z</time>
      </trkpt>
      <trkpt lat="43.40521" lon="1.34281">
        <ele>259</ele>
        <time>2017-10-01T11:05:12Z</time>
      </trkpt>
      <trkpt lat="43.40524" lon="1.34279">
        <ele>259</ele>
        <time>2017-10-01T11:05:12Z</time>
      </trkpt>
      <trkpt lat="43.40527" lon="1.34278">
        <ele>259</ele>
        <time>2017-10-01T11:05:12Z</time>
      </trkpt>
      <trkpt lat="43.40532" lon="1.34277">
        <ele>259</ele>
        <time>2017-10-01T11:05:28Z</time>
      </trkpt>
      <trkpt lat="43.40539" lon="1.34279">
        <ele>259</ele>
        <time>2017-10-01T11:05:28Z</time>
      </trkpt>
      <trkpt lat="43.40542" lon="1.34281">
        <ele>246</ele>
        <time>2017-10-01T11:05:28Z</time>
      </trkpt>
      <trkpt lat="43.40545" lon="1.34286">
        <ele>246</ele>
        <time>2017-10-01T11:05:28Z</time>
      </trkpt>
      <trkpt lat="43.40551" lon="1.34285">
        <ele>246</ele>
        <time>2017-10-01T11:05:53Z</time>
      </trkpt>
      <trkpt lat="43.40553" lon="1.34287">
        <ele>246</ele>
        <time>2017-10-01T11:05:53Z</time>
      </trkpt>
      <trkpt lat="43.40554" lon="1.34288">
        <ele>246</ele>
        <time>2017-10-01T11:05:53Z</time>
      </trkpt>
      <trkpt lat="43.40555" lon="1.34291">
        <ele>246</ele>
        <time>2017-10-01T11:05:53Z</time>
      </trkpt>
      <trkpt lat="43.40557" lon="1.34295">
        <ele>249</ele>
        <time>2017-10-01T11:05:53Z</time>
      </trkpt>
      <trkpt lat="43.40564" lon="1.34292">
        <ele>249</ele>
        <time>2017-10-01T11:06:25Z</time>
      </trkpt>
      <trkpt lat="43.40566" lon="1.34292">
        <ele>249</ele>
        <time>2017-10-01T11:06:25Z</time>
      </trkpt>
      <trkpt lat="43.40566" lon="1.34292">
        <ele>249</ele>
        <time>2017-10-01T11:06:25Z</time>
      </trkpt>
      <trkpt lat="43.40567" lon="1.34292">
        <ele>246</ele>
        <time>2017-10-01T11:06:25Z</time>
      </trkpt>
      <trkpt lat="43.40567" lon="1.34291">
        <ele>246</ele>
        <time>2017-10-01T11:06:25Z</time>
      </trkpt>
      <trkpt lat="43.40568" lon="1.34291">
        <ele>246</ele>
        <time>2017-10-01T11:06:40Z</time>
      </trkpt>
      <trkpt lat="43.40569" lon="1.34291">
        <ele>246</ele>
        <time>2017-10-01T11:06:40Z</time>
      </trkpt>
      <trkpt lat="43.40576" lon="1.34293">
        <ele>249</ele>
        <time>2017-10-01T11:06:40Z</time>
      </trkpt>
      <trkpt lat="43.40584" lon="1.34293">
        <ele>249</ele>
        <time>2017-10-01T11:06:40Z</time>
      </trkpt>
      <trkpt lat="43.40593" lon="1.34294">
        <ele>249</ele>
        <time>2017-10-01T11:06:56Z</time>
      </trkpt>
      <trkpt lat="43.40602" lon="1.34299">
        <ele>249</ele>
        <time>2017-10-01T11:06:56Z</time>
      </trkpt>
      <trkpt lat="43.40605" lon="1.34302">
        <ele>249</ele>
        <time>2017-10-01T11:06:56Z</time>
      </trkpt>
      <trkpt lat="43.40608" lon="1.34306">
        <ele>249</ele>
        <time>2017-10-01T11:06:56Z</time>
      </trkpt>
      <trkpt lat="43.4061" lon="1.34312">
        <ele>249</ele>
        <time>2017-10-01T11:07:12Z</time>
      </trkpt>
      <trkpt lat="43.40612" lon="1.34317">
        <ele>249</ele>
        <time>2017-10-01T11:07:12Z</time>
      </trkpt>
      <trkpt lat="43.40612" lon="1.34322">
        <ele>249</ele>
        <time>2017-10-01T11:07:12Z</time>
      </trkpt>
      <trkpt lat="43.40615" lon="1.34323">
        <ele>249</ele>
        <time>2017-10-01T11:07:12Z</time>
      </trkpt>
      <trkpt lat="43.40617" lon="1.34324">
        <ele>249</ele>
        <time>2017-10-01T11:07:28Z</time>
      </trkpt>
      <trkpt lat="43.40621" lon="1.34323">
        <ele>249</ele>
        <time>2017-10-01T11:07:28Z</time>
      </trkpt>
      <trkpt lat="43.40624" lon="1.34321">
        <ele>249</ele>
        <time>2017-10-01T11:07:28Z</time>
      </trkpt>
      <trkpt lat="43.40628" lon="1.34322">
        <ele>252</ele>
        <time>2017-10-01T11:07:28Z</time>
      </trkpt>
      <trkpt lat="43.40639" lon="1.3433">
        <ele>252</ele>
        <time>2017-10-01T11:08:09Z</time>
      </trkpt>
      <trkpt lat="43.40639" lon="1.3433">
        <ele>252</ele>
        <time>2017-10-01T11:08:09Z</time>
      </trkpt>
      <trkpt lat="43.40639" lon="1.3433">
        <ele>252</ele>
        <time>2017-10-01T11:08:09Z</time>
      </trkpt>
      <trkpt lat="43.40639" lon="1.3433">
        <ele>252</ele>
        <time>2017-10-01T11:08:09Z</time>
      </trkpt>
      <trkpt lat="43.40646" lon="1.34334">
        <ele>252</ele>
        <time>2017-10-01T11:08:09Z</time>
      </trkpt>
      <trkpt lat="43.40655" lon="1.34338">
        <ele>252</ele>
        <time>2017-10-01T11:08:44Z</time>
      </trkpt>
      <trkpt lat="43.40655" lon="1.34339">
        <ele>252</ele>
        <time>2017-10-01T11:08:44Z</time>
      </trkpt>
      <trkpt lat="43.40656" lon="1.34339">
        <ele>252</ele>
        <time>2017-10-01T11:08:44Z</time>
      </trkpt>
      <trkpt lat="43.4066" lon="1.34342">
        <ele>252</ele>
        <time>2017-10-01T11:08:44Z</time>
      </trkpt>
      <trkpt lat="43.40663" lon="1.34346">
        <ele>252</ele>
        <time>2017-10-01T11:08:44Z</time>
      </trkpt>
      <trkpt lat="43.40669" lon="1.34348">
        <ele>252</ele>
        <time>2017-10-01T11:09:00Z</time>
      </trkpt>
      <trkpt lat="43.40677" lon="1.3435">
        <ele>252</ele>
        <time>2017-10-01T11:09:00Z</time>
      </trkpt>
      <trkpt lat="43.40684" lon="1.34352">
        <ele>252</ele>
        <time>2017-10-01T11:09:00Z</time>
      </trkpt>
      <trkpt lat="43.40688" lon="1.34354">
        <ele>252</ele>
        <time>2017-10-01T11:09:00Z</time>
      </trkpt>
      <trkpt lat="43.40695" lon="1.34354">
        <ele>252</ele>
        <time>2017-10-01T11:09:16Z</time>
      </trkpt>
      <trkpt lat="43.40698" lon="1.34353">
        <ele>252</ele>
        <time>2017-10-01T11:09:16Z</time>
      </trkpt>
      <trkpt lat="43.40703" lon="1.34352">
        <ele>252</ele>
        <time>2017-10-01T11:09:17Z</time>
      </trkpt>
      <trkpt lat="43.40708" lon="1.3435">
        <ele>252</ele>
        <time>2017-10-01T11:09:17Z</time>
      </trkpt>
      <trkpt lat="43.40714" lon="1.3435">
        <ele>261</ele>
        <time>2017-10-01T11:09:32Z</time>
      </trkpt>
      <trkpt lat="43.40721" lon="1.34348">
        <ele>261</ele>
        <time>2017-10-01T11:09:32Z</time>
      </trkpt>
      <trkpt lat="43.40731" lon="1.34344">
        <ele>261</ele>
        <time>2017-10-01T11:09:32Z</time>
      </trkpt>
      <trkpt lat="43.40737" lon="1.34344">
        <ele>261</ele>
        <time>2017-10-01T11:09:32Z</time>
      </trkpt>
      <trkpt lat="43.40757" lon="1.34342">
        <ele>261</ele>
        <time>2017-10-01T11:10:00Z</time>
      </trkpt>
      <trkpt lat="43.40758" lon="1.34342">
        <ele>261</ele>
        <time>2017-10-01T11:10:00Z</time>
      </trkpt>
      <trkpt lat="43.4076" lon="1.34342">
        <ele>261</ele>
        <time>2017-10-01T11:10:00Z</time>
      </trkpt>
      <trkpt lat="43.40762" lon="1.34342">
        <ele>261</ele>
        <time>2017-10-01T11:10:01Z</time>
      </trkpt>
      <trkpt lat="43.40762" lon="1.34343">
        <ele>261</ele>
        <time>2017-10-01T11:10:01Z</time>
      </trkpt>
      <trkpt lat="43.4077" lon="1.34353">
        <ele>261</ele>
        <time>2017-10-01T11:10:25Z</time>
      </trkpt>
      <trkpt lat="43.4077" lon="1.34355">
        <ele>261</ele>
        <time>2017-10-01T11:10:25Z</time>
      </trkpt>
      <trkpt lat="43.4077" lon="1.34357">
        <ele>261</ele>
        <time>2017-10-01T11:10:25Z</time>
      </trkpt>
      <trkpt lat="43.4077" lon="1.34359">
        <ele>261</ele>
        <time>2017-10-01T11:10:25Z</time>
      </trkpt>
      <trkpt lat="43.40771" lon="1.34363">
        <ele>261</ele>
        <time>2017-10-01T11:10:25Z</time>
      </trkpt>
      <trkpt lat="43.40772" lon="1.34367">
        <ele>261</ele>
        <time>2017-10-01T11:10:40Z</time>
      </trkpt>
      <trkpt lat="43.40773" lon="1.34371">
        <ele>261</ele>
        <time>2017-10-01T11:10:40Z</time>
      </trkpt>
      <trkpt lat="43.40774" lon="1.34377">
        <ele>253</ele>
        <time>2017-10-01T11:10:40Z</time>
      </trkpt>
      <trkpt lat="43.40775" lon="1.34382">
        <ele>253</ele>
        <time>2017-10-01T11:10:40Z</time>
      </trkpt>
      <trkpt lat="43.40774" lon="1.34387">
        <ele>253</ele>
        <time>2017-10-01T11:10:56Z</time>
      </trkpt>
      <trkpt lat="43.40777" lon="1.34395">
        <ele>253</ele>
        <time>2017-10-01T11:10:56Z</time>
      </trkpt>
      <trkpt lat="43.40779" lon="1.34402">
        <ele>253</ele>
        <time>2017-10-01T11:10:56Z</time>
      </trkpt>
      <trkpt lat="43.40781" lon="1.34416">
        <ele>253</ele>
        <time>2017-10-01T11:10:56Z</time>
      </trkpt>
      <trkpt lat="43.40785" lon="1.34435">
        <ele>253</ele>
        <time>2017-10-01T11:12:04Z</time>
      </trkpt>
      <trkpt lat="43.40785" lon="1.34435">
        <ele>253</ele>
        <time>2017-10-01T11:12:04Z</time>
      </trkpt>
      <trkpt lat="43.40785" lon="1.34435">
        <ele>253</ele>
        <time>2017-10-01T11:12:04Z</time>
      </trkpt>
      <trkpt lat="43.40786" lon="1.34437">
        <ele>253</ele>
        <time>2017-10-01T11:12:04Z</time>
      </trkpt>
      <trkpt lat="43.40786" lon="1.34442">
        <ele>253</ele>
        <time>2017-10-01T11:12:04Z</time>
      </trkpt>
      <trkpt lat="43.40786" lon="1.34443">
        <ele>253</ele>
        <time>2017-10-01T11:14:28Z</time>
      </trkpt>
      <trkpt lat="43.40785" lon="1.34444">
        <ele>253</ele>
        <time>2017-10-01T11:14:28Z</time>
      </trkpt>
      <trkpt lat="43.40786" lon="1.34451">
        <ele>253</ele>
        <time>2017-10-01T11:14:28Z</time>
      </trkpt>
      <trkpt lat="43.40788" lon="1.34456">
        <ele>253</ele>
        <time>2017-10-01T11:14:28Z</time>
      </trkpt>
      <trkpt lat="43.4079" lon="1.34462">
        <ele>247</ele>
        <time>2017-10-01T11:14:28Z</time>
      </trkpt>
      <trkpt lat="43.40791" lon="1.34471">
        <ele>247</ele>
        <time>2017-10-01T11:14:45Z</time>
      </trkpt>
      <trkpt lat="43.40793" lon="1.34477">
        <ele>260</ele>
        <time>2017-10-01T11:14:45Z</time>
      </trkpt>
      <trkpt lat="43.40793" lon="1.34483">
        <ele>260</ele>
        <time>2017-10-01T11:14:45Z</time>
      </trkpt>
      <trkpt lat="43.40794" lon="1.34489">
        <ele>260</ele>
        <time>2017-10-01T11:14:45Z</time>
      </trkpt>
      <trkpt lat="43.40794" lon="1.34493">
        <ele>260</ele>
        <time>2017-10-01T11:15:00Z</time>
      </trkpt>
      <trkpt lat="43.40793" lon="1.34499">
        <ele>260</ele>
        <time>2017-10-01T11:15:00Z</time>
      </trkpt>
      <trkpt lat="43.40793" lon="1.34505">
        <ele>260</ele>
        <time>2017-10-01T11:15:00Z</time>
      </trkpt>
      <trkpt lat="43.40795" lon="1.34511">
        <ele>260</ele>
        <time>2017-10-01T11:15:00Z</time>
      </trkpt>
      <trkpt lat="43.40795" lon="1.34518">
        <ele>260</ele>
        <time>2017-10-01T11:15:17Z</time>
      </trkpt>
      <trkpt lat="43.40797" lon="1.34524">
        <ele>260</ele>
        <time>2017-10-01T11:15:17Z</time>
      </trkpt>
      <trkpt lat="43.40799" lon="1.3453">
        <ele>260</ele>
        <time>2017-10-01T11:15:17Z</time>
      </trkpt>
      <trkpt lat="43.40801" lon="1.34534">
        <ele>260</ele>
        <time>2017-10-01T11:15:17Z</time>
      </trkpt>
      <trkpt lat="43.40803" lon="1.34541">
        <ele>260</ele>
        <time>2017-10-01T11:15:32Z</time>
      </trkpt>
      <trkpt lat="43.40805" lon="1.34546">
        <ele>250</ele>
        <time>2017-10-01T11:15:32Z</time>
      </trkpt>
      <trkpt lat="43.40807" lon="1.34554">
        <ele>250</ele>
        <time>2017-10-01T11:15:32Z</time>
      </trkpt>
      <trkpt lat="43.40809" lon="1.3456">
        <ele>250</ele>
        <time>2017-10-01T11:15:32Z</time>
      </trkpt>
      <trkpt lat="43.40812" lon="1.34565">
        <ele>250</ele>
        <time>2017-10-01T11:15:49Z</time>
      </trkpt>
      <trkpt lat="43.40815" lon="1.3457">
        <ele>250</ele>
        <time>2017-10-01T11:15:49Z</time>
      </trkpt>
      <trkpt lat="43.40816" lon="1.34578">
        <ele>250</ele>
        <time>2017-10-01T11:15:49Z</time>
      </trkpt>
      <trkpt lat="43.40819" lon="1.34586">
        <ele>250</ele>
        <time>2017-10-01T11:15:49Z</time>
      </trkpt>
      <trkpt lat="43.40821" lon="1.34591">
        <ele>250</ele>
        <time>2017-10-01T11:16:04Z</time>
      </trkpt>
      <trkpt lat="43.40824" lon="1.34596">
        <ele>250</ele>
        <time>2017-10-01T11:16:04Z</time>
      </trkpt>
      <trkpt lat="43.40827" lon="1.346">
        <ele>250</ele>
        <time>2017-10-01T11:16:04Z</time>
      </trkpt>
      <trkpt lat="43.4083" lon="1.34606">
        <ele>250</ele>
        <time>2017-10-01T11:16:04Z</time>
      </trkpt>
      <trkpt lat="43.40834" lon="1.3461">
        <ele>250</ele>
        <time>2017-10-01T11:16:20Z</time>
      </trkpt>
      <trkpt lat="43.40837" lon="1.34614">
        <ele>250</ele>
        <time>2017-10-01T11:16:20Z</time>
      </trkpt>
      <trkpt lat="43.40839" lon="1.3462">
        <ele>250</ele>
        <time>2017-10-01T11:16:20Z</time>
      </trkpt>
      <trkpt lat="43.4084" lon="1.34625">
        <ele>246</ele>
        <time>2017-10-01T11:16:20Z</time>
      </trkpt>
      <trkpt lat="43.40842" lon="1.34635">
        <ele>246</ele>
        <time>2017-10-01T11:16:36Z</time>
      </trkpt>
      <trkpt lat="43.40842" lon="1.3464">
        <ele>246</ele>
        <time>2017-10-01T11:16:36Z</time>
      </trkpt>
      <trkpt lat="43.40843" lon="1.34647">
        <ele>246</ele>
        <time>2017-10-01T11:16:36Z</time>
      </trkpt>
      <trkpt lat="43.40844" lon="1.34654">
        <ele>246</ele>
        <time>2017-10-01T11:16:36Z</time>
      </trkpt>
      <trkpt lat="43.40846" lon="1.34662">
        <ele>246</ele>
        <time>2017-10-01T11:16:52Z</time>
      </trkpt>
      <trkpt lat="43.40847" lon="1.34671">
        <ele>246</ele>
        <time>2017-10-01T11:16:52Z</time>
      </trkpt>
      <trkpt lat="43.40849" lon="1.34675">
        <ele>246</ele>
        <time>2017-10-01T11:16:52Z</time>
      </trkpt>
      <trkpt lat="43.40852" lon="1.34679">
        <ele>246</ele>
        <time>2017-10-01T11:16:52Z</time>
      </trkpt>
      <trkpt lat="43.40853" lon="1.34687">
        <ele>246</ele>
        <time>2017-10-01T11:17:09Z</time>
      </trkpt>
      <trkpt lat="43.40855" lon="1.34692">
        <ele>246</ele>
        <time>2017-10-01T11:17:09Z</time>
      </trkpt>
      <trkpt lat="43.40857" lon="1.34698">
        <ele>246</ele>
        <time>2017-10-01T11:17:09Z</time>
      </trkpt>
      <trkpt lat="43.40859" lon="1.34705">
        <ele>246</ele>
        <time>2017-10-01T11:17:09Z</time>
      </trkpt>
      <trkpt lat="43.4086" lon="1.34709">
        <ele>247</ele>
        <time>2017-10-01T11:17:24Z</time>
      </trkpt>
      <trkpt lat="43.40861" lon="1.34716">
        <ele>247</ele>
        <time>2017-10-01T11:17:24Z</time>
      </trkpt>
      <trkpt lat="43.40862" lon="1.3472">
        <ele>247</ele>
        <time>2017-10-01T11:17:24Z</time>
      </trkpt>
      <trkpt lat="43.40863" lon="1.34726">
        <ele>247</ele>
        <time>2017-10-01T11:17:24Z</time>
      </trkpt>
      <trkpt lat="43.40865" lon="1.34736">
        <ele>247</ele>
        <time>2017-10-01T11:17:41Z</time>
      </trkpt>
      <trkpt lat="43.40868" lon="1.34741">
        <ele>247</ele>
        <time>2017-10-01T11:17:41Z</time>
      </trkpt>
      <trkpt lat="43.40871" lon="1.34752">
        <ele>247</ele>
        <time>2017-10-01T11:17:41Z</time>
      </trkpt>
      <trkpt lat="43.40874" lon="1.34761">
        <ele>247</ele>
        <time>2017-10-01T11:17:41Z</time>
      </trkpt>
      <trkpt lat="43.40875" lon="1.34765">
        <ele>247</ele>
        <time>2017-10-01T11:17:56Z</time>
      </trkpt>
      <trkpt lat="43.40877" lon="1.34768">
        <ele>263</ele>
        <time>2017-10-01T11:17:56Z</time>
      </trkpt>
      <trkpt lat="43.40879" lon="1.34775">
        <ele>263</ele>
        <time>2017-10-01T11:17:56Z</time>
      </trkpt>
      <trkpt lat="43.4088" lon="1.34782">
        <ele>263</ele>
        <time>2017-10-01T11:17:56Z</time>
      </trkpt>
      <trkpt lat="43.40882" lon="1.34789">
        <ele>263</ele>
        <time>2017-10-01T11:18:13Z</time>
      </trkpt>
      <trkpt lat="43.40883" lon="1.34795">
        <ele>261</ele>
        <time>2017-10-01T11:18:13Z</time>
      </trkpt>
      <trkpt lat="43.40883" lon="1.34802">
        <ele>261</ele>
        <time>2017-10-01T11:18:13Z</time>
      </trkpt>
      <trkpt lat="43.40883" lon="1.34809">
        <ele>261</ele>
        <time>2017-10-01T11:18:13Z</time>
      </trkpt>
      <trkpt lat="43.40884" lon="1.3481">
        <ele>261</ele>
        <time>2017-10-01T11:18:28Z</time>
      </trkpt>
      <trkpt lat="43.40886" lon="1.34815">
        <ele>261</ele>
        <time>2017-10-01T11:18:28Z</time>
      </trkpt>
      <trkpt lat="43.40888" lon="1.34822">
        <ele>261</ele>
        <time>2017-10-01T11:18:28Z</time>
      </trkpt>
      <trkpt lat="43.40889" lon="1.34826">
        <ele>261</ele>
        <time>2017-10-01T11:18:28Z</time>
      </trkpt>
      <trkpt lat="43.40891" lon="1.34833">
        <ele>261</ele>
        <time>2017-10-01T11:18:45Z</time>
      </trkpt>
      <trkpt lat="43.40892" lon="1.34837">
        <ele>261</ele>
        <time>2017-10-01T11:18:45Z</time>
      </trkpt>
      <trkpt lat="43.40893" lon="1.34843">
        <ele>261</ele>
        <time>2017-10-01T11:18:45Z</time>
      </trkpt>
      <trkpt lat="43.40894" lon="1.34852">
        <ele>261</ele>
        <time>2017-10-01T11:18:45Z</time>
      </trkpt>
      <trkpt lat="43.40894" lon="1.34858">
        <ele>261</ele>
        <time>2017-10-01T11:19:00Z</time>
      </trkpt>
      <trkpt lat="43.40893" lon="1.34871">
        <ele>261</ele>
        <time>2017-10-01T11:19:00Z</time>
      </trkpt>
      <trkpt lat="43.40892" lon="1.34881">
        <ele>259</ele>
        <time>2017-10-01T11:19:00Z</time>
      </trkpt>
      <trkpt lat="43.40894" lon="1.34884">
        <ele>259</ele>
        <time>2017-10-01T11:19:00Z</time>
      </trkpt>
      <trkpt lat="43.40894" lon="1.34891">
        <ele>259</ele>
        <time>2017-10-01T11:19:17Z</time>
      </trkpt>
      <trkpt lat="43.40896" lon="1.34897">
        <ele>259</ele>
        <time>2017-10-01T11:19:17Z</time>
      </trkpt>
      <trkpt lat="43.40896" lon="1.34902">
        <ele>259</ele>
        <time>2017-10-01T11:19:17Z</time>
      </trkpt>
      <trkpt lat="43.40897" lon="1.3491">
        <ele>259</ele>
        <time>2017-10-01T11:19:17Z</time>
      </trkpt>
      <trkpt lat="43.40897" lon="1.34915">
        <ele>259</ele>
        <time>2017-10-01T11:19:32Z</time>
      </trkpt>
      <trkpt lat="43.40897" lon="1.34922">
        <ele>259</ele>
        <time>2017-10-01T11:19:32Z</time>
      </trkpt>
      <trkpt lat="43.40897" lon="1.34929">
        <ele>259</ele>
        <time>2017-10-01T11:19:32Z</time>
      </trkpt>
      <trkpt lat="43.40895" lon="1.34936">
        <ele>259</ele>
        <time>2017-10-01T11:19:32Z</time>
      </trkpt>
      <trkpt lat="43.40896" lon="1.34944">
        <ele>259</ele>
        <time>2017-10-01T11:19:56Z</time>
      </trkpt>
      <trkpt lat="43.40903" lon="1.34958">
        <ele>259</ele>
        <time>2017-10-01T11:19:56Z</time>
      </trkpt>
      <trkpt lat="43.40906" lon="1.34962">
        <ele>255</ele>
        <time>2017-10-01T11:19:56Z</time>
      </trkpt>
      <trkpt lat="43.40909" lon="1.34968">
        <ele>255</ele>
        <time>2017-10-01T11:19:56Z</time>
      </trkpt>
      <trkpt lat="43.40913" lon="1.34971">
        <ele>255</ele>
        <time>2017-10-01T11:20:12Z</time>
      </trkpt>
      <trkpt lat="43.40915" lon="1.34976">
        <ele>255</ele>
        <time>2017-10-01T11:20:12Z</time>
      </trkpt>
      <trkpt lat="43.40917" lon="1.34982">
        <ele>255</ele>
        <time>2017-10-01T11:20:12Z</time>
      </trkpt>
      <trkpt lat="43.40919" lon="1.34983">
        <ele>255</ele>
        <time>2017-10-01T11:20:12Z</time>
      </trkpt>
      <trkpt lat="43.40919" lon="1.34993">
        <ele>255</ele>
        <time>2017-10-01T11:20:37Z</time>
      </trkpt>
      <trkpt lat="43.4092" lon="1.34998">
        <ele>255</ele>
        <time>2017-10-01T11:20:37Z</time>
      </trkpt>
      <trkpt lat="43.40924" lon="1.35002">
        <ele>255</ele>
        <time>2017-10-01T11:20:37Z</time>
      </trkpt>
      <trkpt lat="43.40929" lon="1.35019">
        <ele>255</ele>
        <time>2017-10-01T11:20:37Z</time>
      </trkpt>
      <trkpt lat="43.40932" lon="1.3502">
        <ele>255</ele>
        <time>2017-10-01T11:20:52Z</time>
      </trkpt>
      <trkpt lat="43.40935" lon="1.35024">
        <ele>255</ele>
        <time>2017-10-01T11:20:52Z</time>
      </trkpt>
      <trkpt lat="43.40937" lon="1.35035">
        <ele>255</ele>
        <time>2017-10-01T11:20:52Z</time>
      </trkpt>
      <trkpt lat="43.40938" lon="1.35046">
        <ele>243</ele>
        <time>2017-10-01T11:20:52Z</time>
      </trkpt>
      <trkpt lat="43.40939" lon="1.35059">
        <ele>243</ele>
        <time>2017-10-01T11:21:08Z</time>
      </trkpt>
      <trkpt lat="43.40941" lon="1.35069">
        <ele>243</ele>
        <time>2017-10-01T11:21:08Z</time>
      </trkpt>
      <trkpt lat="43.40944" lon="1.35074">
        <ele>243</ele>
        <time>2017-10-01T11:21:08Z</time>
      </trkpt>
      <trkpt lat="43.40946" lon="1.35078">
        <ele>243</ele>
        <time>2017-10-01T11:21:08Z</time>
      </trkpt>
      <trkpt lat="43.40948" lon="1.35081">
        <ele>243</ele>
        <time>2017-10-01T11:21:24Z</time>
      </trkpt>
      <trkpt lat="43.40951" lon="1.35086">
        <ele>243</ele>
        <time>2017-10-01T11:21:24Z</time>
      </trkpt>
      <trkpt lat="43.40953" lon="1.35092">
        <ele>243</ele>
        <time>2017-10-01T11:21:24Z</time>
      </trkpt>
      <trkpt lat="43.40956" lon="1.35099">
        <ele>243</ele>
        <time>2017-10-01T11:21:24Z</time>
      </trkpt>
      <trkpt lat="43.40958" lon="1.35105">
        <ele>243</ele>
        <time>2017-10-01T11:21:40Z</time>
      </trkpt>
      <trkpt lat="43.4096" lon="1.35114">
        <ele>262</ele>
        <time>2017-10-01T11:21:40Z</time>
      </trkpt>
      <trkpt lat="43.40962" lon="1.35122">
        <ele>262</ele>
        <time>2017-10-01T11:21:40Z</time>
      </trkpt>
      <trkpt lat="43.40965" lon="1.35128">
        <ele>249</ele>
        <time>2017-10-01T11:21:40Z</time>
      </trkpt>
      <trkpt lat="43.40972" lon="1.35127">
        <ele>249</ele>
        <time>2017-10-01T11:22:32Z</time>
      </trkpt>
      <trkpt lat="43.40972" lon="1.35127">
        <ele>249</ele>
        <time>2017-10-01T11:22:32Z</time>
      </trkpt>
      <trkpt lat="43.40972" lon="1.35127">
        <ele>249</ele>
        <time>2017-10-01T11:22:32Z</time>
      </trkpt>
      <trkpt lat="43.40972" lon="1.35126">
        <ele>249</ele>
        <time>2017-10-01T11:22:32Z</time>
      </trkpt>
      <trkpt lat="43.40973" lon="1.35121">
        <ele>262</ele>
        <time>2017-10-01T11:22:32Z</time>
      </trkpt>
      <trkpt lat="43.40977" lon="1.35115">
        <ele>262</ele>
        <time>2017-10-01T11:22:48Z</time>
      </trkpt>
      <trkpt lat="43.40982" lon="1.35111">
        <ele>262</ele>
        <time>2017-10-01T11:22:48Z</time>
      </trkpt>
      <trkpt lat="43.40988" lon="1.35107">
        <ele>262</ele>
        <time>2017-10-01T11:22:48Z</time>
      </trkpt>
      <trkpt lat="43.40995" lon="1.35103">
        <ele>262</ele>
        <time>2017-10-01T11:22:48Z</time>
      </trkpt>
      <trkpt lat="43.41002" lon="1.35099">
        <ele>262</ele>
        <time>2017-10-01T11:23:05Z</time>
      </trkpt>
      <trkpt lat="43.4101" lon="1.35093">
        <ele>262</ele>
        <time>2017-10-01T11:23:05Z</time>
      </trkpt>
      <trkpt lat="43.41017" lon="1.35089">
        <ele>262</ele>
        <time>2017-10-01T11:23:05Z</time>
      </trkpt>
      <trkpt lat="43.4102" lon="1.35083">
        <ele>262</ele>
        <time>2017-10-01T11:23:05Z</time>
      </trkpt>
      <trkpt lat="43.41029" lon="1.35072">
        <ele>262</ele>
        <time>2017-10-01T11:23:20Z</time>
      </trkpt>
      <trkpt lat="43.41035" lon="1.35062">
        <ele>262</ele>
        <time>2017-10-01T11:23:20Z</time>
      </trkpt>
      <trkpt lat="43.41039" lon="1.35057">
        <ele>262</ele>
        <time>2017-10-01T11:23:20Z</time>
      </trkpt>
      <trkpt lat="43.4104" lon="1.35052">
        <ele>262</ele>
        <time>2017-10-01T11:23:20Z</time>
      </trkpt>
      <trkpt lat="43.41035" lon="1.35046">
        <ele>262</ele>
        <time>2017-10-01T11:23:37Z</time>
      </trkpt>
      <trkpt lat="43.41034" lon="1.35034">
        <ele>267</ele>
        <time>2017-10-01T11:23:37Z</time>
      </trkpt>
      <trkpt lat="43.41035" lon="1.35032">
        <ele>267</ele>
        <time>2017-10-01T11:23:37Z</time>
      </trkpt>
      <trkpt lat="43.41038" lon="1.35031">
        <ele>267</ele>
        <time>2017-10-01T11:23:37Z</time>
      </trkpt>
      <trkpt lat="43.41039" lon="1.35028">
        <ele>267</ele>
        <time>2017-10-01T11:24:00Z</time>
      </trkpt>
      <trkpt lat="43.4104" lon="1.35027">
        <ele>267</ele>
        <time>2017-10-01T11:24:00Z</time>
      </trkpt>
      <trkpt lat="43.4104" lon="1.35027">
        <ele>267</ele>
        <time>2017-10-01T11:24:00Z</time>
      </trkpt>
      <trkpt lat="43.4104" lon="1.35025">
        <ele>267</ele>
        <time>2017-10-01T11:24:00Z</time>
      </trkpt>
      <trkpt lat="43.41043" lon="1.34999">
        <ele>265</ele>
        <time>2017-10-01T11:24:00Z</time>
      </trkpt>
      <trkpt lat="43.41045" lon="1.34986">
        <ele>265</ele>
        <time>2017-10-01T11:24:28Z</time>
      </trkpt>
      <trkpt lat="43.41041" lon="1.34981">
        <ele>267</ele>
        <time>2017-10-01T11:24:28Z</time>
      </trkpt>
      <trkpt lat="43.41034" lon="1.34966">
        <ele>267</ele>
        <time>2017-10-01T11:24:28Z</time>
      </trkpt>
      <trkpt lat="43.41034" lon="1.34959">
        <ele>267</ele>
        <time>2017-10-01T11:24:28Z</time>
      </trkpt>
      <trkpt lat="43.41036" lon="1.34953">
        <ele>271</ele>
        <time>2017-10-01T11:24:28Z</time>
      </trkpt>
      <trkpt lat="43.41037" lon="1.34949">
        <ele>271</ele>
        <time>2017-10-01T11:24:45Z</time>
      </trkpt>
      <trkpt lat="43.4104" lon="1.34945">
        <ele>271</ele>
        <time>2017-10-01T11:24:45Z</time>
      </trkpt>
      <trkpt lat="43.41042" lon="1.3494">
        <ele>271</ele>
        <time>2017-10-01T11:24:45Z</time>
      </trkpt>
      <trkpt lat="43.41038" lon="1.34919">
        <ele>271</ele>
        <time>2017-10-01T11:24:45Z</time>
      </trkpt>
      <trkpt lat="43.41048" lon="1.34912">
        <ele>270</ele>
        <time>2017-10-01T11:25:17Z</time>
      </trkpt>
      <trkpt lat="43.41049" lon="1.34908">
        <ele>270</ele>
        <time>2017-10-01T11:25:17Z</time>
      </trkpt>
      <trkpt lat="43.41051" lon="1.34904">
        <ele>270</ele>
        <time>2017-10-01T11:25:17Z</time>
      </trkpt>
      <trkpt lat="43.41053" lon="1.34896">
        <ele>270</ele>
        <time>2017-10-01T11:25:17Z</time>
      </trkpt>
      <trkpt lat="43.41054" lon="1.34878">
        <ele>270</ele>
        <time>2017-10-01T11:25:17Z</time>
      </trkpt>
      <trkpt lat="43.41053" lon="1.34867">
        <ele>280</ele>
        <time>2017-10-01T11:25:37Z</time>
      </trkpt>
      <trkpt lat="43.41051" lon="1.34864">
        <ele>280</ele>
        <time>2017-10-01T11:25:37Z</time>
      </trkpt>
      <trkpt lat="43.41052" lon="1.34862">
        <ele>280</ele>
        <time>2017-10-01T11:25:37Z</time>
      </trkpt>
      <trkpt lat="43.4105" lon="1.34858">
        <ele>280</ele>
        <time>2017-10-01T11:25:37Z</time>
      </trkpt>
      <trkpt lat="43.41051" lon="1.34847">
        <ele>280</ele>
        <time>2017-10-01T11:25:37Z</time>
      </trkpt>
      <trkpt lat="43.41056" lon="1.3484">
        <ele>280</ele>
        <time>2017-10-01T11:25:52Z</time>
      </trkpt>
      <trkpt lat="43.41059" lon="1.34837">
        <ele>280</ele>
        <time>2017-10-01T11:25:52Z</time>
      </trkpt>
      <trkpt lat="43.41062" lon="1.34834">
        <ele>280</ele>
        <time>2017-10-01T11:25:52Z</time>
      </trkpt>
      <trkpt lat="43.41064" lon="1.3483">
        <ele>280</ele>
        <time>2017-10-01T11:25:52Z</time>
      </trkpt>
      <trkpt lat="43.41066" lon="1.34826">
        <ele>280</ele>
        <time>2017-10-01T11:26:13Z</time>
      </trkpt>
      <trkpt lat="43.41068" lon="1.34821">
        <ele>280</ele>
        <time>2017-10-01T11:26:13Z</time>
      </trkpt>
      <trkpt lat="43.41068" lon="1.34816">
        <ele>280</ele>
        <time>2017-10-01T11:26:13Z</time>
      </trkpt>
      <trkpt lat="43.41068" lon="1.34814">
        <ele>280</ele>
        <time>2017-10-01T11:26:13Z</time>
      </trkpt>
      <trkpt lat="43.41066" lon="1.34808">
        <ele>280</ele>
        <time>2017-10-01T11:26:13Z</time>
      </trkpt>
      <trkpt lat="43.4107" lon="1.34799">
        <ele>280</ele>
        <time>2017-10-01T11:26:28Z</time>
      </trkpt>
      <trkpt lat="43.41074" lon="1.34794">
        <ele>280</ele>
        <time>2017-10-01T11:26:28Z</time>
      </trkpt>
      <trkpt lat="43.41074" lon="1.34785">
        <ele>282</ele>
        <time>2017-10-01T11:26:28Z</time>
      </trkpt>
      <trkpt lat="43.41074" lon="1.34777">
        <ele>282</ele>
        <time>2017-10-01T11:26:28Z</time>
      </trkpt>
      <trkpt lat="43.41072" lon="1.34771">
        <ele>282</ele>
        <time>2017-10-01T11:26:45Z</time>
      </trkpt>
      <trkpt lat="43.41072" lon="1.34765">
        <ele>282</ele>
        <time>2017-10-01T11:26:45Z</time>
      </trkpt>
      <trkpt lat="43.41073" lon="1.34759">
        <ele>282</ele>
        <time>2017-10-01T11:26:45Z</time>
      </trkpt>
      <trkpt lat="43.41075" lon="1.34755">
        <ele>282</ele>
        <time>2017-10-01T11:26:45Z</time>
      </trkpt>
      <trkpt lat="43.41077" lon="1.34749">
        <ele>282</ele>
        <time>2017-10-01T11:27:00Z</time>
      </trkpt>
      <trkpt lat="43.41079" lon="1.34742">
        <ele>282</ele>
        <time>2017-10-01T11:27:00Z</time>
      </trkpt>
      <trkpt lat="43.4108" lon="1.34733">
        <ele>282</ele>
        <time>2017-10-01T11:27:00Z</time>
      </trkpt>
      <trkpt lat="43.41081" lon="1.34727">
        <ele>282</ele>
        <time>2017-10-01T11:27:00Z</time>
      </trkpt>
      <trkpt lat="43.41082" lon="1.3472">
        <ele>282</ele>
        <time>2017-10-01T11:27:17Z</time>
      </trkpt>
      <trkpt lat="43.41084" lon="1.34713">
        <ele>282</ele>
        <time>2017-10-01T11:27:17Z</time>
      </trkpt>
      <trkpt lat="43.41087" lon="1.34708">
        <ele>284</ele>
        <time>2017-10-01T11:27:17Z</time>
      </trkpt>
      <trkpt lat="43.41088" lon="1.34703">
        <ele>284</ele>
        <time>2017-10-01T11:27:17Z</time>
      </trkpt>
      <trkpt lat="43.41097" lon="1.34693">
        <ele>284</ele>
        <time>2017-10-01T11:28:01Z</time>
      </trkpt>
      <trkpt lat="43.41097" lon="1.34692">
        <ele>284</ele>
        <time>2017-10-01T11:28:01Z</time>
      </trkpt>
      <trkpt lat="43.41097" lon="1.34685">
        <ele>284</ele>
        <time>2017-10-01T11:28:01Z</time>
      </trkpt>
      <trkpt lat="43.41098" lon="1.34681">
        <ele>284</ele>
        <time>2017-10-01T11:28:01Z</time>
      </trkpt>
      <trkpt lat="43.41099" lon="1.3468">
        <ele>284</ele>
        <time>2017-10-01T11:28:01Z</time>
      </trkpt>
      <trkpt lat="43.41103" lon="1.34682">
        <ele>284</ele>
        <time>2017-10-01T11:30:49Z</time>
      </trkpt>
      <trkpt lat="43.41103" lon="1.34681">
        <ele>284</ele>
        <time>2017-10-01T11:30:49Z</time>
      </trkpt>
      <trkpt lat="43.41105" lon="1.34679">
        <ele>284</ele>
        <time>2017-10-01T11:30:49Z</time>
      </trkpt>
      <trkpt lat="43.41104" lon="1.34665">
        <ele>284</ele>
        <time>2017-10-01T11:30:49Z</time>
      </trkpt>
      <trkpt lat="43.41107" lon="1.34649">
        <ele>284</ele>
        <time>2017-10-01T11:30:49Z</time>
      </trkpt>
      <trkpt lat="43.41108" lon="1.34642">
        <ele>284</ele>
        <time>2017-10-01T11:31:04Z</time>
      </trkpt>
      <trkpt lat="43.41116" lon="1.34634">
        <ele>284</ele>
        <time>2017-10-01T11:31:04Z</time>
      </trkpt>
      <trkpt lat="43.41123" lon="1.3463">
        <ele>284</ele>
        <time>2017-10-01T11:31:04Z</time>
      </trkpt>
      <trkpt lat="43.41125" lon="1.34623">
        <ele>282</ele>
        <time>2017-10-01T11:31:04Z</time>
      </trkpt>
      <trkpt lat="43.41126" lon="1.34616">
        <ele>282</ele>
        <time>2017-10-01T11:31:20Z</time>
      </trkpt>
      <trkpt lat="43.41124" lon="1.34608">
        <ele>286</ele>
        <time>2017-10-01T11:31:20Z</time>
      </trkpt>
      <trkpt lat="43.41124" lon="1.34599">
        <ele>286</ele>
        <time>2017-10-01T11:31:20Z</time>
      </trkpt>
      <trkpt lat="43.41124" lon="1.34593">
        <ele>286</ele>
        <time>2017-10-01T11:31:20Z</time>
      </trkpt>
      <trkpt lat="43.41125" lon="1.34587">
        <ele>282</ele>
        <time>2017-10-01T11:31:36Z</time>
      </trkpt>
      <trkpt lat="43.41127" lon="1.34582">
        <ele>282</ele>
        <time>2017-10-01T11:31:36Z</time>
      </trkpt>
      <trkpt lat="43.41132" lon="1.34575">
        <ele>282</ele>
        <time>2017-10-01T11:31:36Z</time>
      </trkpt>
      <trkpt lat="43.41132" lon="1.34566">
        <ele>282</ele>
        <time>2017-10-01T11:31:36Z</time>
      </trkpt>
      <trkpt lat="43.41133" lon="1.3456">
        <ele>282</ele>
        <time>2017-10-01T11:31:53Z</time>
      </trkpt>
      <trkpt lat="43.41135" lon="1.34558">
        <ele>282</ele>
        <time>2017-10-01T11:31:53Z</time>
      </trkpt>
      <trkpt lat="43.41135" lon="1.34554">
        <ele>282</ele>
        <time>2017-10-01T11:31:53Z</time>
      </trkpt>
      <trkpt lat="43.41135" lon="1.34545">
        <ele>282</ele>
        <time>2017-10-01T11:31:53Z</time>
      </trkpt>
      <trkpt lat="43.4114" lon="1.3454">
        <ele>281</ele>
        <time>2017-10-01T11:32:08Z</time>
      </trkpt>
      <trkpt lat="43.41148" lon="1.3453">
        <ele>281</ele>
        <time>2017-10-01T11:32:08Z</time>
      </trkpt>
      <trkpt lat="43.41148" lon="1.34522">
        <ele>281</ele>
        <time>2017-10-01T11:32:08Z</time>
      </trkpt>
      <trkpt lat="43.41148" lon="1.34512">
        <ele>281</ele>
        <time>2017-10-01T11:32:08Z</time>
      </trkpt>
      <trkpt lat="43.41147" lon="1.34509">
        <ele>281</ele>
        <time>2017-10-01T11:32:24Z</time>
      </trkpt>
      <trkpt lat="43.41148" lon="1.34506">
        <ele>281</ele>
        <time>2017-10-01T11:32:24Z</time>
      </trkpt>
      <trkpt lat="43.41149" lon="1.34502">
        <ele>281</ele>
        <time>2017-10-01T11:32:24Z</time>
      </trkpt>
      <trkpt lat="43.4115" lon="1.34495">
        <ele>281</ele>
        <time>2017-10-01T11:32:24Z</time>
      </trkpt>
      <trkpt lat="43.41154" lon="1.34491">
        <ele>281</ele>
        <time>2017-10-01T11:32:40Z</time>
      </trkpt>
      <trkpt lat="43.41157" lon="1.34485">
        <ele>281</ele>
        <time>2017-10-01T11:32:40Z</time>
      </trkpt>
      <trkpt lat="43.41159" lon="1.3447">
        <ele>281</ele>
        <time>2017-10-01T11:32:40Z</time>
      </trkpt>
      <trkpt lat="43.41161" lon="1.34466">
        <ele>281</ele>
        <time>2017-10-01T11:32:40Z</time>
      </trkpt>
      <trkpt lat="43.41163" lon="1.34463">
        <ele>281</ele>
        <time>2017-10-01T11:32:56Z</time>
      </trkpt>
      <trkpt lat="43.41167" lon="1.34457">
        <ele>284</ele>
        <time>2017-10-01T11:32:56Z</time>
      </trkpt>
      <trkpt lat="43.4117" lon="1.34451">
        <ele>284</ele>
        <time>2017-10-01T11:32:56Z</time>
      </trkpt>
      <trkpt lat="43.41173" lon="1.34441">
        <ele>284</ele>
        <time>2017-10-01T11:32:56Z</time>
      </trkpt>
      <trkpt lat="43.41177" lon="1.34434">
        <ele>284</ele>
        <time>2017-10-01T11:33:13Z</time>
      </trkpt>
      <trkpt lat="43.41179" lon="1.3443">
        <ele>284</ele>
        <time>2017-10-01T11:33:13Z</time>
      </trkpt>
      <trkpt lat="43.41181" lon="1.34425">
        <ele>284</ele>
        <time>2017-10-01T11:33:13Z</time>
      </trkpt>
      <trkpt lat="43.41185" lon="1.34422">
        <ele>284</ele>
        <time>2017-10-01T11:33:13Z</time>
      </trkpt>
      <trkpt lat="43.41192" lon="1.34422">
        <ele>284</ele>
        <time>2017-10-01T11:33:28Z</time>
      </trkpt>
      <trkpt lat="43.41192" lon="1.34414">
        <ele>284</ele>
        <time>2017-10-01T11:33:28Z</time>
      </trkpt>
      <trkpt lat="43.41194" lon="1.3441">
        <ele>284</ele>
        <time>2017-10-01T11:33:28Z</time>
      </trkpt>
      <trkpt lat="43.41195" lon="1.34403">
        <ele>284</ele>
        <time>2017-10-01T11:33:28Z</time>
      </trkpt>
      <trkpt lat="43.41194" lon="1.34393">
        <ele>284</ele>
        <time>2017-10-01T11:33:45Z</time>
      </trkpt>
      <trkpt lat="43.41197" lon="1.34386">
        <ele>284</ele>
        <time>2017-10-01T11:33:45Z</time>
      </trkpt>
      <trkpt lat="43.41199" lon="1.34381">
        <ele>284</ele>
        <time>2017-10-01T11:33:45Z</time>
      </trkpt>
      <trkpt lat="43.41203" lon="1.34379">
        <ele>284</ele>
        <time>2017-10-01T11:33:45Z</time>
      </trkpt>
      <trkpt lat="43.41203" lon="1.34377">
        <ele>284</ele>
        <time>2017-10-01T11:34:00Z</time>
      </trkpt>
      <trkpt lat="43.41204" lon="1.34373">
        <ele>288</ele>
        <time>2017-10-01T11:34:00Z</time>
      </trkpt>
      <trkpt lat="43.41206" lon="1.34368">
        <ele>288</ele>
        <time>2017-10-01T11:34:00Z</time>
      </trkpt>
      <trkpt lat="43.41207" lon="1.34365">
        <ele>288</ele>
        <time>2017-10-01T11:34:00Z</time>
      </trkpt>
      <trkpt lat="43.41205" lon="1.34359">
        <ele>288</ele>
        <time>2017-10-01T11:34:16Z</time>
      </trkpt>
      <trkpt lat="43.41206" lon="1.34353">
        <ele>288</ele>
        <time>2017-10-01T11:34:16Z</time>
      </trkpt>
      <trkpt lat="43.41209" lon="1.34348">
        <ele>286</ele>
        <time>2017-10-01T11:34:16Z</time>
      </trkpt>
      <trkpt lat="43.41213" lon="1.34344">
        <ele>286</ele>
        <time>2017-10-01T11:34:16Z</time>
      </trkpt>
      <trkpt lat="43.41218" lon="1.34342">
        <ele>286</ele>
        <time>2017-10-01T11:34:33Z</time>
      </trkpt>
      <trkpt lat="43.41221" lon="1.34342">
        <ele>286</ele>
        <time>2017-10-01T11:34:33Z</time>
      </trkpt>
      <trkpt lat="43.41226" lon="1.34345">
        <ele>286</ele>
        <time>2017-10-01T11:34:33Z</time>
      </trkpt>
      <trkpt lat="43.41232" lon="1.34348">
        <ele>286</ele>
        <time>2017-10-01T11:34:33Z</time>
      </trkpt>
      <trkpt lat="43.41235" lon="1.34351">
        <ele>286</ele>
        <time>2017-10-01T11:34:48Z</time>
      </trkpt>
      <trkpt lat="43.4124" lon="1.34356">
        <ele>286</ele>
        <time>2017-10-01T11:34:48Z</time>
      </trkpt>
      <trkpt lat="43.41246" lon="1.34363">
        <ele>286</ele>
        <time>2017-10-01T11:34:48Z</time>
      </trkpt>
      <trkpt lat="43.41249" lon="1.3437">
        <ele>286</ele>
        <time>2017-10-01T11:34:48Z</time>
      </trkpt>
      <trkpt lat="43.41256" lon="1.34376">
        <ele>279</ele>
        <time>2017-10-01T11:35:05Z</time>
      </trkpt>
      <trkpt lat="43.41259" lon="1.34381">
        <ele>279</ele>
        <time>2017-10-01T11:35:05Z</time>
      </trkpt>
      <trkpt lat="43.41264" lon="1.34386">
        <ele>279</ele>
        <time>2017-10-01T11:35:05Z</time>
      </trkpt>
      <trkpt lat="43.4127" lon="1.34391">
        <ele>279</ele>
        <time>2017-10-01T11:35:05Z</time>
      </trkpt>
      <trkpt lat="43.41273" lon="1.34393">
        <ele>279</ele>
        <time>2017-10-01T11:35:20Z</time>
      </trkpt>
      <trkpt lat="43.41276" lon="1.34396">
        <ele>279</ele>
        <time>2017-10-01T11:35:20Z</time>
      </trkpt>
      <trkpt lat="43.41282" lon="1.34399">
        <ele>279</ele>
        <time>2017-10-01T11:35:20Z</time>
      </trkpt>
      <trkpt lat="43.41284" lon="1.34402">
        <ele>279</ele>
        <time>2017-10-01T11:35:20Z</time>
      </trkpt>
      <trkpt lat="43.41287" lon="1.34407">
        <ele>279</ele>
        <time>2017-10-01T11:35:37Z</time>
      </trkpt>
      <trkpt lat="43.41292" lon="1.34413">
        <ele>281</ele>
        <time>2017-10-01T11:35:37Z</time>
      </trkpt>
      <trkpt lat="43.41296" lon="1.34419">
        <ele>281</ele>
        <time>2017-10-01T11:35:37Z</time>
      </trkpt>
      <trkpt lat="43.413" lon="1.34423">
        <ele>281</ele>
        <time>2017-10-01T11:35:37Z</time>
      </trkpt>
      <trkpt lat="43.41308" lon="1.34428">
        <ele>281</ele>
        <time>2017-10-01T11:36:04Z</time>
      </trkpt>
      <trkpt lat="43.41308" lon="1.3443">
        <ele>281</ele>
        <time>2017-10-01T11:36:04Z</time>
      </trkpt>
      <trkpt lat="43.41309" lon="1.3443">
        <ele>281</ele>
        <time>2017-10-01T11:36:04Z</time>
      </trkpt>
      <trkpt lat="43.4131" lon="1.34431">
        <ele>281</ele>
        <time>2017-10-01T11:36:04Z</time>
      </trkpt>
      <trkpt lat="43.41311" lon="1.34432">
        <ele>281</ele>
        <time>2017-10-01T11:36:04Z</time>
      </trkpt>
      <trkpt lat="43.41317" lon="1.34437">
        <ele>281</ele>
        <time>2017-10-01T11:36:20Z</time>
      </trkpt>
      <trkpt lat="43.4132" lon="1.34441">
        <ele>281</ele>
        <time>2017-10-01T11:36:20Z</time>
      </trkpt>
      <trkpt lat="43.41323" lon="1.34445">
        <ele>281</ele>
        <time>2017-10-01T11:36:20Z</time>
      </trkpt>
      <trkpt lat="43.4133" lon="1.34449">
        <ele>281</ele>
        <time>2017-10-01T11:36:20Z</time>
      </trkpt>
      <trkpt lat="43.41333" lon="1.34451">
        <ele>281</ele>
        <time>2017-10-01T11:36:36Z</time>
      </trkpt>
      <trkpt lat="43.41337" lon="1.34453">
        <ele>281</ele>
        <time>2017-10-01T11:36:36Z</time>
      </trkpt>
      <trkpt lat="43.4134" lon="1.34457">
        <ele>281</ele>
        <time>2017-10-01T11:36:36Z</time>
      </trkpt>
      <trkpt lat="43.41342" lon="1.34458">
        <ele>281</ele>
        <time>2017-10-01T11:36:36Z</time>
      </trkpt>
      <trkpt lat="43.41345" lon="1.34462">
        <ele>282</ele>
        <time>2017-10-01T11:36:52Z</time>
      </trkpt>
      <trkpt lat="43.41349" lon="1.34468">
        <ele>282</ele>
        <time>2017-10-01T11:36:52Z</time>
      </trkpt>
      <trkpt lat="43.4135" lon="1.34471">
        <ele>282</ele>
        <time>2017-10-01T11:36:52Z</time>
      </trkpt>
      <trkpt lat="43.41355" lon="1.34475">
        <ele>282</ele>
        <time>2017-10-01T11:36:52Z</time>
      </trkpt>
      <trkpt lat="43.41359" lon="1.3448">
        <ele>282</ele>
        <time>2017-10-01T11:37:08Z</time>
      </trkpt>
      <trkpt lat="43.41364" lon="1.34483">
        <ele>282</ele>
        <time>2017-10-01T11:37:08Z</time>
      </trkpt>
      <trkpt lat="43.41368" lon="1.34487">
        <ele>282</ele>
        <time>2017-10-01T11:37:08Z</time>
      </trkpt>
      <trkpt lat="43.41373" lon="1.34491">
        <ele>282</ele>
        <time>2017-10-01T11:37:08Z</time>
      </trkpt>
      <trkpt lat="43.41379" lon="1.34497">
        <ele>278</ele>
        <time>2017-10-01T11:37:24Z</time>
      </trkpt>
      <trkpt lat="43.41383" lon="1.34498">
        <ele>278</ele>
        <time>2017-10-01T11:37:24Z</time>
      </trkpt>
      <trkpt lat="43.41389" lon="1.34501">
        <ele>278</ele>
        <time>2017-10-01T11:37:24Z</time>
      </trkpt>
      <trkpt lat="43.41395" lon="1.34507">
        <ele>278</ele>
        <time>2017-10-01T11:37:24Z</time>
      </trkpt>
      <trkpt lat="43.41397" lon="1.34514">
        <ele>278</ele>
        <time>2017-10-01T11:39:04Z</time>
      </trkpt>
      <trkpt lat="43.41407" lon="1.34514">
        <ele>278</ele>
        <time>2017-10-01T11:39:05Z</time>
      </trkpt>
      <trkpt lat="43.41413" lon="1.34516">
        <ele>278</ele>
        <time>2017-10-01T11:39:05Z</time>
      </trkpt>
      <trkpt lat="43.41417" lon="1.34519">
        <ele>278</ele>
        <time>2017-10-01T11:39:05Z</time>
      </trkpt>
      <trkpt lat="43.4142" lon="1.34521">
        <ele>278</ele>
        <time>2017-10-01T11:39:05Z</time>
      </trkpt>
      <trkpt lat="43.41425" lon="1.34521">
        <ele>278</ele>
        <time>2017-10-01T11:39:20Z</time>
      </trkpt>
      <trkpt lat="43.4143" lon="1.34525">
        <ele>278</ele>
        <time>2017-10-01T11:39:20Z</time>
      </trkpt>
      <trkpt lat="43.41434" lon="1.34531">
        <ele>278</ele>
        <time>2017-10-01T11:39:20Z</time>
      </trkpt>
      <trkpt lat="43.41438" lon="1.34532">
        <ele>278</ele>
        <time>2017-10-01T11:39:20Z</time>
      </trkpt>
      <trkpt lat="43.41444" lon="1.34535">
        <ele>278</ele>
        <time>2017-10-01T11:39:36Z</time>
      </trkpt>
      <trkpt lat="43.41449" lon="1.34538">
        <ele>278</ele>
        <time>2017-10-01T11:39:36Z</time>
      </trkpt>
      <trkpt lat="43.41453" lon="1.34539">
        <ele>278</ele>
        <time>2017-10-01T11:39:36Z</time>
      </trkpt>
      <trkpt lat="43.41456" lon="1.34541">
        <ele>278</ele>
        <time>2017-10-01T11:39:36Z</time>
      </trkpt>
      <trkpt lat="43.41463" lon="1.34539">
        <ele>272</ele>
        <time>2017-10-01T11:39:52Z</time>
      </trkpt>
      <trkpt lat="43.41472" lon="1.3454">
        <ele>272</ele>
        <time>2017-10-01T11:39:52Z</time>
      </trkpt>
      <trkpt lat="43.41476" lon="1.34542">
        <ele>277</ele>
        <time>2017-10-01T11:39:52Z</time>
      </trkpt>
      <trkpt lat="43.41478" lon="1.34545">
        <ele>277</ele>
        <time>2017-10-01T11:39:52Z</time>
      </trkpt>
      <trkpt lat="43.41486" lon="1.34547">
        <ele>277</ele>
        <time>2017-10-01T11:40:08Z</time>
      </trkpt>
      <trkpt lat="43.41491" lon="1.34546">
        <ele>277</ele>
        <time>2017-10-01T11:40:08Z</time>
      </trkpt>
      <trkpt lat="43.41496" lon="1.34549">
        <ele>277</ele>
        <time>2017-10-01T11:40:08Z</time>
      </trkpt>
      <trkpt lat="43.41496" lon="1.3455">
        <ele>277</ele>
        <time>2017-10-01T11:40:08Z</time>
      </trkpt>
      <trkpt lat="43.41496" lon="1.34553">
        <ele>277</ele>
        <time>2017-10-01T11:40:24Z</time>
      </trkpt>
      <trkpt lat="43.415" lon="1.34558">
        <ele>277</ele>
        <time>2017-10-01T11:40:24Z</time>
      </trkpt>
      <trkpt lat="43.41504" lon="1.3456">
        <ele>277</ele>
        <time>2017-10-01T11:40:24Z</time>
      </trkpt>
      <trkpt lat="43.4151" lon="1.34563">
        <ele>277</ele>
        <time>2017-10-01T11:40:24Z</time>
      </trkpt>
      <trkpt lat="43.41516" lon="1.34564">
        <ele>277</ele>
        <time>2017-10-01T11:40:41Z</time>
      </trkpt>
      <trkpt lat="43.4152" lon="1.34564">
        <ele>277</ele>
        <time>2017-10-01T11:40:41Z</time>
      </trkpt>
      <trkpt lat="43.41526" lon="1.34564">
        <ele>277</ele>
        <time>2017-10-01T11:40:41Z</time>
      </trkpt>
      <trkpt lat="43.41533" lon="1.34567">
        <ele>277</ele>
        <time>2017-10-01T11:40:41Z</time>
      </trkpt>
      <trkpt lat="43.41536" lon="1.34571">
        <ele>277</ele>
        <time>2017-10-01T11:41:01Z</time>
      </trkpt>
      <trkpt lat="43.41538" lon="1.34572">
        <ele>277</ele>
        <time>2017-10-01T11:41:01Z</time>
      </trkpt>
      <trkpt lat="43.41541" lon="1.34573">
        <ele>277</ele>
        <time>2017-10-01T11:41:01Z</time>
      </trkpt>
      <trkpt lat="43.41544" lon="1.34573">
        <ele>272</ele>
        <time>2017-10-01T11:41:01Z</time>
      </trkpt>
      <trkpt lat="43.41549" lon="1.34576">
        <ele>272</ele>
        <time>2017-10-01T11:41:01Z</time>
      </trkpt>
      <trkpt lat="43.41552" lon="1.34577">
        <ele>272</ele>
        <time>2017-10-01T11:41:16Z</time>
      </trkpt>
      <trkpt lat="43.41558" lon="1.34578">
        <ele>272</ele>
        <time>2017-10-01T11:41:16Z</time>
      </trkpt>
      <trkpt lat="43.41563" lon="1.3458">
        <ele>272</ele>
        <time>2017-10-01T11:41:16Z</time>
      </trkpt>
      <trkpt lat="43.41568" lon="1.34581">
        <ele>272</ele>
        <time>2017-10-01T11:41:16Z</time>
      </trkpt>
      <trkpt lat="43.41572" lon="1.34583">
        <ele>272</ele>
        <time>2017-10-01T11:41:32Z</time>
      </trkpt>
      <trkpt lat="43.41579" lon="1.34587">
        <ele>272</ele>
        <time>2017-10-01T11:41:32Z</time>
      </trkpt>
      <trkpt lat="43.41581" lon="1.34591">
        <ele>272</ele>
        <time>2017-10-01T11:41:32Z</time>
      </trkpt>
      <trkpt lat="43.41583" lon="1.34595">
        <ele>272</ele>
        <time>2017-10-01T11:41:32Z</time>
      </trkpt>
      <trkpt lat="43.41586" lon="1.34598">
        <ele>272</ele>
        <time>2017-10-01T11:41:48Z</time>
      </trkpt>
      <trkpt lat="43.41589" lon="1.346">
        <ele>272</ele>
        <time>2017-10-01T11:41:48Z</time>
      </trkpt>
      <trkpt lat="43.41593" lon="1.34604">
        <ele>272</ele>
        <time>2017-10-01T11:41:48Z</time>
      </trkpt>
      <trkpt lat="43.41596" lon="1.34608">
        <ele>272</ele>
        <time>2017-10-01T11:41:48Z</time>
      </trkpt>
      <trkpt lat="43.416" lon="1.34614">
        <ele>272</ele>
        <time>2017-10-01T11:42:05Z</time>
      </trkpt>
      <trkpt lat="43.41603" lon="1.34617">
        <ele>272</ele>
        <time>2017-10-01T11:42:05Z</time>
      </trkpt>
      <trkpt lat="43.41608" lon="1.3462">
        <ele>272</ele>
        <time>2017-10-01T11:42:05Z</time>
      </trkpt>
      <trkpt lat="43.41616" lon="1.34618">
        <ele>272</ele>
        <time>2017-10-01T11:42:05Z</time>
      </trkpt>
      <trkpt lat="43.4162" lon="1.34621">
        <ele>272</ele>
        <time>2017-10-01T11:42:20Z</time>
      </trkpt>
      <trkpt lat="43.41625" lon="1.34625">
        <ele>272</ele>
        <time>2017-10-01T11:42:20Z</time>
      </trkpt>
      <trkpt lat="43.4163" lon="1.34631">
        <ele>262</ele>
        <time>2017-10-01T11:42:20Z</time>
      </trkpt>
      <trkpt lat="43.41632" lon="1.34634">
        <ele>262</ele>
        <time>2017-10-01T11:42:20Z</time>
      </trkpt>
      <trkpt lat="43.41636" lon="1.34639">
        <ele>262</ele>
        <time>2017-10-01T11:42:36Z</time>
      </trkpt>
      <trkpt lat="43.4164" lon="1.34645">
        <ele>262</ele>
        <time>2017-10-01T11:42:36Z</time>
      </trkpt>
      <trkpt lat="43.41641" lon="1.34647">
        <ele>262</ele>
        <time>2017-10-01T11:42:36Z</time>
      </trkpt>
      <trkpt lat="43.41644" lon="1.34652">
        <ele>262</ele>
        <time>2017-10-01T11:42:36Z</time>
      </trkpt>
      <trkpt lat="43.41649" lon="1.34658">
        <ele>262</ele>
        <time>2017-10-01T11:42:53Z</time>
      </trkpt>
      <trkpt lat="43.4165" lon="1.34664">
        <ele>262</ele>
        <time>2017-10-01T11:42:53Z</time>
      </trkpt>
      <trkpt lat="43.41651" lon="1.34666">
        <ele>262</ele>
        <time>2017-10-01T11:42:53Z</time>
      </trkpt>
      <trkpt lat="43.41655" lon="1.34673">
        <ele>262</ele>
        <time>2017-10-01T11:42:53Z</time>
      </trkpt>
      <trkpt lat="43.41657" lon="1.34677">
        <ele>262</ele>
        <time>2017-10-01T11:43:08Z</time>
      </trkpt>
      <trkpt lat="43.4166" lon="1.34683">
        <ele>262</ele>
        <time>2017-10-01T11:43:08Z</time>
      </trkpt>
      <trkpt lat="43.41661" lon="1.34687">
        <ele>262</ele>
        <time>2017-10-01T11:43:08Z</time>
      </trkpt>
      <trkpt lat="43.41664" lon="1.34693">
        <ele>262</ele>
        <time>2017-10-01T11:43:08Z</time>
      </trkpt>
      <trkpt lat="43.41667" lon="1.347">
        <ele>262</ele>
        <time>2017-10-01T11:43:25Z</time>
      </trkpt>
      <trkpt lat="43.4167" lon="1.34705">
        <ele>262</ele>
        <time>2017-10-01T11:43:25Z</time>
      </trkpt>
      <trkpt lat="43.41674" lon="1.34709">
        <ele>260</ele>
        <time>2017-10-01T11:43:25Z</time>
      </trkpt>
      <trkpt lat="43.41677" lon="1.34714">
        <ele>260</ele>
        <time>2017-10-01T11:43:25Z</time>
      </trkpt>
      <trkpt lat="43.4168" lon="1.34718">
        <ele>260</ele>
        <time>2017-10-01T11:43:40Z</time>
      </trkpt>
      <trkpt lat="43.41684" lon="1.34722">
        <ele>260</ele>
        <time>2017-10-01T11:43:40Z</time>
      </trkpt>
      <trkpt lat="43.41691" lon="1.34724">
        <ele>260</ele>
        <time>2017-10-01T11:43:40Z</time>
      </trkpt>
      <trkpt lat="43.41695" lon="1.34723">
        <ele>260</ele>
        <time>2017-10-01T11:43:40Z</time>
      </trkpt>
      <trkpt lat="43.41704" lon="1.34717">
        <ele>260</ele>
        <time>2017-10-01T11:43:57Z</time>
      </trkpt>
      <trkpt lat="43.41706" lon="1.34712">
        <ele>260</ele>
        <time>2017-10-01T11:43:57Z</time>
      </trkpt>
      <trkpt lat="43.41708" lon="1.34707">
        <ele>262</ele>
        <time>2017-10-01T11:43:57Z</time>
      </trkpt>
      <trkpt lat="43.4171" lon="1.34699">
        <ele>257</ele>
        <time>2017-10-01T11:43:57Z</time>
      </trkpt>
      <trkpt lat="43.41711" lon="1.34694">
        <ele>257</ele>
        <time>2017-10-01T11:44:12Z</time>
      </trkpt>
      <trkpt lat="43.41712" lon="1.34684">
        <ele>257</ele>
        <time>2017-10-01T11:44:12Z</time>
      </trkpt>
      <trkpt lat="43.41712" lon="1.3467">
        <ele>257</ele>
        <time>2017-10-01T11:44:12Z</time>
      </trkpt>
      <trkpt lat="43.41715" lon="1.34669">
        <ele>257</ele>
        <time>2017-10-01T11:44:12Z</time>
      </trkpt>
      <trkpt lat="43.41717" lon="1.34668">
        <ele>257</ele>
        <time>2017-10-01T11:44:29Z</time>
      </trkpt>
      <trkpt lat="43.41719" lon="1.3466">
        <ele>257</ele>
        <time>2017-10-01T11:44:29Z</time>
      </trkpt>
      <trkpt lat="43.41724" lon="1.34655">
        <ele>257</ele>
        <time>2017-10-01T11:44:29Z</time>
      </trkpt>
      <trkpt lat="43.41729" lon="1.34646">
        <ele>257</ele>
        <time>2017-10-01T11:44:29Z</time>
      </trkpt>
      <trkpt lat="43.41733" lon="1.34643">
        <ele>257</ele>
        <time>2017-10-01T11:44:44Z</time>
      </trkpt>
      <trkpt lat="43.41737" lon="1.34641">
        <ele>257</ele>
        <time>2017-10-01T11:44:44Z</time>
      </trkpt>
      <trkpt lat="43.41741" lon="1.34639">
        <ele>257</ele>
        <time>2017-10-01T11:44:44Z</time>
      </trkpt>
      <trkpt lat="43.41741" lon="1.34635">
        <ele>257</ele>
        <time>2017-10-01T11:44:44Z</time>
      </trkpt>
      <trkpt lat="43.4174" lon="1.34628">
        <ele>257</ele>
        <time>2017-10-01T11:45:00Z</time>
      </trkpt>
      <trkpt lat="43.41743" lon="1.3462">
        <ele>255</ele>
        <time>2017-10-01T11:45:00Z</time>
      </trkpt>
      <trkpt lat="43.41744" lon="1.34614">
        <ele>255</ele>
        <time>2017-10-01T11:45:00Z</time>
      </trkpt>
      <trkpt lat="43.41744" lon="1.34604">
        <ele>255</ele>
        <time>2017-10-01T11:45:00Z</time>
      </trkpt>
      <trkpt lat="43.41746" lon="1.34587">
        <ele>255</ele>
        <time>2017-10-01T11:45:17Z</time>
      </trkpt>
      <trkpt lat="43.41744" lon="1.34579">
        <ele>255</ele>
        <time>2017-10-01T11:45:17Z</time>
      </trkpt>
      <trkpt lat="43.41747" lon="1.34574">
        <ele>255</ele>
        <time>2017-10-01T11:45:17Z</time>
      </trkpt>
      <trkpt lat="43.41754" lon="1.34569">
        <ele>255</ele>
        <time>2017-10-01T11:45:17Z</time>
      </trkpt>
      <trkpt lat="43.41753" lon="1.34565">
        <ele>255</ele>
        <time>2017-10-01T11:45:36Z</time>
      </trkpt>
      <trkpt lat="43.41752" lon="1.34563">
        <ele>255</ele>
        <time>2017-10-01T11:45:36Z</time>
      </trkpt>
      <trkpt lat="43.41754" lon="1.34562">
        <ele>255</ele>
        <time>2017-10-01T11:45:36Z</time>
      </trkpt>
      <trkpt lat="43.4176" lon="1.34561">
        <ele>255</ele>
        <time>2017-10-01T11:45:36Z</time>
      </trkpt>
      <trkpt lat="43.41763" lon="1.34555">
        <ele>255</ele>
        <time>2017-10-01T11:45:36Z</time>
      </trkpt>
      <trkpt lat="43.41775" lon="1.34553">
        <ele>255</ele>
        <time>2017-10-01T11:45:52Z</time>
      </trkpt>
      <trkpt lat="43.41782" lon="1.34548">
        <ele>255</ele>
        <time>2017-10-01T11:45:52Z</time>
      </trkpt>
      <trkpt lat="43.4178" lon="1.34533">
        <ele>251</ele>
        <time>2017-10-01T11:45:52Z</time>
      </trkpt>
      <trkpt lat="43.41782" lon="1.34527">
        <ele>251</ele>
        <time>2017-10-01T11:45:52Z</time>
      </trkpt>
      <trkpt lat="43.41786" lon="1.34523">
        <ele>251</ele>
        <time>2017-10-01T11:46:09Z</time>
      </trkpt>
      <trkpt lat="43.4179" lon="1.34521">
        <ele>251</ele>
        <time>2017-10-01T11:46:09Z</time>
      </trkpt>
      <trkpt lat="43.41793" lon="1.34516">
        <ele>242</ele>
        <time>2017-10-01T11:46:09Z</time>
      </trkpt>
      <trkpt lat="43.418" lon="1.34509">
        <ele>242</ele>
        <time>2017-10-01T11:46:09Z</time>
      </trkpt>
      <trkpt lat="43.41802" lon="1.34504">
        <ele>242</ele>
        <time>2017-10-01T11:46:28Z</time>
      </trkpt>
      <trkpt lat="43.41805" lon="1.34506">
        <ele>242</ele>
        <time>2017-10-01T11:46:28Z</time>
      </trkpt>
      <trkpt lat="43.41807" lon="1.34505">
        <ele>242</ele>
        <time>2017-10-01T11:46:28Z</time>
      </trkpt>
      <trkpt lat="43.41809" lon="1.34502">
        <ele>242</ele>
        <time>2017-10-01T11:46:28Z</time>
      </trkpt>
      <trkpt lat="43.41813" lon="1.34496">
        <ele>242</ele>
        <time>2017-10-01T11:46:28Z</time>
      </trkpt>
      <trkpt lat="43.41817" lon="1.34486">
        <ele>242</ele>
        <time>2017-10-01T11:46:45Z</time>
      </trkpt>
      <trkpt lat="43.41817" lon="1.34479">
        <ele>242</ele>
        <time>2017-10-01T11:46:45Z</time>
      </trkpt>
      <trkpt lat="43.41813" lon="1.34468">
        <ele>242</ele>
        <time>2017-10-01T11:46:45Z</time>
      </trkpt>
      <trkpt lat="43.41805" lon="1.34455">
        <ele>236</ele>
        <time>2017-10-01T11:46:45Z</time>
      </trkpt>
      <trkpt lat="43.41801" lon="1.34448">
        <ele>236</ele>
        <time>2017-10-01T11:47:00Z</time>
      </trkpt>
      <trkpt lat="43.41795" lon="1.34441">
        <ele>236</ele>
        <time>2017-10-01T11:47:00Z</time>
      </trkpt>
      <trkpt lat="43.41792" lon="1.34437">
        <ele>236</ele>
        <time>2017-10-01T11:47:00Z</time>
      </trkpt>
      <trkpt lat="43.41789" lon="1.34437">
        <ele>248</ele>
        <time>2017-10-01T11:47:00Z</time>
      </trkpt>
      <trkpt lat="43.41784" lon="1.34432">
        <ele>248</ele>
        <time>2017-10-01T11:47:17Z</time>
      </trkpt>
      <trkpt lat="43.41781" lon="1.3443">
        <ele>248</ele>
        <time>2017-10-01T11:47:17Z</time>
      </trkpt>
      <trkpt lat="43.41779" lon="1.34425">
        <ele>248</ele>
        <time>2017-10-01T11:47:17Z</time>
      </trkpt>
      <trkpt lat="43.41777" lon="1.34419">
        <ele>248</ele>
        <time>2017-10-01T11:47:17Z</time>
      </trkpt>
      <trkpt lat="43.41777" lon="1.34414">
        <ele>248</ele>
        <time>2017-10-01T11:47:32Z</time>
      </trkpt>
      <trkpt lat="43.41775" lon="1.34412">
        <ele>248</ele>
        <time>2017-10-01T11:47:32Z</time>
      </trkpt>
      <trkpt lat="43.4177" lon="1.3441">
        <ele>248</ele>
        <time>2017-10-01T11:47:32Z</time>
      </trkpt>
      <trkpt lat="43.41767" lon="1.34408">
        <ele>248</ele>
        <time>2017-10-01T11:47:32Z</time>
      </trkpt>
      <trkpt lat="43.41764" lon="1.34404">
        <ele>248</ele>
        <time>2017-10-01T11:47:49Z</time>
      </trkpt>
      <trkpt lat="43.4176" lon="1.344">
        <ele>248</ele>
        <time>2017-10-01T11:47:49Z</time>
      </trkpt>
      <trkpt lat="43.41757" lon="1.34399">
        <ele>248</ele>
        <time>2017-10-01T11:47:49Z</time>
      </trkpt>
      <trkpt lat="43.41754" lon="1.34394">
        <ele>248</ele>
        <time>2017-10-01T11:47:49Z</time>
      </trkpt>
      <trkpt lat="43.41751" lon="1.3439">
        <ele>248</ele>
        <time>2017-10-01T11:48:04Z</time>
      </trkpt>
      <trkpt lat="43.41747" lon="1.34387">
        <ele>248</ele>
        <time>2017-10-01T11:48:04Z</time>
      </trkpt>
      <trkpt lat="43.4174" lon="1.34383">
        <ele>248</ele>
        <time>2017-10-01T11:48:04Z</time>
      </trkpt>
      <trkpt lat="43.41736" lon="1.3438">
        <ele>248</ele>
        <time>2017-10-01T11:48:04Z</time>
      </trkpt>
      <trkpt lat="43.41731" lon="1.34373">
        <ele>240</ele>
        <time>2017-10-01T11:48:21Z</time>
      </trkpt>
      <trkpt lat="43.41728" lon="1.3437">
        <ele>240</ele>
        <time>2017-10-01T11:48:21Z</time>
      </trkpt>
      <trkpt lat="43.41723" lon="1.34367">
        <ele>240</ele>
        <time>2017-10-01T11:48:21Z</time>
      </trkpt>
      <trkpt lat="43.41717" lon="1.34361">
        <ele>240</ele>
        <time>2017-10-01T11:48:21Z</time>
      </trkpt>
      <trkpt lat="43.41714" lon="1.34359">
        <ele>240</ele>
        <time>2017-10-01T11:48:36Z</time>
      </trkpt>
      <trkpt lat="43.41711" lon="1.34357">
        <ele>240</ele>
        <time>2017-10-01T11:48:36Z</time>
      </trkpt>
      <trkpt lat="43.41706" lon="1.34355">
        <ele>249</ele>
        <time>2017-10-01T11:48:36Z</time>
      </trkpt>
      <trkpt lat="43.41705" lon="1.34353">
        <ele>249</ele>
        <time>2017-10-01T11:48:36Z</time>
      </trkpt>
      <trkpt lat="43.41702" lon="1.34349">
        <ele>249</ele>
        <time>2017-10-01T11:48:52Z</time>
      </trkpt>
      <trkpt lat="43.41699" lon="1.34346">
        <ele>249</ele>
        <time>2017-10-01T11:48:52Z</time>
      </trkpt>
      <trkpt lat="43.41695" lon="1.34342">
        <ele>249</ele>
        <time>2017-10-01T11:48:52Z</time>
      </trkpt>
      <trkpt lat="43.41693" lon="1.34338">
        <ele>249</ele>
        <time>2017-10-01T11:48:52Z</time>
      </trkpt>
      <trkpt lat="43.41687" lon="1.34334">
        <ele>249</ele>
        <time>2017-10-01T11:49:08Z</time>
      </trkpt>
      <trkpt lat="43.41684" lon="1.3433">
        <ele>249</ele>
        <time>2017-10-01T11:49:08Z</time>
      </trkpt>
      <trkpt lat="43.41679" lon="1.34323">
        <ele>249</ele>
        <time>2017-10-01T11:49:08Z</time>
      </trkpt>
      <trkpt lat="43.41676" lon="1.34316">
        <ele>249</ele>
        <time>2017-10-01T11:49:08Z</time>
      </trkpt>
      <trkpt lat="43.41674" lon="1.34308">
        <ele>249</ele>
        <time>2017-10-01T11:49:24Z</time>
      </trkpt>
      <trkpt lat="43.41672" lon="1.34302">
        <ele>249</ele>
        <time>2017-10-01T11:49:24Z</time>
      </trkpt>
      <trkpt lat="43.4167" lon="1.34296">
        <ele>249</ele>
        <time>2017-10-01T11:49:24Z</time>
      </trkpt>
      <trkpt lat="43.41667" lon="1.34286">
        <ele>241</ele>
        <time>2017-10-01T11:49:24Z</time>
      </trkpt>
      <trkpt lat="43.41662" lon="1.34274">
        <ele>241</ele>
        <time>2017-10-01T11:49:41Z</time>
      </trkpt>
      <trkpt lat="43.41659" lon="1.34271">
        <ele>241</ele>
        <time>2017-10-01T11:49:41Z</time>
      </trkpt>
      <trkpt lat="43.41656" lon="1.3427">
        <ele>241</ele>
        <time>2017-10-01T11:49:41Z</time>
      </trkpt>
      <trkpt lat="43.41653" lon="1.34265">
        <ele>241</ele>
        <time>2017-10-01T11:49:41Z</time>
      </trkpt>
      <trkpt lat="43.41651" lon="1.34261">
        <ele>241</ele>
        <time>2017-10-01T11:49:56Z</time>
      </trkpt>
      <trkpt lat="43.41649" lon="1.34257">
        <ele>241</ele>
        <time>2017-10-01T11:49:56Z</time>
      </trkpt>
      <trkpt lat="43.41648" lon="1.34251">
        <ele>241</ele>
        <time>2017-10-01T11:49:56Z</time>
      </trkpt>
      <trkpt lat="43.41647" lon="1.34248">
        <ele>241</ele>
        <time>2017-10-01T11:49:56Z</time>
      </trkpt>
      <trkpt lat="43.41643" lon="1.34242">
        <ele>241</ele>
        <time>2017-10-01T11:50:13Z</time>
      </trkpt>
      <trkpt lat="43.41642" lon="1.34239">
        <ele>241</ele>
        <time>2017-10-01T11:50:13Z</time>
      </trkpt>
      <trkpt lat="43.41639" lon="1.34234">
        <ele>241</ele>
        <time>2017-10-01T11:50:13Z</time>
      </trkpt>
      <trkpt lat="43.41634" lon="1.34228">
        <ele>241</ele>
        <time>2017-10-01T11:50:13Z</time>
      </trkpt>
      <trkpt lat="43.41631" lon="1.34225">
        <ele>241</ele>
        <time>2017-10-01T11:50:28Z</time>
      </trkpt>
      <trkpt lat="43.41627" lon="1.34219">
        <ele>241</ele>
        <time>2017-10-01T11:50:28Z</time>
      </trkpt>
      <trkpt lat="43.41619" lon="1.34211">
        <ele>245</ele>
        <time>2017-10-01T11:50:28Z</time>
      </trkpt>
      <trkpt lat="43.41616" lon="1.34206">
        <ele>244</ele>
        <time>2017-10-01T11:50:28Z</time>
      </trkpt>
      <trkpt lat="43.41613" lon="1.342">
        <ele>244</ele>
        <time>2017-10-01T11:50:44Z</time>
      </trkpt>
      <trkpt lat="43.41615" lon="1.34195">
        <ele>244</ele>
        <time>2017-10-01T11:50:44Z</time>
      </trkpt>
      <trkpt lat="43.4162" lon="1.34193">
        <ele>244</ele>
        <time>2017-10-01T11:50:44Z</time>
      </trkpt>
      <trkpt lat="43.41627" lon="1.34189">
        <ele>233</ele>
        <time>2017-10-01T11:50:44Z</time>
      </trkpt>
      <trkpt lat="43.41639" lon="1.34174">
        <ele>233</ele>
        <time>2017-10-01T11:51:16Z</time>
      </trkpt>
      <trkpt lat="43.4164" lon="1.34168">
        <ele>233</ele>
        <time>2017-10-01T11:51:16Z</time>
      </trkpt>
      <trkpt lat="43.41642" lon="1.34164">
        <ele>233</ele>
        <time>2017-10-01T11:51:16Z</time>
      </trkpt>
      <trkpt lat="43.41643" lon="1.3416">
        <ele>233</ele>
        <time>2017-10-01T11:51:16Z</time>
      </trkpt>
      <trkpt lat="43.41645" lon="1.34154">
        <ele>233</ele>
        <time>2017-10-01T11:51:16Z</time>
      </trkpt>
      <trkpt lat="43.41649" lon="1.34142">
        <ele>233</ele>
        <time>2017-10-01T11:51:33Z</time>
      </trkpt>
      <trkpt lat="43.41645" lon="1.34137">
        <ele>233</ele>
        <time>2017-10-01T11:51:33Z</time>
      </trkpt>
      <trkpt lat="43.41641" lon="1.34131">
        <ele>233</ele>
        <time>2017-10-01T11:51:33Z</time>
      </trkpt>
      <trkpt lat="43.4164" lon="1.34125">
        <ele>233</ele>
        <time>2017-10-01T11:51:33Z</time>
      </trkpt>
      <trkpt lat="43.41641" lon="1.34122">
        <ele>225</ele>
        <time>2017-10-01T11:51:48Z</time>
      </trkpt>
      <trkpt lat="43.41647" lon="1.34122">
        <ele>225</ele>
        <time>2017-10-01T11:51:48Z</time>
      </trkpt>
      <trkpt lat="43.41652" lon="1.34127">
        <ele>233</ele>
        <time>2017-10-01T11:51:48Z</time>
      </trkpt>
      <trkpt lat="43.41654" lon="1.34124">
        <ele>225</ele>
        <time>2017-10-01T11:51:48Z</time>
      </trkpt>
      <trkpt lat="43.41658" lon="1.34122">
        <ele>225</ele>
        <time>2017-10-01T11:52:05Z</time>
      </trkpt>
      <trkpt lat="43.41657" lon="1.34116">
        <ele>225</ele>
        <time>2017-10-01T11:52:05Z</time>
      </trkpt>
      <trkpt lat="43.41654" lon="1.34115">
        <ele>225</ele>
        <time>2017-10-01T11:52:05Z</time>
      </trkpt>
      <trkpt lat="43.41651" lon="1.34111">
        <ele>225</ele>
        <time>2017-10-01T11:52:05Z</time>
      </trkpt>
      <trkpt lat="43.41649" lon="1.34105">
        <ele>225</ele>
        <time>2017-10-01T11:52:20Z</time>
      </trkpt>
      <trkpt lat="43.41647" lon="1.34101">
        <ele>225</ele>
        <time>2017-10-01T11:52:20Z</time>
      </trkpt>
      <trkpt lat="43.41645" lon="1.34096">
        <ele>225</ele>
        <time>2017-10-01T11:52:20Z</time>
      </trkpt>
      <trkpt lat="43.41641" lon="1.34091">
        <ele>225</ele>
        <time>2017-10-01T11:52:20Z</time>
      </trkpt>
      <trkpt lat="43.41639" lon="1.34087">
        <ele>225</ele>
        <time>2017-10-01T11:52:36Z</time>
      </trkpt>
      <trkpt lat="43.41637" lon="1.34084">
        <ele>225</ele>
        <time>2017-10-01T11:52:36Z</time>
      </trkpt>
      <trkpt lat="43.41633" lon="1.34079">
        <ele>225</ele>
        <time>2017-10-01T11:52:36Z</time>
      </trkpt>
      <trkpt lat="43.41629" lon="1.34078">
        <ele>225</ele>
        <time>2017-10-01T11:52:36Z</time>
      </trkpt>
      <trkpt lat="43.41626" lon="1.34075">
        <ele>225</ele>
        <time>2017-10-01T11:52:52Z</time>
      </trkpt>
      <trkpt lat="43.4162" lon="1.3407">
        <ele>239</ele>
        <time>2017-10-01T11:52:52Z</time>
      </trkpt>
      <trkpt lat="43.41616" lon="1.34064">
        <ele>239</ele>
        <time>2017-10-01T11:52:52Z</time>
      </trkpt>
      <trkpt lat="43.41611" lon="1.34058">
        <ele>239</ele>
        <time>2017-10-01T11:52:52Z</time>
      </trkpt>
      <trkpt lat="43.41607" lon="1.34052">
        <ele>239</ele>
        <time>2017-10-01T11:53:08Z</time>
      </trkpt>
      <trkpt lat="43.41602" lon="1.34044">
        <ele>239</ele>
        <time>2017-10-01T11:53:08Z</time>
      </trkpt>
      <trkpt lat="43.41598" lon="1.34041">
        <ele>232</ele>
        <time>2017-10-01T11:53:08Z</time>
      </trkpt>
      <trkpt lat="43.41595" lon="1.34035">
        <ele>232</ele>
        <time>2017-10-01T11:53:08Z</time>
      </trkpt>
      <trkpt lat="43.4159" lon="1.34032">
        <ele>232</ele>
        <time>2017-10-01T11:53:28Z</time>
      </trkpt>
      <trkpt lat="43.41588" lon="1.34029">
        <ele>232</ele>
        <time>2017-10-01T11:53:28Z</time>
      </trkpt>
      <trkpt lat="43.41582" lon="1.3402">
        <ele>232</ele>
        <time>2017-10-01T11:53:28Z</time>
      </trkpt>
      <trkpt lat="43.41581" lon="1.34019">
        <ele>232</ele>
        <time>2017-10-01T11:53:28Z</time>
      </trkpt>
      <trkpt lat="43.41581" lon="1.34018">
        <ele>232</ele>
        <time>2017-10-01T11:53:44Z</time>
      </trkpt>
      <trkpt lat="43.41576" lon="1.34015">
        <ele>232</ele>
        <time>2017-10-01T11:53:44Z</time>
      </trkpt>
      <trkpt lat="43.41573" lon="1.34011">
        <ele>232</ele>
        <time>2017-10-01T11:53:44Z</time>
      </trkpt>
      <trkpt lat="43.41568" lon="1.34003">
        <ele>232</ele>
        <time>2017-10-01T11:53:44Z</time>
      </trkpt>
      <trkpt lat="43.41562" lon="1.33994">
        <ele>232</ele>
        <time>2017-10-01T11:54:04Z</time>
      </trkpt>
      <trkpt lat="43.41561" lon="1.33992">
        <ele>232</ele>
        <time>2017-10-01T11:54:04Z</time>
      </trkpt>
      <trkpt lat="43.41559" lon="1.3399">
        <ele>232</ele>
        <time>2017-10-01T11:54:04Z</time>
      </trkpt>
      <trkpt lat="43.41557" lon="1.33986">
        <ele>232</ele>
        <time>2017-10-01T11:54:04Z</time>
      </trkpt>
      <trkpt lat="43.41554" lon="1.33981">
        <ele>232</ele>
        <time>2017-10-01T11:54:04Z</time>
      </trkpt>
      <trkpt lat="43.4155" lon="1.33975">
        <ele>232</ele>
        <time>2017-10-01T11:54:21Z</time>
      </trkpt>
      <trkpt lat="43.41548" lon="1.33971">
        <ele>232</ele>
        <time>2017-10-01T11:54:21Z</time>
      </trkpt>
      <trkpt lat="43.41545" lon="1.33967">
        <ele>232</ele>
        <time>2017-10-01T11:54:21Z</time>
      </trkpt>
      <trkpt lat="43.41541" lon="1.33957">
        <ele>237</ele>
        <time>2017-10-01T11:54:21Z</time>
      </trkpt>
      <trkpt lat="43.41538" lon="1.33951">
        <ele>237</ele>
        <time>2017-10-01T11:54:36Z</time>
      </trkpt>
      <trkpt lat="43.41533" lon="1.33942">
        <ele>237</ele>
        <time>2017-10-01T11:54:36Z</time>
      </trkpt>
      <trkpt lat="43.4153" lon="1.33937">
        <ele>237</ele>
        <time>2017-10-01T11:54:36Z</time>
      </trkpt>
      <trkpt lat="43.41526" lon="1.3393">
        <ele>237</ele>
        <time>2017-10-01T11:54:36Z</time>
      </trkpt>
      <trkpt lat="43.41525" lon="1.33926">
        <ele>237</ele>
        <time>2017-10-01T11:54:52Z</time>
      </trkpt>
      <trkpt lat="43.4152" lon="1.33916">
        <ele>237</ele>
        <time>2017-10-01T11:54:52Z</time>
      </trkpt>
      <trkpt lat="43.41518" lon="1.3391">
        <ele>237</ele>
        <time>2017-10-01T11:54:52Z</time>
      </trkpt>
      <trkpt lat="43.41514" lon="1.33906">
        <ele>237</ele>
        <time>2017-10-01T11:54:52Z</time>
      </trkpt>
      <trkpt lat="43.4151" lon="1.33899">
        <ele>237</ele>
        <time>2017-10-01T11:55:09Z</time>
      </trkpt>
      <trkpt lat="43.41509" lon="1.33897">
        <ele>237</ele>
        <time>2017-10-01T11:55:09Z</time>
      </trkpt>
      <trkpt lat="43.41506" lon="1.33893">
        <ele>237</ele>
        <time>2017-10-01T11:55:09Z</time>
      </trkpt>
      <trkpt lat="43.41503" lon="1.33886">
        <ele>237</ele>
        <time>2017-10-01T11:55:09Z</time>
      </trkpt>
      <trkpt lat="43.41499" lon="1.33879">
        <ele>237</ele>
        <time>2017-10-01T11:55:24Z</time>
      </trkpt>
      <trkpt lat="43.41496" lon="1.33872">
        <ele>233</ele>
        <time>2017-10-01T11:55:24Z</time>
      </trkpt>
      <trkpt lat="43.41493" lon="1.33865">
        <ele>233</ele>
        <time>2017-10-01T11:55:24Z</time>
      </trkpt>
      <trkpt lat="43.4149" lon="1.3386">
        <ele>233</ele>
        <time>2017-10-01T11:55:24Z</time>
      </trkpt>
      <trkpt lat="43.41487" lon="1.33855">
        <ele>233</ele>
        <time>2017-10-01T11:55:41Z</time>
      </trkpt>
      <trkpt lat="43.41483" lon="1.33849">
        <ele>233</ele>
        <time>2017-10-01T11:55:41Z</time>
      </trkpt>
      <trkpt lat="43.4148" lon="1.33845">
        <ele>233</ele>
        <time>2017-10-01T11:55:41Z</time>
      </trkpt>
      <trkpt lat="43.41476" lon="1.33839">
        <ele>233</ele>
        <time>2017-10-01T11:55:41Z</time>
      </trkpt>
      <trkpt lat="43.41472" lon="1.33833">
        <ele>233</ele>
        <time>2017-10-01T11:55:56Z</time>
      </trkpt>
      <trkpt lat="43.41468" lon="1.33828">
        <ele>233</ele>
        <time>2017-10-01T11:55:56Z</time>
      </trkpt>
      <trkpt lat="43.41464" lon="1.33826">
        <ele>233</ele>
        <time>2017-10-01T11:55:56Z</time>
      </trkpt>
      <trkpt lat="43.41461" lon="1.33821">
        <ele>233</ele>
        <time>2017-10-01T11:55:56Z</time>
      </trkpt>
      <trkpt lat="43.41457" lon="1.33817">
        <ele>242</ele>
        <time>2017-10-01T11:56:13Z</time>
      </trkpt>
      <trkpt lat="43.41453" lon="1.33813">
        <ele>242</ele>
        <time>2017-10-01T11:56:13Z</time>
      </trkpt>
      <trkpt lat="43.41448" lon="1.33808">
        <ele>242</ele>
        <time>2017-10-01T11:56:13Z</time>
      </trkpt>
      <trkpt lat="43.41444" lon="1.33805">
        <ele>242</ele>
        <time>2017-10-01T11:56:13Z</time>
      </trkpt>
      <trkpt lat="43.41439" lon="1.33801">
        <ele>242</ele>
        <time>2017-10-01T11:56:28Z</time>
      </trkpt>
      <trkpt lat="43.41434" lon="1.33798">
        <ele>242</ele>
        <time>2017-10-01T11:56:28Z</time>
      </trkpt>
      <trkpt lat="43.41428" lon="1.33794">
        <ele>242</ele>
        <time>2017-10-01T11:56:28Z</time>
      </trkpt>
      <trkpt lat="43.41425" lon="1.33793">
        <ele>242</ele>
        <time>2017-10-01T11:56:28Z</time>
      </trkpt>
      <trkpt lat="43.4142" lon="1.33791">
        <ele>236</ele>
        <time>2017-10-01T11:56:44Z</time>
      </trkpt>
      <trkpt lat="43.41414" lon="1.33787">
        <ele>236</ele>
        <time>2017-10-01T11:56:44Z</time>
      </trkpt>
      <trkpt lat="43.41411" lon="1.33783">
        <ele>236</ele>
        <time>2017-10-01T11:56:44Z</time>
      </trkpt>
      <trkpt lat="43.41406" lon="1.3378">
        <ele>236</ele>
        <time>2017-10-01T11:56:44Z</time>
      </trkpt>
      <trkpt lat="43.41404" lon="1.33779">
        <ele>236</ele>
        <time>2017-10-01T11:57:04Z</time>
      </trkpt>
      <trkpt lat="43.41403" lon="1.33779">
        <ele>236</ele>
        <time>2017-10-01T11:57:04Z</time>
      </trkpt>
      <trkpt lat="43.41402" lon="1.33778">
        <ele>236</ele>
        <time>2017-10-01T11:57:04Z</time>
      </trkpt>
      <trkpt lat="43.414" lon="1.33776">
        <ele>236</ele>
        <time>2017-10-01T11:57:04Z</time>
      </trkpt>
      <trkpt lat="43.41398" lon="1.33769">
        <ele>236</ele>
        <time>2017-10-01T11:57:04Z</time>
      </trkpt>
      <trkpt lat="43.41393" lon="1.33759">
        <ele>236</ele>
        <time>2017-10-01T11:57:21Z</time>
      </trkpt>
      <trkpt lat="43.4139" lon="1.33755">
        <ele>236</ele>
        <time>2017-10-01T11:57:21Z</time>
      </trkpt>
      <trkpt lat="43.41386" lon="1.3375">
        <ele>236</ele>
        <time>2017-10-01T11:57:21Z</time>
      </trkpt>
      <trkpt lat="43.41386" lon="1.33747">
        <ele>236</ele>
        <time>2017-10-01T11:57:21Z</time>
      </trkpt>
      <trkpt lat="43.41385" lon="1.33744">
        <ele>236</ele>
        <time>2017-10-01T11:57:36Z</time>
      </trkpt>
      <trkpt lat="43.41384" lon="1.33738">
        <ele>236</ele>
        <time>2017-10-01T11:57:36Z</time>
      </trkpt>
      <trkpt lat="43.41383" lon="1.33732">
        <ele>236</ele>
        <time>2017-10-01T11:57:36Z</time>
      </trkpt>
      <trkpt lat="43.41384" lon="1.33729">
        <ele>236</ele>
        <time>2017-10-01T11:57:36Z</time>
      </trkpt>
      <trkpt lat="43.41387" lon="1.33721">
        <ele>236</ele>
        <time>2017-10-01T11:58:08Z</time>
      </trkpt>
      <trkpt lat="43.41386" lon="1.3372">
        <ele>236</ele>
        <time>2017-10-01T11:58:08Z</time>
      </trkpt>
      <trkpt lat="43.41386" lon="1.33717">
        <ele>236</ele>
        <time>2017-10-01T11:58:08Z</time>
      </trkpt>
      <trkpt lat="43.41391" lon="1.33713">
        <ele>236</ele>
        <time>2017-10-01T11:58:08Z</time>
      </trkpt>
      <trkpt lat="43.41396" lon="1.33709">
        <ele>236</ele>
        <time>2017-10-01T11:58:08Z</time>
      </trkpt>
      <trkpt lat="43.41397" lon="1.33708">
        <ele>233</ele>
        <time>2017-10-01T11:58:29Z</time>
      </trkpt>
      <trkpt lat="43.41397" lon="1.33706">
        <ele>233</ele>
        <time>2017-10-01T11:58:29Z</time>
      </trkpt>
      <trkpt lat="43.41397" lon="1.33706">
        <ele>233</ele>
        <time>2017-10-01T11:58:29Z</time>
      </trkpt>
      <trkpt lat="43.414" lon="1.33703">
        <ele>233</ele>
        <time>2017-10-01T11:58:29Z</time>
      </trkpt>
      <trkpt lat="43.41405" lon="1.33696">
        <ele>233</ele>
        <time>2017-10-01T11:58:29Z</time>
      </trkpt>
      <trkpt lat="43.41409" lon="1.3369">
        <ele>233</ele>
        <time>2017-10-01T11:58:44Z</time>
      </trkpt>
      <trkpt lat="43.41414" lon="1.33684">
        <ele>233</ele>
        <time>2017-10-01T11:58:44Z</time>
      </trkpt>
      <trkpt lat="43.41417" lon="1.33685">
        <ele>233</ele>
        <time>2017-10-01T11:58:44Z</time>
      </trkpt>
      <trkpt lat="43.41418" lon="1.33685">
        <ele>233</ele>
        <time>2017-10-01T11:58:44Z</time>
      </trkpt>
      <trkpt lat="43.41421" lon="1.33681">
        <ele>233</ele>
        <time>2017-10-01T12:05:00Z</time>
      </trkpt>
      <trkpt lat="43.41421" lon="1.33681">
        <ele>233</ele>
        <time>2017-10-01T12:05:00Z</time>
      </trkpt>
      <trkpt lat="43.41421" lon="1.33681">
        <ele>233</ele>
        <time>2017-10-01T12:05:00Z</time>
      </trkpt>
      <trkpt lat="43.41423" lon="1.33682">
        <ele>233</ele>
        <time>2017-10-01T12:05:00Z</time>
      </trkpt>
      <trkpt lat="43.41429" lon="1.33683">
        <ele>233</ele>
        <time>2017-10-01T12:05:00Z</time>
      </trkpt>
      <trkpt lat="43.41434" lon="1.33683">
        <ele>233</ele>
        <time>2017-10-01T12:05:16Z</time>
      </trkpt>
      <trkpt lat="43.41441" lon="1.33685">
        <ele>233</ele>
        <time>2017-10-01T12:05:16Z</time>
      </trkpt>
      <trkpt lat="43.41445" lon="1.33685">
        <ele>233</ele>
        <time>2017-10-01T12:05:16Z</time>
      </trkpt>
      <trkpt lat="43.4145" lon="1.33687">
        <ele>233</ele>
        <time>2017-10-01T12:05:16Z</time>
      </trkpt>
      <trkpt lat="43.41454" lon="1.33689">
        <ele>233</ele>
        <time>2017-10-01T12:05:32Z</time>
      </trkpt>
      <trkpt lat="43.41457" lon="1.33692">
        <ele>233</ele>
        <time>2017-10-01T12:05:32Z</time>
      </trkpt>
      <trkpt lat="43.41463" lon="1.33696">
        <ele>229</ele>
        <time>2017-10-01T12:05:32Z</time>
      </trkpt>
      <trkpt lat="43.41468" lon="1.33697">
        <ele>229</ele>
        <time>2017-10-01T12:05:32Z</time>
      </trkpt>
      <trkpt lat="43.41474" lon="1.33697">
        <ele>229</ele>
        <time>2017-10-01T12:05:48Z</time>
      </trkpt>
      <trkpt lat="43.4148" lon="1.337">
        <ele>229</ele>
        <time>2017-10-01T12:05:48Z</time>
      </trkpt>
      <trkpt lat="43.41484" lon="1.33701">
        <ele>229</ele>
        <time>2017-10-01T12:05:48Z</time>
      </trkpt>
      <trkpt lat="43.4149" lon="1.337">
        <ele>229</ele>
        <time>2017-10-01T12:05:48Z</time>
      </trkpt>
      <trkpt lat="43.41494" lon="1.33696">
        <ele>229</ele>
        <time>2017-10-01T12:06:05Z</time>
      </trkpt>
      <trkpt lat="43.41494" lon="1.33694">
        <ele>229</ele>
        <time>2017-10-01T12:06:05Z</time>
      </trkpt>
      <trkpt lat="43.41491" lon="1.33686">
        <ele>229</ele>
        <time>2017-10-01T12:06:05Z</time>
      </trkpt>
      <trkpt lat="43.41489" lon="1.33676">
        <ele>229</ele>
        <time>2017-10-01T12:06:05Z</time>
      </trkpt>
      <trkpt lat="43.41484" lon="1.33671">
        <ele>229</ele>
        <time>2017-10-01T12:06:20Z</time>
      </trkpt>
      <trkpt lat="43.41485" lon="1.33657">
        <ele>229</ele>
        <time>2017-10-01T12:06:20Z</time>
      </trkpt>
      <trkpt lat="43.41487" lon="1.33651">
        <ele>229</ele>
        <time>2017-10-01T12:06:20Z</time>
      </trkpt>
      <trkpt lat="43.41487" lon="1.33643">
        <ele>229</ele>
        <time>2017-10-01T12:06:20Z</time>
      </trkpt>
      <trkpt lat="43.41485" lon="1.33637">
        <ele>229</ele>
        <time>2017-10-01T12:06:37Z</time>
      </trkpt>
      <trkpt lat="43.41483" lon="1.33635">
        <ele>229</ele>
        <time>2017-10-01T12:06:37Z</time>
      </trkpt>
      <trkpt lat="43.41485" lon="1.33631">
        <ele>229</ele>
        <time>2017-10-01T12:06:37Z</time>
      </trkpt>
      <trkpt lat="43.41494" lon="1.33621">
        <ele>233</ele>
        <time>2017-10-01T12:06:37Z</time>
      </trkpt>
      <trkpt lat="43.415" lon="1.33615">
        <ele>233</ele>
        <time>2017-10-01T12:06:52Z</time>
      </trkpt>
      <trkpt lat="43.415" lon="1.33611">
        <ele>233</ele>
        <time>2017-10-01T12:06:52Z</time>
      </trkpt>
      <trkpt lat="43.41496" lon="1.33607">
        <ele>233</ele>
        <time>2017-10-01T12:06:52Z</time>
      </trkpt>
      <trkpt lat="43.41494" lon="1.33601">
        <ele>233</ele>
        <time>2017-10-01T12:06:52Z</time>
      </trkpt>
      <trkpt lat="43.41497" lon="1.33592">
        <ele>233</ele>
        <time>2017-10-01T12:07:09Z</time>
      </trkpt>
      <trkpt lat="43.41499" lon="1.33584">
        <ele>233</ele>
        <time>2017-10-01T12:07:09Z</time>
      </trkpt>
      <trkpt lat="43.41497" lon="1.33572">
        <ele>233</ele>
        <time>2017-10-01T12:07:09Z</time>
      </trkpt>
      <trkpt lat="43.41503" lon="1.33565">
        <ele>233</ele>
        <time>2017-10-01T12:07:09Z</time>
      </trkpt>
      <trkpt lat="43.41505" lon="1.33565">
        <ele>233</ele>
        <time>2017-10-01T12:07:24Z</time>
      </trkpt>
      <trkpt lat="43.41503" lon="1.33565">
        <ele>233</ele>
        <time>2017-10-01T12:07:24Z</time>
      </trkpt>
      <trkpt lat="43.41503" lon="1.33557">
        <ele>233</ele>
        <time>2017-10-01T12:07:24Z</time>
      </trkpt>
      <trkpt lat="43.41503" lon="1.33551">
        <ele>233</ele>
        <time>2017-10-01T12:07:24Z</time>
      </trkpt>
      <trkpt lat="43.41504" lon="1.33543">
        <ele>233</ele>
        <time>2017-10-01T12:07:41Z</time>
      </trkpt>
      <trkpt lat="43.41504" lon="1.33538">
        <ele>235</ele>
        <time>2017-10-01T12:07:41Z</time>
      </trkpt>
      <trkpt lat="43.41508" lon="1.3353">
        <ele>235</ele>
        <time>2017-10-01T12:07:41Z</time>
      </trkpt>
      <trkpt lat="43.41514" lon="1.33516">
        <ele>235</ele>
        <time>2017-10-01T12:07:41Z</time>
      </trkpt>
      <trkpt lat="43.41513" lon="1.33511">
        <ele>235</ele>
        <time>2017-10-01T12:07:56Z</time>
      </trkpt>
      <trkpt lat="43.41515" lon="1.33504">
        <ele>235</ele>
        <time>2017-10-01T12:07:56Z</time>
      </trkpt>
      <trkpt lat="43.41514" lon="1.33496">
        <ele>235</ele>
        <time>2017-10-01T12:07:56Z</time>
      </trkpt>
      <trkpt lat="43.41513" lon="1.33492">
        <ele>235</ele>
        <time>2017-10-01T12:07:56Z</time>
      </trkpt>
      <trkpt lat="43.41512" lon="1.33488">
        <ele>235</ele>
        <time>2017-10-01T12:08:13Z</time>
      </trkpt>
      <trkpt lat="43.41512" lon="1.33482">
        <ele>235</ele>
        <time>2017-10-01T12:08:13Z</time>
      </trkpt>
      <trkpt lat="43.41514" lon="1.33478">
        <ele>235</ele>
        <time>2017-10-01T12:08:13Z</time>
      </trkpt>
      <trkpt lat="43.41515" lon="1.33471">
        <ele>235</ele>
        <time>2017-10-01T12:08:13Z</time>
      </trkpt>
      <trkpt lat="43.41512" lon="1.33466">
        <ele>235</ele>
        <time>2017-10-01T12:08:28Z</time>
      </trkpt>
      <trkpt lat="43.41504" lon="1.33454">
        <ele>239</ele>
        <time>2017-10-01T12:08:28Z</time>
      </trkpt>
      <trkpt lat="43.41508" lon="1.33446">
        <ele>239</ele>
        <time>2017-10-01T12:08:28Z</time>
      </trkpt>
      <trkpt lat="43.41509" lon="1.33443">
        <ele>239</ele>
        <time>2017-10-01T12:08:28Z</time>
      </trkpt>
      <trkpt lat="43.4151" lon="1.33438">
        <ele>239</ele>
        <time>2017-10-01T12:08:44Z</time>
      </trkpt>
      <trkpt lat="43.4151" lon="1.33431">
        <ele>239</ele>
        <time>2017-10-01T12:08:44Z</time>
      </trkpt>
      <trkpt lat="43.41512" lon="1.33429">
        <ele>239</ele>
        <time>2017-10-01T12:08:44Z</time>
      </trkpt>
      <trkpt lat="43.41515" lon="1.33425">
        <ele>239</ele>
        <time>2017-10-01T12:08:44Z</time>
      </trkpt>
      <trkpt lat="43.41516" lon="1.3342">
        <ele>239</ele>
        <time>2017-10-01T12:09:00Z</time>
      </trkpt>
      <trkpt lat="43.41517" lon="1.33417">
        <ele>239</ele>
        <time>2017-10-01T12:09:00Z</time>
      </trkpt>
      <trkpt lat="43.4152" lon="1.3341">
        <ele>239</ele>
        <time>2017-10-01T12:09:00Z</time>
      </trkpt>
      <trkpt lat="43.41519" lon="1.33405">
        <ele>239</ele>
        <time>2017-10-01T12:09:00Z</time>
      </trkpt>
      <trkpt lat="43.41521" lon="1.33398">
        <ele>239</ele>
        <time>2017-10-01T12:09:16Z</time>
      </trkpt>
      <trkpt lat="43.41522" lon="1.33392">
        <ele>239</ele>
        <time>2017-10-01T12:09:16Z</time>
      </trkpt>
      <trkpt lat="43.41521" lon="1.33385">
        <ele>239</ele>
        <time>2017-10-01T12:09:16Z</time>
      </trkpt>
      <trkpt lat="43.41521" lon="1.33378">
        <ele>239</ele>
        <time>2017-10-01T12:09:16Z</time>
      </trkpt>
      <trkpt lat="43.41522" lon="1.33371">
        <ele>240</ele>
        <time>2017-10-01T12:09:33Z</time>
      </trkpt>
      <trkpt lat="43.41522" lon="1.33368">
        <ele>240</ele>
        <time>2017-10-01T12:09:33Z</time>
      </trkpt>
      <trkpt lat="43.41521" lon="1.33362">
        <ele>240</ele>
        <time>2017-10-01T12:09:33Z</time>
      </trkpt>
      <trkpt lat="43.41523" lon="1.3335">
        <ele>240</ele>
        <time>2017-10-01T12:09:33Z</time>
      </trkpt>
      <trkpt lat="43.41523" lon="1.33342">
        <ele>240</ele>
        <time>2017-10-01T12:09:48Z</time>
      </trkpt>
      <trkpt lat="43.41525" lon="1.33331">
        <ele>240</ele>
        <time>2017-10-01T12:09:48Z</time>
      </trkpt>
      <trkpt lat="43.41525" lon="1.33325">
        <ele>240</ele>
        <time>2017-10-01T12:09:48Z</time>
      </trkpt>
      <trkpt lat="43.41524" lon="1.33318">
        <ele>240</ele>
        <time>2017-10-01T12:09:48Z</time>
      </trkpt>
      <trkpt lat="43.41526" lon="1.33317">
        <ele>240</ele>
        <time>2017-10-01T12:10:08Z</time>
      </trkpt>
      <trkpt lat="43.41525" lon="1.33317">
        <ele>240</ele>
        <time>2017-10-01T12:10:08Z</time>
      </trkpt>
      <trkpt lat="43.41524" lon="1.33317">
        <ele>240</ele>
        <time>2017-10-01T12:10:08Z</time>
      </trkpt>
      <trkpt lat="43.41526" lon="1.3331">
        <ele>240</ele>
        <time>2017-10-01T12:10:08Z</time>
      </trkpt>
      <trkpt lat="43.41527" lon="1.33304">
        <ele>240</ele>
        <time>2017-10-01T12:10:08Z</time>
      </trkpt>
      <trkpt lat="43.41529" lon="1.33296">
        <ele>240</ele>
        <time>2017-10-01T12:10:25Z</time>
      </trkpt>
      <trkpt lat="43.4153" lon="1.33286">
        <ele>241</ele>
        <time>2017-10-01T12:10:25Z</time>
      </trkpt>
      <trkpt lat="43.41529" lon="1.3328">
        <ele>241</ele>
        <time>2017-10-01T12:10:25Z</time>
      </trkpt>
      <trkpt lat="43.41528" lon="1.33267">
        <ele>241</ele>
        <time>2017-10-01T12:10:25Z</time>
      </trkpt>
      <trkpt lat="43.41527" lon="1.3326">
        <ele>241</ele>
        <time>2017-10-01T12:10:44Z</time>
      </trkpt>
      <trkpt lat="43.41527" lon="1.33256">
        <ele>241</ele>
        <time>2017-10-01T12:10:44Z</time>
      </trkpt>
      <trkpt lat="43.41527" lon="1.33253">
        <ele>241</ele>
        <time>2017-10-01T12:10:44Z</time>
      </trkpt>
      <trkpt lat="43.41526" lon="1.33252">
        <ele>241</ele>
        <time>2017-10-01T12:10:44Z</time>
      </trkpt>
      <trkpt lat="43.41527" lon="1.33246">
        <ele>241</ele>
        <time>2017-10-01T12:10:44Z</time>
      </trkpt>
      <trkpt lat="43.41525" lon="1.33238">
        <ele>241</ele>
        <time>2017-10-01T12:11:01Z</time>
      </trkpt>
      <trkpt lat="43.41523" lon="1.33233">
        <ele>241</ele>
        <time>2017-10-01T12:11:01Z</time>
      </trkpt>
      <trkpt lat="43.41525" lon="1.33225">
        <ele>241</ele>
        <time>2017-10-01T12:11:01Z</time>
      </trkpt>
      <trkpt lat="43.41527" lon="1.33214">
        <ele>241</ele>
        <time>2017-10-01T12:11:01Z</time>
      </trkpt>
      <trkpt lat="43.41529" lon="1.33207">
        <ele>244</ele>
        <time>2017-10-01T12:11:16Z</time>
      </trkpt>
      <trkpt lat="43.41529" lon="1.33197">
        <ele>244</ele>
        <time>2017-10-01T12:11:16Z</time>
      </trkpt>
      <trkpt lat="43.4153" lon="1.33195">
        <ele>244</ele>
        <time>2017-10-01T12:11:16Z</time>
      </trkpt>
      <trkpt lat="43.41528" lon="1.33194">
        <ele>244</ele>
        <time>2017-10-01T12:11:16Z</time>
      </trkpt>
      <trkpt lat="43.41528" lon="1.33186">
        <ele>244</ele>
        <time>2017-10-01T12:11:33Z</time>
      </trkpt>
      <trkpt lat="43.41527" lon="1.3318">
        <ele>244</ele>
        <time>2017-10-01T12:11:33Z</time>
      </trkpt>
      <trkpt lat="43.41527" lon="1.33173">
        <ele>244</ele>
        <time>2017-10-01T12:11:33Z</time>
      </trkpt>
      <trkpt lat="43.41527" lon="1.3317">
        <ele>244</ele>
        <time>2017-10-01T12:11:33Z</time>
      </trkpt>
      <trkpt lat="43.41527" lon="1.33168">
        <ele>244</ele>
        <time>2017-10-01T12:11:48Z</time>
      </trkpt>
      <trkpt lat="43.41527" lon="1.33161">
        <ele>244</ele>
        <time>2017-10-01T12:11:48Z</time>
      </trkpt>
      <trkpt lat="43.41528" lon="1.33155">
        <ele>244</ele>
        <time>2017-10-01T12:11:48Z</time>
      </trkpt>
      <trkpt lat="43.41528" lon="1.33152">
        <ele>244</ele>
        <time>2017-10-01T12:11:48Z</time>
      </trkpt>
      <trkpt lat="43.41528" lon="1.33143">
        <ele>244</ele>
        <time>2017-10-01T12:12:05Z</time>
      </trkpt>
      <trkpt lat="43.41529" lon="1.33134">
        <ele>244</ele>
        <time>2017-10-01T12:12:05Z</time>
      </trkpt>
      <trkpt lat="43.41532" lon="1.33121">
        <ele>249</ele>
        <time>2017-10-01T12:12:05Z</time>
      </trkpt>
      <trkpt lat="43.41532" lon="1.33108">
        <ele>249</ele>
        <time>2017-10-01T12:12:05Z</time>
      </trkpt>
      <trkpt lat="43.4153" lon="1.33102">
        <ele>249</ele>
        <time>2017-10-01T12:12:20Z</time>
      </trkpt>
      <trkpt lat="43.41529" lon="1.33094">
        <ele>249</ele>
        <time>2017-10-01T12:12:20Z</time>
      </trkpt>
      <trkpt lat="43.41529" lon="1.33088">
        <ele>249</ele>
        <time>2017-10-01T12:12:20Z</time>
      </trkpt>
      <trkpt lat="43.41529" lon="1.33087">
        <ele>249</ele>
        <time>2017-10-01T12:12:20Z</time>
      </trkpt>
      <trkpt lat="43.41529" lon="1.33085">
        <ele>249</ele>
        <time>2017-10-01T12:12:37Z</time>
      </trkpt>
      <trkpt lat="43.4153" lon="1.33078">
        <ele>249</ele>
        <time>2017-10-01T12:12:37Z</time>
      </trkpt>
      <trkpt lat="43.41534" lon="1.33071">
        <ele>249</ele>
        <time>2017-10-01T12:12:37Z</time>
      </trkpt>
      <trkpt lat="43.41535" lon="1.33068">
        <ele>249</ele>
        <time>2017-10-01T12:12:37Z</time>
      </trkpt>
      <trkpt lat="43.41535" lon="1.33066">
        <ele>249</ele>
        <time>2017-10-01T12:12:52Z</time>
      </trkpt>
      <trkpt lat="43.41535" lon="1.33058">
        <ele>249</ele>
        <time>2017-10-01T12:12:52Z</time>
      </trkpt>
      <trkpt lat="43.41536" lon="1.3305">
        <ele>249</ele>
        <time>2017-10-01T12:12:52Z</time>
      </trkpt>
      <trkpt lat="43.41535" lon="1.33048">
        <ele>249</ele>
        <time>2017-10-01T12:12:52Z</time>
      </trkpt>
      <trkpt lat="43.41534" lon="1.33038">
        <ele>248</ele>
        <time>2017-10-01T12:13:09Z</time>
      </trkpt>
      <trkpt lat="43.41534" lon="1.33025">
        <ele>248</ele>
        <time>2017-10-01T12:13:09Z</time>
      </trkpt>
      <trkpt lat="43.41534" lon="1.33018">
        <ele>248</ele>
        <time>2017-10-01T12:13:09Z</time>
      </trkpt>
      <trkpt lat="43.41532" lon="1.33014">
        <ele>248</ele>
        <time>2017-10-01T12:13:09Z</time>
      </trkpt>
      <trkpt lat="43.41531" lon="1.3301">
        <ele>248</ele>
        <time>2017-10-01T12:13:24Z</time>
      </trkpt>
      <trkpt lat="43.41531" lon="1.33007">
        <ele>248</ele>
        <time>2017-10-01T12:13:24Z</time>
      </trkpt>
      <trkpt lat="43.41531" lon="1.32994">
        <ele>248</ele>
        <time>2017-10-01T12:13:24Z</time>
      </trkpt>
      <trkpt lat="43.41531" lon="1.32985">
        <ele>248</ele>
        <time>2017-10-01T12:13:24Z</time>
      </trkpt>
      <trkpt lat="43.41534" lon="1.32971">
        <ele>248</ele>
        <time>2017-10-01T12:13:45Z</time>
      </trkpt>
      <trkpt lat="43.41536" lon="1.32963">
        <ele>248</ele>
        <time>2017-10-01T12:13:45Z</time>
      </trkpt>
      <trkpt lat="43.41537" lon="1.32962">
        <ele>248</ele>
        <time>2017-10-01T12:13:45Z</time>
      </trkpt>
      <trkpt lat="43.41536" lon="1.3296">
        <ele>248</ele>
        <time>2017-10-01T12:13:45Z</time>
      </trkpt>
      <trkpt lat="43.41538" lon="1.32953">
        <ele>247</ele>
        <time>2017-10-01T12:13:45Z</time>
      </trkpt>
      <trkpt lat="43.41539" lon="1.32944">
        <ele>247</ele>
        <time>2017-10-01T12:14:04Z</time>
      </trkpt>
      <trkpt lat="43.41539" lon="1.32936">
        <ele>247</ele>
        <time>2017-10-01T12:14:04Z</time>
      </trkpt>
      <trkpt lat="43.41538" lon="1.32935">
        <ele>247</ele>
        <time>2017-10-01T12:14:04Z</time>
      </trkpt>
      <trkpt lat="43.41538" lon="1.32934">
        <ele>247</ele>
        <time>2017-10-01T12:14:04Z</time>
      </trkpt>
      <trkpt lat="43.41539" lon="1.32922">
        <ele>247</ele>
        <time>2017-10-01T12:14:04Z</time>
      </trkpt>
      <trkpt lat="43.41541" lon="1.32919">
        <ele>247</ele>
        <time>2017-10-01T12:14:20Z</time>
      </trkpt>
      <trkpt lat="43.41542" lon="1.32913">
        <ele>249</ele>
        <time>2017-10-01T12:14:20Z</time>
      </trkpt>
      <trkpt lat="43.41541" lon="1.32903">
        <ele>247</ele>
        <time>2017-10-01T12:14:20Z</time>
      </trkpt>
      <trkpt lat="43.4154" lon="1.32899">
        <ele>247</ele>
        <time>2017-10-01T12:14:20Z</time>
      </trkpt>
      <trkpt lat="43.41539" lon="1.32891">
        <ele>247</ele>
        <time>2017-10-01T12:14:37Z</time>
      </trkpt>
      <trkpt lat="43.41538" lon="1.32884">
        <ele>247</ele>
        <time>2017-10-01T12:14:37Z</time>
      </trkpt>
      <trkpt lat="43.41538" lon="1.32873">
        <ele>249</ele>
        <time>2017-10-01T12:14:37Z</time>
      </trkpt>
      <trkpt lat="43.41536" lon="1.32869">
        <ele>249</ele>
        <time>2017-10-01T12:14:37Z</time>
      </trkpt>
      <trkpt lat="43.41536" lon="1.32867">
        <ele>249</ele>
        <time>2017-10-01T12:14:52Z</time>
      </trkpt>
      <trkpt lat="43.41536" lon="1.32863">
        <ele>249</ele>
        <time>2017-10-01T12:14:52Z</time>
      </trkpt>
      <trkpt lat="43.41535" lon="1.32849">
        <ele>249</ele>
        <time>2017-10-01T12:14:52Z</time>
      </trkpt>
      <trkpt lat="43.41532" lon="1.32842">
        <ele>249</ele>
        <time>2017-10-01T12:14:52Z</time>
      </trkpt>
      <trkpt lat="43.41533" lon="1.32832">
        <ele>249</ele>
        <time>2017-10-01T12:15:08Z</time>
      </trkpt>
      <trkpt lat="43.41537" lon="1.3282">
        <ele>249</ele>
        <time>2017-10-01T12:15:08Z</time>
      </trkpt>
      <trkpt lat="43.41538" lon="1.32813">
        <ele>249</ele>
        <time>2017-10-01T12:15:08Z</time>
      </trkpt>
      <trkpt lat="43.41539" lon="1.32805">
        <ele>249</ele>
        <time>2017-10-01T12:15:08Z</time>
      </trkpt>
      <trkpt lat="43.41541" lon="1.32789">
        <ele>250</ele>
        <time>2017-10-01T12:15:40Z</time>
      </trkpt>
      <trkpt lat="43.4154" lon="1.32788">
        <ele>250</ele>
        <time>2017-10-01T12:15:40Z</time>
      </trkpt>
      <trkpt lat="43.41541" lon="1.32786">
        <ele>250</ele>
        <time>2017-10-01T12:15:40Z</time>
      </trkpt>
      <trkpt lat="43.4154" lon="1.32785">
        <ele>250</ele>
        <time>2017-10-01T12:15:40Z</time>
      </trkpt>
      <trkpt lat="43.41539" lon="1.32775">
        <ele>250</ele>
        <time>2017-10-01T12:15:40Z</time>
      </trkpt>
      <trkpt lat="43.41539" lon="1.32762">
        <ele>250</ele>
        <time>2017-10-01T12:16:00Z</time>
      </trkpt>
      <trkpt lat="43.41539" lon="1.32758">
        <ele>250</ele>
        <time>2017-10-01T12:16:00Z</time>
      </trkpt>
      <trkpt lat="43.41539" lon="1.32757">
        <ele>250</ele>
        <time>2017-10-01T12:16:00Z</time>
      </trkpt>
      <trkpt lat="43.41539" lon="1.32752">
        <ele>250</ele>
        <time>2017-10-01T12:16:00Z</time>
      </trkpt>
      <trkpt lat="43.41538" lon="1.32743">
        <ele>250</ele>
        <time>2017-10-01T12:16:00Z</time>
      </trkpt>
      <trkpt lat="43.41538" lon="1.32734">
        <ele>250</ele>
        <time>2017-10-01T12:16:17Z</time>
      </trkpt>
      <trkpt lat="43.41537" lon="1.32725">
        <ele>250</ele>
        <time>2017-10-01T12:16:17Z</time>
      </trkpt>
      <trkpt lat="43.41536" lon="1.32719">
        <ele>250</ele>
        <time>2017-10-01T12:16:17Z</time>
      </trkpt>
      <trkpt lat="43.41533" lon="1.32713">
        <ele>250</ele>
        <time>2017-10-01T12:16:17Z</time>
      </trkpt>
      <trkpt lat="43.41532" lon="1.3271">
        <ele>250</ele>
        <time>2017-10-01T12:16:32Z</time>
      </trkpt>
      <trkpt lat="43.41531" lon="1.32699">
        <ele>251</ele>
        <time>2017-10-01T12:16:32Z</time>
      </trkpt>
      <trkpt lat="43.41531" lon="1.32691">
        <ele>251</ele>
        <time>2017-10-01T12:16:32Z</time>
      </trkpt>
      <trkpt lat="43.4153" lon="1.3268">
        <ele>251</ele>
        <time>2017-10-01T12:16:32Z</time>
      </trkpt>
      <trkpt lat="43.41529" lon="1.32667">
        <ele>251</ele>
        <time>2017-10-01T12:16:49Z</time>
      </trkpt>
      <trkpt lat="43.4153" lon="1.32663">
        <ele>251</ele>
        <time>2017-10-01T12:16:49Z</time>
      </trkpt>
      <trkpt lat="43.41529" lon="1.32655">
        <ele>251</ele>
        <time>2017-10-01T12:16:49Z</time>
      </trkpt>
      <trkpt lat="43.41527" lon="1.32648">
        <ele>251</ele>
        <time>2017-10-01T12:16:49Z</time>
      </trkpt>
      <trkpt lat="43.41528" lon="1.32643">
        <ele>251</ele>
        <time>2017-10-01T12:17:04Z</time>
      </trkpt>
      <trkpt lat="43.41528" lon="1.3264">
        <ele>251</ele>
        <time>2017-10-01T12:17:04Z</time>
      </trkpt>
      <trkpt lat="43.41529" lon="1.32634">
        <ele>251</ele>
        <time>2017-10-01T12:17:04Z</time>
      </trkpt>
      <trkpt lat="43.41529" lon="1.32629">
        <ele>251</ele>
        <time>2017-10-01T12:17:04Z</time>
      </trkpt>
      <trkpt lat="43.41531" lon="1.32618">
        <ele>254</ele>
        <time>2017-10-01T12:17:21Z</time>
      </trkpt>
      <trkpt lat="43.41532" lon="1.32613">
        <ele>254</ele>
        <time>2017-10-01T12:17:21Z</time>
      </trkpt>
      <trkpt lat="43.41534" lon="1.32605">
        <ele>254</ele>
        <time>2017-10-01T12:17:21Z</time>
      </trkpt>
      <trkpt lat="43.41535" lon="1.32592">
        <ele>254</ele>
        <time>2017-10-01T12:17:21Z</time>
      </trkpt>
      <trkpt lat="43.41537" lon="1.32585">
        <ele>254</ele>
        <time>2017-10-01T12:17:36Z</time>
      </trkpt>
      <trkpt lat="43.41537" lon="1.32577">
        <ele>254</ele>
        <time>2017-10-01T12:17:36Z</time>
      </trkpt>
      <trkpt lat="43.41538" lon="1.32572">
        <ele>254</ele>
        <time>2017-10-01T12:17:36Z</time>
      </trkpt>
      <trkpt lat="43.41539" lon="1.32569">
        <ele>254</ele>
        <time>2017-10-01T12:17:36Z</time>
      </trkpt>
      <trkpt lat="43.41539" lon="1.32561">
        <ele>254</ele>
        <time>2017-10-01T12:17:53Z</time>
      </trkpt>
      <trkpt lat="43.4154" lon="1.32549">
        <ele>254</ele>
        <time>2017-10-01T12:17:53Z</time>
      </trkpt>
      <trkpt lat="43.4154" lon="1.32543">
        <ele>254</ele>
        <time>2017-10-01T12:17:53Z</time>
      </trkpt>
      <trkpt lat="43.41542" lon="1.32533">
        <ele>254</ele>
        <time>2017-10-01T12:17:53Z</time>
      </trkpt>
      <trkpt lat="43.41544" lon="1.32527">
        <ele>254</ele>
        <time>2017-10-01T12:18:08Z</time>
      </trkpt>
      <trkpt lat="43.41546" lon="1.32519">
        <ele>254</ele>
        <time>2017-10-01T12:18:08Z</time>
      </trkpt>
      <trkpt lat="43.41547" lon="1.32508">
        <ele>254</ele>
        <time>2017-10-01T12:18:08Z</time>
      </trkpt>
      <trkpt lat="43.41547" lon="1.32503">
        <ele>254</ele>
        <time>2017-10-01T12:18:08Z</time>
      </trkpt>
      <trkpt lat="43.41549" lon="1.32495">
        <ele>254</ele>
        <time>2017-10-01T12:18:24Z</time>
      </trkpt>
      <trkpt lat="43.4155" lon="1.32486">
        <ele>254</ele>
        <time>2017-10-01T12:18:24Z</time>
      </trkpt>
      <trkpt lat="43.41551" lon="1.32481">
        <ele>254</ele>
        <time>2017-10-01T12:18:24Z</time>
      </trkpt>
      <trkpt lat="43.41552" lon="1.32475">
        <ele>254</ele>
        <time>2017-10-01T12:18:24Z</time>
      </trkpt>
      <trkpt lat="43.41553" lon="1.32469">
        <ele>254</ele>
        <time>2017-10-01T12:18:40Z</time>
      </trkpt>
      <trkpt lat="43.41553" lon="1.32464">
        <ele>254</ele>
        <time>2017-10-01T12:18:40Z</time>
      </trkpt>
      <trkpt lat="43.41554" lon="1.32458">
        <ele>257</ele>
        <time>2017-10-01T12:18:40Z</time>
      </trkpt>
      <trkpt lat="43.41554" lon="1.32451">
        <ele>257</ele>
        <time>2017-10-01T12:18:40Z</time>
      </trkpt>
      <trkpt lat="43.41555" lon="1.32445">
        <ele>257</ele>
        <time>2017-10-01T12:19:00Z</time>
      </trkpt>
      <trkpt lat="43.41555" lon="1.32441">
        <ele>257</ele>
        <time>2017-10-01T12:19:00Z</time>
      </trkpt>
      <trkpt lat="43.41555" lon="1.3244">
        <ele>257</ele>
        <time>2017-10-01T12:19:00Z</time>
      </trkpt>
      <trkpt lat="43.41556" lon="1.32433">
        <ele>257</ele>
        <time>2017-10-01T12:19:00Z</time>
      </trkpt>
      <trkpt lat="43.41556" lon="1.32426">
        <ele>257</ele>
        <time>2017-10-01T12:19:00Z</time>
      </trkpt>
      <trkpt lat="43.41557" lon="1.32418">
        <ele>257</ele>
        <time>2017-10-01T12:19:16Z</time>
      </trkpt>
      <trkpt lat="43.41559" lon="1.3241">
        <ele>257</ele>
        <time>2017-10-01T12:19:16Z</time>
      </trkpt>
      <trkpt lat="43.41561" lon="1.32402">
        <ele>257</ele>
        <time>2017-10-01T12:19:16Z</time>
      </trkpt>
      <trkpt lat="43.41561" lon="1.32396">
        <ele>257</ele>
        <time>2017-10-01T12:19:16Z</time>
      </trkpt>
      <trkpt lat="43.41562" lon="1.32395">
        <ele>257</ele>
        <time>2017-10-01T12:19:40Z</time>
      </trkpt>
      <trkpt lat="43.41564" lon="1.3239">
        <ele>257</ele>
        <time>2017-10-01T12:19:40Z</time>
      </trkpt>
      <trkpt lat="43.4156" lon="1.32387">
        <ele>257</ele>
        <time>2017-10-01T12:19:40Z</time>
      </trkpt>
      <trkpt lat="43.4156" lon="1.32387">
        <ele>257</ele>
        <time>2017-10-01T12:19:40Z</time>
      </trkpt>
      <trkpt lat="43.41563" lon="1.3238">
        <ele>257</ele>
        <time>2017-10-01T12:19:40Z</time>
      </trkpt>
      <trkpt lat="43.4156" lon="1.32359">
        <ele>262</ele>
        <time>2017-10-01T12:30:28Z</time>
      </trkpt>
      <trkpt lat="43.4156" lon="1.32359">
        <ele>262</ele>
        <time>2017-10-01T12:30:28Z</time>
      </trkpt>
      <trkpt lat="43.4156" lon="1.32359">
        <ele>262</ele>
        <time>2017-10-01T12:30:28Z</time>
      </trkpt>
      <trkpt lat="43.4156" lon="1.32359">
        <ele>262</ele>
        <time>2017-10-01T12:30:28Z</time>
      </trkpt>
      <trkpt lat="43.4156" lon="1.32359">
        <ele>262</ele>
        <time>2017-10-01T12:30:28Z</time>
      </trkpt>
      <trkpt lat="43.4156" lon="1.32359">
        <ele>262</ele>
        <time>2017-10-01T12:31:25Z</time>
      </trkpt>
      <trkpt lat="43.4156" lon="1.32359">
        <ele>262</ele>
        <time>2017-10-01T12:31:25Z</time>
      </trkpt>
      <trkpt lat="43.41556" lon="1.32361">
        <ele>262</ele>
        <time>2017-10-01T12:31:25Z</time>
      </trkpt>
      <trkpt lat="43.41552" lon="1.32361">
        <ele>262</ele>
        <time>2017-10-01T12:31:25Z</time>
      </trkpt>
      <trkpt lat="43.41545" lon="1.32361">
        <ele>262</ele>
        <time>2017-10-01T12:31:25Z</time>
      </trkpt>
      <trkpt lat="43.41542" lon="1.32362">
        <ele>262</ele>
        <time>2017-10-01T12:31:40Z</time>
      </trkpt>
      <trkpt lat="43.41537" lon="1.32363">
        <ele>277</ele>
        <time>2017-10-01T12:31:40Z</time>
      </trkpt>
      <trkpt lat="43.41531" lon="1.32365">
        <ele>277</ele>
        <time>2017-10-01T12:31:40Z</time>
      </trkpt>
      <trkpt lat="43.41527" lon="1.32369">
        <ele>277</ele>
        <time>2017-10-01T12:31:40Z</time>
      </trkpt>
      <trkpt lat="43.41522" lon="1.32371">
        <ele>277</ele>
        <time>2017-10-01T12:31:56Z</time>
      </trkpt>
      <trkpt lat="43.41515" lon="1.32374">
        <ele>277</ele>
        <time>2017-10-01T12:31:56Z</time>
      </trkpt>
      <trkpt lat="43.41512" lon="1.32373">
        <ele>277</ele>
        <time>2017-10-01T12:31:56Z</time>
      </trkpt>
      <trkpt lat="43.41507" lon="1.32375">
        <ele>263</ele>
        <time>2017-10-01T12:31:56Z</time>
      </trkpt>
      <trkpt lat="43.41503" lon="1.32376">
        <ele>263</ele>
        <time>2017-10-01T12:32:12Z</time>
      </trkpt>
      <trkpt lat="43.415" lon="1.32378">
        <ele>263</ele>
        <time>2017-10-01T12:32:12Z</time>
      </trkpt>
      <trkpt lat="43.41496" lon="1.3238">
        <ele>263</ele>
        <time>2017-10-01T12:32:12Z</time>
      </trkpt>
      <trkpt lat="43.41492" lon="1.3238">
        <ele>263</ele>
        <time>2017-10-01T12:32:12Z</time>
      </trkpt>
      <trkpt lat="43.41489" lon="1.32381">
        <ele>263</ele>
        <time>2017-10-01T12:32:28Z</time>
      </trkpt>
      <trkpt lat="43.41486" lon="1.32384">
        <ele>263</ele>
        <time>2017-10-01T12:32:28Z</time>
      </trkpt>
      <trkpt lat="43.41484" lon="1.32384">
        <ele>263</ele>
        <time>2017-10-01T12:32:28Z</time>
      </trkpt>
      <trkpt lat="43.4148" lon="1.32383">
        <ele>263</ele>
        <time>2017-10-01T12:32:28Z</time>
      </trkpt>
      <trkpt lat="43.41474" lon="1.32387">
        <ele>263</ele>
        <time>2017-10-01T12:32:45Z</time>
      </trkpt>
      <trkpt lat="43.4147" lon="1.3239">
        <ele>263</ele>
        <time>2017-10-01T12:32:45Z</time>
      </trkpt>
      <trkpt lat="43.41465" lon="1.32395">
        <ele>263</ele>
        <time>2017-10-01T12:32:45Z</time>
      </trkpt>
      <trkpt lat="43.41459" lon="1.32399">
        <ele>263</ele>
        <time>2017-10-01T12:32:45Z</time>
      </trkpt>
      <trkpt lat="43.41457" lon="1.32402">
        <ele>271</ele>
        <time>2017-10-01T12:33:00Z</time>
      </trkpt>
      <trkpt lat="43.41452" lon="1.32405">
        <ele>271</ele>
        <time>2017-10-01T12:33:00Z</time>
      </trkpt>
      <trkpt lat="43.4145" lon="1.32405">
        <ele>271</ele>
        <time>2017-10-01T12:33:00Z</time>
      </trkpt>
      <trkpt lat="43.41447" lon="1.32402">
        <ele>271</ele>
        <time>2017-10-01T12:33:00Z</time>
      </trkpt>
      <trkpt lat="43.4144" lon="1.32403">
        <ele>271</ele>
        <time>2017-10-01T12:33:17Z</time>
      </trkpt>
      <trkpt lat="43.41436" lon="1.32405">
        <ele>271</ele>
        <time>2017-10-01T12:33:17Z</time>
      </trkpt>
      <trkpt lat="43.41431" lon="1.32406">
        <ele>271</ele>
        <time>2017-10-01T12:33:17Z</time>
      </trkpt>
      <trkpt lat="43.41427" lon="1.32406">
        <ele>271</ele>
        <time>2017-10-01T12:33:17Z</time>
      </trkpt>
      <trkpt lat="43.41424" lon="1.32407">
        <ele>271</ele>
        <time>2017-10-01T12:33:32Z</time>
      </trkpt>
      <trkpt lat="43.4142" lon="1.32406">
        <ele>271</ele>
        <time>2017-10-01T12:33:32Z</time>
      </trkpt>
      <trkpt lat="43.41411" lon="1.32403">
        <ele>271</ele>
        <time>2017-10-01T12:33:32Z</time>
      </trkpt>
      <trkpt lat="43.41407" lon="1.324">
        <ele>271</ele>
        <time>2017-10-01T12:33:32Z</time>
      </trkpt>
      <trkpt lat="43.414" lon="1.32396">
        <ele>271</ele>
        <time>2017-10-01T12:33:49Z</time>
      </trkpt>
      <trkpt lat="43.41398" lon="1.32392">
        <ele>271</ele>
        <time>2017-10-01T12:33:49Z</time>
      </trkpt>
      <trkpt lat="43.41394" lon="1.32386">
        <ele>271</ele>
        <time>2017-10-01T12:33:49Z</time>
      </trkpt>
      <trkpt lat="43.4139" lon="1.32382">
        <ele>271</ele>
        <time>2017-10-01T12:33:49Z</time>
      </trkpt>
      <trkpt lat="43.41385" lon="1.3238">
        <ele>271</ele>
        <time>2017-10-01T12:34:04Z</time>
      </trkpt>
      <trkpt lat="43.41382" lon="1.32376">
        <ele>271</ele>
        <time>2017-10-01T12:34:04Z</time>
      </trkpt>
      <trkpt lat="43.41381" lon="1.32373">
        <ele>283</ele>
        <time>2017-10-01T12:34:04Z</time>
      </trkpt>
      <trkpt lat="43.41379" lon="1.32369">
        <ele>283</ele>
        <time>2017-10-01T12:34:04Z</time>
      </trkpt>
      <trkpt lat="43.41377" lon="1.32363">
        <ele>283</ele>
        <time>2017-10-01T12:34:21Z</time>
      </trkpt>
      <trkpt lat="43.41374" lon="1.32356">
        <ele>280</ele>
        <time>2017-10-01T12:34:21Z</time>
      </trkpt>
      <trkpt lat="43.41371" lon="1.3235">
        <ele>280</ele>
        <time>2017-10-01T12:34:21Z</time>
      </trkpt>
      <trkpt lat="43.41367" lon="1.32342">
        <ele>280</ele>
        <time>2017-10-01T12:34:21Z</time>
      </trkpt>
      <trkpt lat="43.41366" lon="1.32336">
        <ele>280</ele>
        <time>2017-10-01T12:34:36Z</time>
      </trkpt>
      <trkpt lat="43.41361" lon="1.32331">
        <ele>280</ele>
        <time>2017-10-01T12:34:36Z</time>
      </trkpt>
      <trkpt lat="43.41362" lon="1.32323">
        <ele>280</ele>
        <time>2017-10-01T12:34:36Z</time>
      </trkpt>
      <trkpt lat="43.41359" lon="1.3232">
        <ele>280</ele>
        <time>2017-10-01T12:34:36Z</time>
      </trkpt>
      <trkpt lat="43.41359" lon="1.32316">
        <ele>280</ele>
        <time>2017-10-01T12:34:52Z</time>
      </trkpt>
      <trkpt lat="43.41357" lon="1.32311">
        <ele>280</ele>
        <time>2017-10-01T12:34:52Z</time>
      </trkpt>
      <trkpt lat="43.41359" lon="1.32306">
        <ele>280</ele>
        <time>2017-10-01T12:34:52Z</time>
      </trkpt>
      <trkpt lat="43.41358" lon="1.32302">
        <ele>280</ele>
        <time>2017-10-01T12:34:52Z</time>
      </trkpt>
      <trkpt lat="43.41354" lon="1.32298">
        <ele>280</ele>
        <time>2017-10-01T12:35:08Z</time>
      </trkpt>
      <trkpt lat="43.4135" lon="1.32294">
        <ele>280</ele>
        <time>2017-10-01T12:35:08Z</time>
      </trkpt>
      <trkpt lat="43.41346" lon="1.32288">
        <ele>285</ele>
        <time>2017-10-01T12:35:08Z</time>
      </trkpt>
      <trkpt lat="43.4134" lon="1.32285">
        <ele>285</ele>
        <time>2017-10-01T12:35:08Z</time>
      </trkpt>
      <trkpt lat="43.41336" lon="1.32282">
        <ele>285</ele>
        <time>2017-10-01T12:35:29Z</time>
      </trkpt>
      <trkpt lat="43.41334" lon="1.32275">
        <ele>285</ele>
        <time>2017-10-01T12:35:29Z</time>
      </trkpt>
      <trkpt lat="43.41333" lon="1.32274">
        <ele>285</ele>
        <time>2017-10-01T12:35:29Z</time>
      </trkpt>
      <trkpt lat="43.41331" lon="1.32273">
        <ele>285</ele>
        <time>2017-10-01T12:35:29Z</time>
      </trkpt>
      <trkpt lat="43.41327" lon="1.32271">
        <ele>285</ele>
        <time>2017-10-01T12:35:29Z</time>
      </trkpt>
      <trkpt lat="43.41323" lon="1.3227">
        <ele>285</ele>
        <time>2017-10-01T12:35:44Z</time>
      </trkpt>
      <trkpt lat="43.41316" lon="1.32272">
        <ele>285</ele>
        <time>2017-10-01T12:35:44Z</time>
      </trkpt>
      <trkpt lat="43.41312" lon="1.32273">
        <ele>285</ele>
        <time>2017-10-01T12:35:44Z</time>
      </trkpt>
      <trkpt lat="43.41308" lon="1.32272">
        <ele>285</ele>
        <time>2017-10-01T12:35:44Z</time>
      </trkpt>
      <trkpt lat="43.41302" lon="1.32272">
        <ele>285</ele>
        <time>2017-10-01T12:36:01Z</time>
      </trkpt>
      <trkpt lat="43.41297" lon="1.32273">
        <ele>285</ele>
        <time>2017-10-01T12:36:01Z</time>
      </trkpt>
      <trkpt lat="43.41292" lon="1.32273">
        <ele>285</ele>
        <time>2017-10-01T12:36:01Z</time>
      </trkpt>
      <trkpt lat="43.41287" lon="1.32271">
        <ele>290</ele>
        <time>2017-10-01T12:36:01Z</time>
      </trkpt>
      <trkpt lat="43.41284" lon="1.32271">
        <ele>290</ele>
        <time>2017-10-01T12:36:16Z</time>
      </trkpt>
      <trkpt lat="43.41281" lon="1.3227">
        <ele>290</ele>
        <time>2017-10-01T12:36:16Z</time>
      </trkpt>
      <trkpt lat="43.41277" lon="1.32269">
        <ele>290</ele>
        <time>2017-10-01T12:36:16Z</time>
      </trkpt>
      <trkpt lat="43.41272" lon="1.32272">
        <ele>290</ele>
        <time>2017-10-01T12:36:16Z</time>
      </trkpt>
      <trkpt lat="43.41267" lon="1.32278">
        <ele>290</ele>
        <time>2017-10-01T12:36:32Z</time>
      </trkpt>
      <trkpt lat="43.41262" lon="1.3228">
        <ele>290</ele>
        <time>2017-10-01T12:36:32Z</time>
      </trkpt>
      <trkpt lat="43.41258" lon="1.32281">
        <ele>290</ele>
        <time>2017-10-01T12:36:32Z</time>
      </trkpt>
      <trkpt lat="43.41252" lon="1.32282">
        <ele>290</ele>
        <time>2017-10-01T12:36:32Z</time>
      </trkpt>
      <trkpt lat="43.41248" lon="1.32282">
        <ele>290</ele>
        <time>2017-10-01T12:36:48Z</time>
      </trkpt>
      <trkpt lat="43.41243" lon="1.32281">
        <ele>290</ele>
        <time>2017-10-01T12:36:48Z</time>
      </trkpt>
      <trkpt lat="43.41236" lon="1.32282">
        <ele>290</ele>
        <time>2017-10-01T12:36:48Z</time>
      </trkpt>
      <trkpt lat="43.41233" lon="1.3228">
        <ele>290</ele>
        <time>2017-10-01T12:36:48Z</time>
      </trkpt>
      <trkpt lat="43.41229" lon="1.32278">
        <ele>290</ele>
        <time>2017-10-01T12:37:04Z</time>
      </trkpt>
      <trkpt lat="43.41224" lon="1.32279">
        <ele>290</ele>
        <time>2017-10-01T12:37:04Z</time>
      </trkpt>
      <trkpt lat="43.41216" lon="1.3228">
        <ele>290</ele>
        <time>2017-10-01T12:37:04Z</time>
      </trkpt>
      <trkpt lat="43.41211" lon="1.32278">
        <ele>290</ele>
        <time>2017-10-01T12:37:04Z</time>
      </trkpt>
      <trkpt lat="43.41207" lon="1.32277">
        <ele>295</ele>
        <time>2017-10-01T12:37:20Z</time>
      </trkpt>
      <trkpt lat="43.41201" lon="1.32277">
        <ele>295</ele>
        <time>2017-10-01T12:37:20Z</time>
      </trkpt>
      <trkpt lat="43.41193" lon="1.32277">
        <ele>295</ele>
        <time>2017-10-01T12:37:20Z</time>
      </trkpt>
      <trkpt lat="43.41189" lon="1.32277">
        <ele>295</ele>
        <time>2017-10-01T12:37:20Z</time>
      </trkpt>
      <trkpt lat="43.41185" lon="1.32278">
        <ele>295</ele>
        <time>2017-10-01T12:37:36Z</time>
      </trkpt>
      <trkpt lat="43.41182" lon="1.32277">
        <ele>295</ele>
        <time>2017-10-01T12:37:36Z</time>
      </trkpt>
      <trkpt lat="43.41177" lon="1.32276">
        <ele>295</ele>
        <time>2017-10-01T12:37:36Z</time>
      </trkpt>
      <trkpt lat="43.41172" lon="1.32276">
        <ele>295</ele>
        <time>2017-10-01T12:37:36Z</time>
      </trkpt>
      <trkpt lat="43.41169" lon="1.32276">
        <ele>295</ele>
        <time>2017-10-01T12:37:53Z</time>
      </trkpt>
      <trkpt lat="43.41167" lon="1.32277">
        <ele>295</ele>
        <time>2017-10-01T12:37:53Z</time>
      </trkpt>
      <trkpt lat="43.41162" lon="1.32277">
        <ele>295</ele>
        <time>2017-10-01T12:37:53Z</time>
      </trkpt>
      <trkpt lat="43.41157" lon="1.32281">
        <ele>295</ele>
        <time>2017-10-01T12:37:53Z</time>
      </trkpt>
      <trkpt lat="43.41155" lon="1.32281">
        <ele>295</ele>
        <time>2017-10-01T12:38:09Z</time>
      </trkpt>
      <trkpt lat="43.41149" lon="1.32283">
        <ele>295</ele>
        <time>2017-10-01T12:38:09Z</time>
      </trkpt>
      <trkpt lat="43.41146" lon="1.32284">
        <ele>295</ele>
        <time>2017-10-01T12:38:09Z</time>
      </trkpt>
      <trkpt lat="43.41143" lon="1.32284">
        <ele>295</ele>
        <time>2017-10-01T12:38:09Z</time>
      </trkpt>
      <trkpt lat="43.41138" lon="1.32283">
        <ele>295</ele>
        <time>2017-10-01T12:38:25Z</time>
      </trkpt>
      <trkpt lat="43.41132" lon="1.32281">
        <ele>295</ele>
        <time>2017-10-01T12:38:25Z</time>
      </trkpt>
      <trkpt lat="43.41124" lon="1.32278">
        <ele>277</ele>
        <time>2017-10-01T12:38:25Z</time>
      </trkpt>
      <trkpt lat="43.41116" lon="1.32274">
        <ele>277</ele>
        <time>2017-10-01T12:38:25Z</time>
      </trkpt>
      <trkpt lat="43.41109" lon="1.32268">
        <ele>277</ele>
        <time>2017-10-01T12:38:40Z</time>
      </trkpt>
      <trkpt lat="43.41102" lon="1.32261">
        <ele>277</ele>
        <time>2017-10-01T12:38:40Z</time>
      </trkpt>
      <trkpt lat="43.41097" lon="1.32257">
        <ele>277</ele>
        <time>2017-10-01T12:38:40Z</time>
      </trkpt>
      <trkpt lat="43.41093" lon="1.32254">
        <ele>277</ele>
        <time>2017-10-01T12:38:40Z</time>
      </trkpt>
      <trkpt lat="43.4109" lon="1.32254">
        <ele>277</ele>
        <time>2017-10-01T12:39:00Z</time>
      </trkpt>
      <trkpt lat="43.41087" lon="1.32253">
        <ele>277</ele>
        <time>2017-10-01T12:39:00Z</time>
      </trkpt>
      <trkpt lat="43.41084" lon="1.32251">
        <ele>277</ele>
        <time>2017-10-01T12:39:00Z</time>
      </trkpt>
      <trkpt lat="43.41083" lon="1.3225">
        <ele>277</ele>
        <time>2017-10-01T12:39:00Z</time>
      </trkpt>
      <trkpt lat="43.41078" lon="1.32244">
        <ele>277</ele>
        <time>2017-10-01T12:39:00Z</time>
      </trkpt>
      <trkpt lat="43.41074" lon="1.32242">
        <ele>277</ele>
        <time>2017-10-01T12:39:16Z</time>
      </trkpt>
      <trkpt lat="43.41069" lon="1.32238">
        <ele>277</ele>
        <time>2017-10-01T12:39:16Z</time>
      </trkpt>
      <trkpt lat="43.41064" lon="1.32234">
        <ele>277</ele>
        <time>2017-10-01T12:39:16Z</time>
      </trkpt>
      <trkpt lat="43.41059" lon="1.32228">
        <ele>277</ele>
        <time>2017-10-01T12:39:16Z</time>
      </trkpt>
      <trkpt lat="43.41052" lon="1.32221">
        <ele>277</ele>
        <time>2017-10-01T12:39:33Z</time>
      </trkpt>
      <trkpt lat="43.41045" lon="1.32214">
        <ele>277</ele>
        <time>2017-10-01T12:39:33Z</time>
      </trkpt>
      <trkpt lat="43.41041" lon="1.32211">
        <ele>264</ele>
        <time>2017-10-01T12:39:33Z</time>
      </trkpt>
      <trkpt lat="43.41036" lon="1.32206">
        <ele>267</ele>
        <time>2017-10-01T12:39:33Z</time>
      </trkpt>
      <trkpt lat="43.41032" lon="1.32203">
        <ele>267</ele>
        <time>2017-10-01T12:39:48Z</time>
      </trkpt>
      <trkpt lat="43.41027" lon="1.32199">
        <ele>267</ele>
        <time>2017-10-01T12:39:48Z</time>
      </trkpt>
      <trkpt lat="43.4102" lon="1.32195">
        <ele>267</ele>
        <time>2017-10-01T12:39:48Z</time>
      </trkpt>
      <trkpt lat="43.41016" lon="1.32193">
        <ele>267</ele>
        <time>2017-10-01T12:39:48Z</time>
      </trkpt>
      <trkpt lat="43.41011" lon="1.32188">
        <ele>267</ele>
        <time>2017-10-01T12:40:05Z</time>
      </trkpt>
      <trkpt lat="43.41005" lon="1.32184">
        <ele>267</ele>
        <time>2017-10-01T12:40:05Z</time>
      </trkpt>
      <trkpt lat="43.41001" lon="1.32181">
        <ele>267</ele>
        <time>2017-10-01T12:40:05Z</time>
      </trkpt>
      <trkpt lat="43.40995" lon="1.32175">
        <ele>267</ele>
        <time>2017-10-01T12:40:05Z</time>
      </trkpt>
      <trkpt lat="43.40991" lon="1.32171">
        <ele>267</ele>
        <time>2017-10-01T12:40:20Z</time>
      </trkpt>
      <trkpt lat="43.40986" lon="1.32168">
        <ele>267</ele>
        <time>2017-10-01T12:40:20Z</time>
      </trkpt>
      <trkpt lat="43.4098" lon="1.32162">
        <ele>267</ele>
        <time>2017-10-01T12:40:20Z</time>
      </trkpt>
      <trkpt lat="43.40977" lon="1.32158">
        <ele>267</ele>
        <time>2017-10-01T12:40:20Z</time>
      </trkpt>
      <trkpt lat="43.40972" lon="1.32153">
        <ele>267</ele>
        <time>2017-10-01T12:40:36Z</time>
      </trkpt>
      <trkpt lat="43.40966" lon="1.32147">
        <ele>267</ele>
        <time>2017-10-01T12:40:36Z</time>
      </trkpt>
      <trkpt lat="43.40963" lon="1.32144">
        <ele>267</ele>
        <time>2017-10-01T12:40:36Z</time>
      </trkpt>
      <trkpt lat="43.40958" lon="1.3214">
        <ele>267</ele>
        <time>2017-10-01T12:40:36Z</time>
      </trkpt>
      <trkpt lat="43.40953" lon="1.32132">
        <ele>259</ele>
        <time>2017-10-01T12:40:53Z</time>
      </trkpt>
      <trkpt lat="43.40948" lon="1.32126">
        <ele>259</ele>
        <time>2017-10-01T12:40:53Z</time>
      </trkpt>
      <trkpt lat="43.40944" lon="1.32122">
        <ele>260</ele>
        <time>2017-10-01T12:40:53Z</time>
      </trkpt>
      <trkpt lat="43.4094" lon="1.32121">
        <ele>260</ele>
        <time>2017-10-01T12:40:53Z</time>
      </trkpt>
      <trkpt lat="43.40935" lon="1.32125">
        <ele>259</ele>
        <time>2017-10-01T12:41:28Z</time>
      </trkpt>
      <trkpt lat="43.40931" lon="1.32122">
        <ele>260</ele>
        <time>2017-10-01T12:41:28Z</time>
      </trkpt>
      <trkpt lat="43.40927" lon="1.32118">
        <ele>260</ele>
        <time>2017-10-01T12:41:28Z</time>
      </trkpt>
      <trkpt lat="43.40922" lon="1.32115">
        <ele>260</ele>
        <time>2017-10-01T12:41:28Z</time>
      </trkpt>
      <trkpt lat="43.40918" lon="1.32112">
        <ele>260</ele>
        <time>2017-10-01T12:41:28Z</time>
      </trkpt>
      <trkpt lat="43.40914" lon="1.32108">
        <ele>260</ele>
        <time>2017-10-01T12:41:45Z</time>
      </trkpt>
      <trkpt lat="43.40908" lon="1.32103">
        <ele>260</ele>
        <time>2017-10-01T12:41:45Z</time>
      </trkpt>
      <trkpt lat="43.40905" lon="1.32101">
        <ele>260</ele>
        <time>2017-10-01T12:41:45Z</time>
      </trkpt>
      <trkpt lat="43.409" lon="1.32098">
        <ele>260</ele>
        <time>2017-10-01T12:41:45Z</time>
      </trkpt>
      <trkpt lat="43.40896" lon="1.32094">
        <ele>260</ele>
        <time>2017-10-01T12:42:00Z</time>
      </trkpt>
      <trkpt lat="43.40892" lon="1.32091">
        <ele>260</ele>
        <time>2017-10-01T12:42:00Z</time>
      </trkpt>
      <trkpt lat="43.40887" lon="1.32087">
        <ele>260</ele>
        <time>2017-10-01T12:42:00Z</time>
      </trkpt>
      <trkpt lat="43.40884" lon="1.32087">
        <ele>260</ele>
        <time>2017-10-01T12:42:00Z</time>
      </trkpt>
      <trkpt lat="43.4088" lon="1.32087">
        <ele>260</ele>
        <time>2017-10-01T12:42:16Z</time>
      </trkpt>
      <trkpt lat="43.40874" lon="1.32087">
        <ele>259</ele>
        <time>2017-10-01T12:42:16Z</time>
      </trkpt>
      <trkpt lat="43.4087" lon="1.32086">
        <ele>259</ele>
        <time>2017-10-01T12:42:16Z</time>
      </trkpt>
      <trkpt lat="43.40866" lon="1.32086">
        <ele>259</ele>
        <time>2017-10-01T12:42:16Z</time>
      </trkpt>
      <trkpt lat="43.40858" lon="1.32086">
        <ele>259</ele>
        <time>2017-10-01T12:42:33Z</time>
      </trkpt>
      <trkpt lat="43.40853" lon="1.32086">
        <ele>259</ele>
        <time>2017-10-01T12:42:33Z</time>
      </trkpt>
      <trkpt lat="43.40848" lon="1.32085">
        <ele>259</ele>
        <time>2017-10-01T12:42:33Z</time>
      </trkpt>
      <trkpt lat="43.40843" lon="1.32084">
        <ele>259</ele>
        <time>2017-10-01T12:42:33Z</time>
      </trkpt>
      <trkpt lat="43.4084" lon="1.32082">
        <ele>259</ele>
        <time>2017-10-01T12:42:48Z</time>
      </trkpt>
      <trkpt lat="43.40835" lon="1.3208">
        <ele>259</ele>
        <time>2017-10-01T12:42:48Z</time>
      </trkpt>
      <trkpt lat="43.40831" lon="1.3208">
        <ele>259</ele>
        <time>2017-10-01T12:42:48Z</time>
      </trkpt>
      <trkpt lat="43.40828" lon="1.3208">
        <ele>259</ele>
        <time>2017-10-01T12:42:48Z</time>
      </trkpt>
      <trkpt lat="43.40824" lon="1.32079">
        <ele>259</ele>
        <time>2017-10-01T12:43:04Z</time>
      </trkpt>
      <trkpt lat="43.40819" lon="1.32079">
        <ele>259</ele>
        <time>2017-10-01T12:43:04Z</time>
      </trkpt>
      <trkpt lat="43.40813" lon="1.3208">
        <ele>259</ele>
        <time>2017-10-01T12:43:04Z</time>
      </trkpt>
      <trkpt lat="43.40807" lon="1.3208">
        <ele>259</ele>
        <time>2017-10-01T12:43:04Z</time>
      </trkpt>
      <trkpt lat="43.40802" lon="1.32081">
        <ele>259</ele>
        <time>2017-10-01T12:43:20Z</time>
      </trkpt>
      <trkpt lat="43.40797" lon="1.3208">
        <ele>259</ele>
        <time>2017-10-01T12:43:20Z</time>
      </trkpt>
      <trkpt lat="43.40791" lon="1.32079">
        <ele>260</ele>
        <time>2017-10-01T12:43:20Z</time>
      </trkpt>
      <trkpt lat="43.4079" lon="1.32078">
        <ele>260</ele>
        <time>2017-10-01T12:43:20Z</time>
      </trkpt>
      <trkpt lat="43.40786" lon="1.32078">
        <ele>260</ele>
        <time>2017-10-01T12:43:36Z</time>
      </trkpt>
      <trkpt lat="43.40782" lon="1.32075">
        <ele>260</ele>
        <time>2017-10-01T12:43:36Z</time>
      </trkpt>
      <trkpt lat="43.40779" lon="1.32074">
        <ele>260</ele>
        <time>2017-10-01T12:43:36Z</time>
      </trkpt>
      <trkpt lat="43.40774" lon="1.32072">
        <ele>260</ele>
        <time>2017-10-01T12:43:36Z</time>
      </trkpt>
      <trkpt lat="43.40768" lon="1.32074">
        <ele>260</ele>
        <time>2017-10-01T12:43:52Z</time>
      </trkpt>
      <trkpt lat="43.40765" lon="1.32075">
        <ele>260</ele>
        <time>2017-10-01T12:43:52Z</time>
      </trkpt>
      <trkpt lat="43.40761" lon="1.32073">
        <ele>260</ele>
        <time>2017-10-01T12:43:52Z</time>
      </trkpt>
      <trkpt lat="43.40757" lon="1.32075">
        <ele>260</ele>
        <time>2017-10-01T12:43:52Z</time>
      </trkpt>
      <trkpt lat="43.4075" lon="1.32078">
        <ele>260</ele>
        <time>2017-10-01T12:48:53Z</time>
      </trkpt>
      <trkpt lat="43.4075" lon="1.32078">
        <ele>260</ele>
        <time>2017-10-01T12:48:53Z</time>
      </trkpt>
      <trkpt lat="43.40748" lon="1.32078">
        <ele>260</ele>
        <time>2017-10-01T12:48:53Z</time>
      </trkpt>
      <trkpt lat="43.40746" lon="1.32079">
        <ele>260</ele>
        <time>2017-10-01T12:48:53Z</time>
      </trkpt>
      <trkpt lat="43.40744" lon="1.32079">
        <ele>260</ele>
        <time>2017-10-01T12:48:53Z</time>
      </trkpt>
      <trkpt lat="43.4074" lon="1.3208">
        <ele>260</ele>
        <time>2017-10-01T12:49:08Z</time>
      </trkpt>
      <trkpt lat="43.40734" lon="1.32082">
        <ele>260</ele>
        <time>2017-10-01T12:49:08Z</time>
      </trkpt>
      <trkpt lat="43.40729" lon="1.32083">
        <ele>260</ele>
        <time>2017-10-01T12:49:08Z</time>
      </trkpt>
      <trkpt lat="43.40726" lon="1.32083">
        <ele>260</ele>
        <time>2017-10-01T12:49:08Z</time>
      </trkpt>
      <trkpt lat="43.40722" lon="1.32084">
        <ele>260</ele>
        <time>2017-10-01T12:49:24Z</time>
      </trkpt>
      <trkpt lat="43.40718" lon="1.32085">
        <ele>260</ele>
        <time>2017-10-01T12:49:24Z</time>
      </trkpt>
      <trkpt lat="43.40713" lon="1.32087">
        <ele>260</ele>
        <time>2017-10-01T12:49:24Z</time>
      </trkpt>
      <trkpt lat="43.40708" lon="1.32088">
        <ele>258</ele>
        <time>2017-10-01T12:49:24Z</time>
      </trkpt>
      <trkpt lat="43.40704" lon="1.3209">
        <ele>258</ele>
        <time>2017-10-01T12:49:40Z</time>
      </trkpt>
      <trkpt lat="43.40699" lon="1.32091">
        <ele>258</ele>
        <time>2017-10-01T12:49:40Z</time>
      </trkpt>
      <trkpt lat="43.40693" lon="1.32093">
        <ele>258</ele>
        <time>2017-10-01T12:49:40Z</time>
      </trkpt>
      <trkpt lat="43.40689" lon="1.32094">
        <ele>258</ele>
        <time>2017-10-01T12:49:40Z</time>
      </trkpt>
      <trkpt lat="43.40684" lon="1.32096">
        <ele>258</ele>
        <time>2017-10-01T12:49:56Z</time>
      </trkpt>
      <trkpt lat="43.40677" lon="1.32098">
        <ele>258</ele>
        <time>2017-10-01T12:49:56Z</time>
      </trkpt>
      <trkpt lat="43.40674" lon="1.32099">
        <ele>258</ele>
        <time>2017-10-01T12:49:56Z</time>
      </trkpt>
      <trkpt lat="43.40669" lon="1.32101">
        <ele>258</ele>
        <time>2017-10-01T12:49:56Z</time>
      </trkpt>
      <trkpt lat="43.40663" lon="1.32104">
        <ele>258</ele>
        <time>2017-10-01T12:50:13Z</time>
      </trkpt>
      <trkpt lat="43.40659" lon="1.32105">
        <ele>258</ele>
        <time>2017-10-01T12:50:13Z</time>
      </trkpt>
      <trkpt lat="43.40654" lon="1.32107">
        <ele>258</ele>
        <time>2017-10-01T12:50:13Z</time>
      </trkpt>
      <trkpt lat="43.40649" lon="1.32109">
        <ele>258</ele>
        <time>2017-10-01T12:50:13Z</time>
      </trkpt>
      <trkpt lat="43.40644" lon="1.32112">
        <ele>258</ele>
        <time>2017-10-01T12:50:28Z</time>
      </trkpt>
      <trkpt lat="43.40636" lon="1.32114">
        <ele>258</ele>
        <time>2017-10-01T12:50:28Z</time>
      </trkpt>
      <trkpt lat="43.40631" lon="1.32116">
        <ele>258</ele>
        <time>2017-10-01T12:50:28Z</time>
      </trkpt>
      <trkpt lat="43.40625" lon="1.32117">
        <ele>258</ele>
        <time>2017-10-01T12:50:28Z</time>
      </trkpt>
      <trkpt lat="43.4062" lon="1.32117">
        <ele>259</ele>
        <time>2017-10-01T12:50:45Z</time>
      </trkpt>
      <trkpt lat="43.40615" lon="1.32119">
        <ele>259</ele>
        <time>2017-10-01T12:50:45Z</time>
      </trkpt>
      <trkpt lat="43.4061" lon="1.3212">
        <ele>259</ele>
        <time>2017-10-01T12:50:45Z</time>
      </trkpt>
      <trkpt lat="43.40605" lon="1.32122">
        <ele>259</ele>
        <time>2017-10-01T12:50:45Z</time>
      </trkpt>
      <trkpt lat="43.40601" lon="1.32124">
        <ele>259</ele>
        <time>2017-10-01T12:51:00Z</time>
      </trkpt>
      <trkpt lat="43.40596" lon="1.32126">
        <ele>263</ele>
        <time>2017-10-01T12:51:00Z</time>
      </trkpt>
      <trkpt lat="43.40591" lon="1.32129">
        <ele>263</ele>
        <time>2017-10-01T12:51:00Z</time>
      </trkpt>
      <trkpt lat="43.40588" lon="1.32131">
        <ele>263</ele>
        <time>2017-10-01T12:51:00Z</time>
      </trkpt>
      <trkpt lat="43.40585" lon="1.32136">
        <ele>263</ele>
        <time>2017-10-01T12:51:16Z</time>
      </trkpt>
      <trkpt lat="43.40581" lon="1.3214">
        <ele>263</ele>
        <time>2017-10-01T12:51:16Z</time>
      </trkpt>
      <trkpt lat="43.4058" lon="1.32144">
        <ele>263</ele>
        <time>2017-10-01T12:51:16Z</time>
      </trkpt>
      <trkpt lat="43.40581" lon="1.3215">
        <ele>263</ele>
        <time>2017-10-01T12:51:16Z</time>
      </trkpt>
      <trkpt lat="43.40583" lon="1.32155">
        <ele>263</ele>
        <time>2017-10-01T12:51:33Z</time>
      </trkpt>
      <trkpt lat="43.40585" lon="1.32159">
        <ele>263</ele>
        <time>2017-10-01T12:51:33Z</time>
      </trkpt>
      <trkpt lat="43.40586" lon="1.32162">
        <ele>263</ele>
        <time>2017-10-01T12:51:33Z</time>
      </trkpt>
      <trkpt lat="43.40586" lon="1.32168">
        <ele>263</ele>
        <time>2017-10-01T12:51:33Z</time>
      </trkpt>
      <trkpt lat="43.40586" lon="1.32173">
        <ele>263</ele>
        <time>2017-10-01T12:51:48Z</time>
      </trkpt>
      <trkpt lat="43.40586" lon="1.3218">
        <ele>263</ele>
        <time>2017-10-01T12:51:48Z</time>
      </trkpt>
      <trkpt lat="43.40587" lon="1.32191">
        <ele>263</ele>
        <time>2017-10-01T12:51:48Z</time>
      </trkpt>
      <trkpt lat="43.40587" lon="1.32197">
        <ele>263</ele>
        <time>2017-10-01T12:51:48Z</time>
      </trkpt>
      <trkpt lat="43.40587" lon="1.32205">
        <ele>263</ele>
        <time>2017-10-01T12:52:04Z</time>
      </trkpt>
      <trkpt lat="43.40587" lon="1.32214">
        <ele>268</ele>
        <time>2017-10-01T12:52:04Z</time>
      </trkpt>
      <trkpt lat="43.40588" lon="1.32225">
        <ele>268</ele>
        <time>2017-10-01T12:52:04Z</time>
      </trkpt>
      <trkpt lat="43.40587" lon="1.32225">
        <ele>268</ele>
        <time>2017-10-01T12:52:04Z</time>
      </trkpt>
      <trkpt lat="43.40586" lon="1.32235">
        <ele>268</ele>
        <time>2017-10-01T12:52:20Z</time>
      </trkpt>
      <trkpt lat="43.40583" lon="1.32242">
        <ele>268</ele>
        <time>2017-10-01T12:52:20Z</time>
      </trkpt>
      <trkpt lat="43.40581" lon="1.32248">
        <ele>268</ele>
        <time>2017-10-01T12:52:20Z</time>
      </trkpt>
      <trkpt lat="43.40578" lon="1.32255">
        <ele>268</ele>
        <time>2017-10-01T12:52:20Z</time>
      </trkpt>
      <trkpt lat="43.40575" lon="1.32258">
        <ele>268</ele>
        <time>2017-10-01T12:52:37Z</time>
      </trkpt>
      <trkpt lat="43.40572" lon="1.32262">
        <ele>268</ele>
        <time>2017-10-01T12:52:37Z</time>
      </trkpt>
      <trkpt lat="43.40569" lon="1.32264">
        <ele>268</ele>
        <time>2017-10-01T12:52:37Z</time>
      </trkpt>
      <trkpt lat="43.40564" lon="1.32265">
        <ele>268</ele>
        <time>2017-10-01T12:52:37Z</time>
      </trkpt>
      <trkpt lat="43.4056" lon="1.32267">
        <ele>268</ele>
        <time>2017-10-01T12:52:52Z</time>
      </trkpt>
      <trkpt lat="43.40557" lon="1.32268">
        <ele>268</ele>
        <time>2017-10-01T12:52:52Z</time>
      </trkpt>
      <trkpt lat="43.40551" lon="1.32271">
        <ele>268</ele>
        <time>2017-10-01T12:52:52Z</time>
      </trkpt>
      <trkpt lat="43.40545" lon="1.32272">
        <ele>268</ele>
        <time>2017-10-01T12:52:52Z</time>
      </trkpt>
      <trkpt lat="43.40541" lon="1.32274">
        <ele>272</ele>
        <time>2017-10-01T12:53:08Z</time>
      </trkpt>
      <trkpt lat="43.40538" lon="1.32274">
        <ele>272</ele>
        <time>2017-10-01T12:53:08Z</time>
      </trkpt>
      <trkpt lat="43.40534" lon="1.32277">
        <ele>272</ele>
        <time>2017-10-01T12:53:08Z</time>
      </trkpt>
      <trkpt lat="43.40528" lon="1.3228">
        <ele>272</ele>
        <time>2017-10-01T12:53:08Z</time>
      </trkpt>
      <trkpt lat="43.40522" lon="1.3228">
        <ele>272</ele>
        <time>2017-10-01T12:53:24Z</time>
      </trkpt>
      <trkpt lat="43.40519" lon="1.32281">
        <ele>272</ele>
        <time>2017-10-01T12:53:24Z</time>
      </trkpt>
      <trkpt lat="43.40515" lon="1.32283">
        <ele>272</ele>
        <time>2017-10-01T12:53:24Z</time>
      </trkpt>
      <trkpt lat="43.40511" lon="1.32284">
        <ele>272</ele>
        <time>2017-10-01T12:53:24Z</time>
      </trkpt>
      <trkpt lat="43.40506" lon="1.32285">
        <ele>272</ele>
        <time>2017-10-01T12:53:40Z</time>
      </trkpt>
      <trkpt lat="43.40502" lon="1.32286">
        <ele>272</ele>
        <time>2017-10-01T12:53:40Z</time>
      </trkpt>
      <trkpt lat="43.40497" lon="1.32288">
        <ele>272</ele>
        <time>2017-10-01T12:53:40Z</time>
      </trkpt>
      <trkpt lat="43.40492" lon="1.32289">
        <ele>272</ele>
        <time>2017-10-01T12:53:40Z</time>
      </trkpt>
      <trkpt lat="43.40487" lon="1.32291">
        <ele>272</ele>
        <time>2017-10-01T12:53:56Z</time>
      </trkpt>
      <trkpt lat="43.40483" lon="1.32293">
        <ele>269</ele>
        <time>2017-10-01T12:53:57Z</time>
      </trkpt>
      <trkpt lat="43.40478" lon="1.32295">
        <ele>269</ele>
        <time>2017-10-01T12:53:57Z</time>
      </trkpt>
      <trkpt lat="43.40471" lon="1.32297">
        <ele>269</ele>
        <time>2017-10-01T12:53:57Z</time>
      </trkpt>
      <trkpt lat="43.40466" lon="1.32298">
        <ele>269</ele>
        <time>2017-10-01T12:54:12Z</time>
      </trkpt>
      <trkpt lat="43.40461" lon="1.323">
        <ele>269</ele>
        <time>2017-10-01T12:54:12Z</time>
      </trkpt>
      <trkpt lat="43.40456" lon="1.323">
        <ele>273</ele>
        <time>2017-10-01T12:54:12Z</time>
      </trkpt>
      <trkpt lat="43.40453" lon="1.32299">
        <ele>273</ele>
        <time>2017-10-01T12:54:12Z</time>
      </trkpt>
      <trkpt lat="43.40449" lon="1.32297">
        <ele>273</ele>
        <time>2017-10-01T12:54:28Z</time>
      </trkpt>
      <trkpt lat="43.40445" lon="1.32298">
        <ele>273</ele>
        <time>2017-10-01T12:54:28Z</time>
      </trkpt>
      <trkpt lat="43.4044" lon="1.32299">
        <ele>273</ele>
        <time>2017-10-01T12:54:28Z</time>
      </trkpt>
      <trkpt lat="43.40435" lon="1.323">
        <ele>273</ele>
        <time>2017-10-01T12:54:28Z</time>
      </trkpt>
      <trkpt lat="43.40429" lon="1.32302">
        <ele>273</ele>
        <time>2017-10-01T12:54:44Z</time>
      </trkpt>
      <trkpt lat="43.40424" lon="1.32302">
        <ele>273</ele>
        <time>2017-10-01T12:54:44Z</time>
      </trkpt>
      <trkpt lat="43.40419" lon="1.32302">
        <ele>273</ele>
        <time>2017-10-01T12:54:44Z</time>
      </trkpt>
      <trkpt lat="43.40414" lon="1.32302">
        <ele>273</ele>
        <time>2017-10-01T12:54:44Z</time>
      </trkpt>
      <trkpt lat="43.40409" lon="1.32303">
        <ele>273</ele>
        <time>2017-10-01T12:55:00Z</time>
      </trkpt>
      <trkpt lat="43.40404" lon="1.32304">
        <ele>273</ele>
        <time>2017-10-01T12:55:00Z</time>
      </trkpt>
      <trkpt lat="43.40402" lon="1.32306">
        <ele>273</ele>
        <time>2017-10-01T12:55:00Z</time>
      </trkpt>
      <trkpt lat="43.40398" lon="1.32306">
        <ele>273</ele>
        <time>2017-10-01T12:55:00Z</time>
      </trkpt>
      <trkpt lat="43.40391" lon="1.32308">
        <ele>273</ele>
        <time>2017-10-01T12:55:16Z</time>
      </trkpt>
      <trkpt lat="43.40389" lon="1.32307">
        <ele>273</ele>
        <time>2017-10-01T12:55:16Z</time>
      </trkpt>
      <trkpt lat="43.40385" lon="1.32307">
        <ele>273</ele>
        <time>2017-10-01T12:55:16Z</time>
      </trkpt>
      <trkpt lat="43.40379" lon="1.32308">
        <ele>273</ele>
        <time>2017-10-01T12:55:16Z</time>
      </trkpt>
      <trkpt lat="43.40375" lon="1.32309">
        <ele>277</ele>
        <time>2017-10-01T12:55:32Z</time>
      </trkpt>
      <trkpt lat="43.4037" lon="1.32309">
        <ele>277</ele>
        <time>2017-10-01T12:55:32Z</time>
      </trkpt>
      <trkpt lat="43.40364" lon="1.3231">
        <ele>277</ele>
        <time>2017-10-01T12:55:32Z</time>
      </trkpt>
      <trkpt lat="43.40359" lon="1.32311">
        <ele>277</ele>
        <time>2017-10-01T12:55:32Z</time>
      </trkpt>
      <trkpt lat="43.40354" lon="1.32312">
        <ele>277</ele>
        <time>2017-10-01T12:55:48Z</time>
      </trkpt>
      <trkpt lat="43.40349" lon="1.32311">
        <ele>277</ele>
        <time>2017-10-01T12:55:48Z</time>
      </trkpt>
      <trkpt lat="43.40344" lon="1.32313">
        <ele>277</ele>
        <time>2017-10-01T12:55:48Z</time>
      </trkpt>
      <trkpt lat="43.40338" lon="1.32315">
        <ele>277</ele>
        <time>2017-10-01T12:55:48Z</time>
      </trkpt>
      <trkpt lat="43.40332" lon="1.32316">
        <ele>277</ele>
        <time>2017-10-01T12:56:04Z</time>
      </trkpt>
      <trkpt lat="43.40327" lon="1.32317">
        <ele>277</ele>
        <time>2017-10-01T12:56:04Z</time>
      </trkpt>
      <trkpt lat="43.40322" lon="1.32318">
        <ele>277</ele>
        <time>2017-10-01T12:56:04Z</time>
      </trkpt>
      <trkpt lat="43.40318" lon="1.32318">
        <ele>277</ele>
        <time>2017-10-01T12:56:04Z</time>
      </trkpt>
      <trkpt lat="43.40314" lon="1.32322">
        <ele>277</ele>
        <time>2017-10-01T12:56:20Z</time>
      </trkpt>
      <trkpt lat="43.4031" lon="1.32326">
        <ele>277</ele>
        <time>2017-10-01T12:56:21Z</time>
      </trkpt>
      <trkpt lat="43.40306" lon="1.32329">
        <ele>277</ele>
        <time>2017-10-01T12:56:21Z</time>
      </trkpt>
      <trkpt lat="43.40302" lon="1.32333">
        <ele>277</ele>
        <time>2017-10-01T12:56:21Z</time>
      </trkpt>
      <trkpt lat="43.40298" lon="1.32337">
        <ele>277</ele>
        <time>2017-10-01T12:56:36Z</time>
      </trkpt>
      <trkpt lat="43.40294" lon="1.32341">
        <ele>277</ele>
        <time>2017-10-01T12:56:36Z</time>
      </trkpt>
      <trkpt lat="43.40291" lon="1.32346">
        <ele>284</ele>
        <time>2017-10-01T12:56:36Z</time>
      </trkpt>
      <trkpt lat="43.40287" lon="1.3235">
        <ele>284</ele>
        <time>2017-10-01T12:56:36Z</time>
      </trkpt>
      <trkpt lat="43.40283" lon="1.32353">
        <ele>284</ele>
        <time>2017-10-01T12:56:52Z</time>
      </trkpt>
      <trkpt lat="43.40279" lon="1.32355">
        <ele>284</ele>
        <time>2017-10-01T12:56:52Z</time>
      </trkpt>
      <trkpt lat="43.40276" lon="1.32358">
        <ele>284</ele>
        <time>2017-10-01T12:56:52Z</time>
      </trkpt>
      <trkpt lat="43.40273" lon="1.3236">
        <ele>284</ele>
        <time>2017-10-01T12:56:52Z</time>
      </trkpt>
      <trkpt lat="43.40269" lon="1.32364">
        <ele>284</ele>
        <time>2017-10-01T12:57:09Z</time>
      </trkpt>
      <trkpt lat="43.40266" lon="1.32367">
        <ele>284</ele>
        <time>2017-10-01T12:57:09Z</time>
      </trkpt>
      <trkpt lat="43.40263" lon="1.32371">
        <ele>284</ele>
        <time>2017-10-01T12:57:09Z</time>
      </trkpt>
      <trkpt lat="43.4026" lon="1.32374">
        <ele>284</ele>
        <time>2017-10-01T12:57:09Z</time>
      </trkpt>
      <trkpt lat="43.40256" lon="1.32378">
        <ele>285</ele>
        <time>2017-10-01T12:57:24Z</time>
      </trkpt>
      <trkpt lat="43.40252" lon="1.32383">
        <ele>285</ele>
        <time>2017-10-01T12:57:24Z</time>
      </trkpt>
      <trkpt lat="43.40248" lon="1.32388">
        <ele>285</ele>
        <time>2017-10-01T12:57:24Z</time>
      </trkpt>
      <trkpt lat="43.40244" lon="1.32392">
        <ele>285</ele>
        <time>2017-10-01T12:57:24Z</time>
      </trkpt>
      <trkpt lat="43.4024" lon="1.32398">
        <ele>285</ele>
        <time>2017-10-01T12:57:40Z</time>
      </trkpt>
      <trkpt lat="43.40235" lon="1.32402">
        <ele>285</ele>
        <time>2017-10-01T12:57:40Z</time>
      </trkpt>
      <trkpt lat="43.40232" lon="1.32406">
        <ele>285</ele>
        <time>2017-10-01T12:57:40Z</time>
      </trkpt>
      <trkpt lat="43.40229" lon="1.3241">
        <ele>285</ele>
        <time>2017-10-01T12:57:40Z</time>
      </trkpt>
      <trkpt lat="43.40226" lon="1.32417">
        <ele>285</ele>
        <time>2017-10-01T12:57:57Z</time>
      </trkpt>
      <trkpt lat="43.40223" lon="1.3242">
        <ele>285</ele>
        <time>2017-10-01T12:57:57Z</time>
      </trkpt>
      <trkpt lat="43.40219" lon="1.32427">
        <ele>285</ele>
        <time>2017-10-01T12:57:57Z</time>
      </trkpt>
      <trkpt lat="43.40214" lon="1.32435">
        <ele>285</ele>
        <time>2017-10-01T12:57:57Z</time>
      </trkpt>
      <trkpt lat="43.40213" lon="1.3244">
        <ele>285</ele>
        <time>2017-10-01T12:58:12Z</time>
      </trkpt>
      <trkpt lat="43.40209" lon="1.32448">
        <ele>285</ele>
        <time>2017-10-01T12:58:12Z</time>
      </trkpt>
      <trkpt lat="43.40206" lon="1.32453">
        <ele>291</ele>
        <time>2017-10-01T12:58:12Z</time>
      </trkpt>
      <trkpt lat="43.40203" lon="1.32457">
        <ele>291</ele>
        <time>2017-10-01T12:58:12Z</time>
      </trkpt>
      <trkpt lat="43.40198" lon="1.32464">
        <ele>293</ele>
        <time>2017-10-01T12:58:29Z</time>
      </trkpt>
      <trkpt lat="43.40196" lon="1.32469">
        <ele>293</ele>
        <time>2017-10-01T12:58:29Z</time>
      </trkpt>
      <trkpt lat="43.40193" lon="1.32476">
        <ele>293</ele>
        <time>2017-10-01T12:58:29Z</time>
      </trkpt>
      <trkpt lat="43.40191" lon="1.32485">
        <ele>293</ele>
        <time>2017-10-01T12:58:29Z</time>
      </trkpt>
      <trkpt lat="43.4018" lon="1.32498">
        <ele>293</ele>
        <time>2017-10-01T12:59:00Z</time>
      </trkpt>
      <trkpt lat="43.40176" lon="1.32488">
        <ele>293</ele>
        <time>2017-10-01T12:59:00Z</time>
      </trkpt>
      <trkpt lat="43.40173" lon="1.3248">
        <ele>293</ele>
        <time>2017-10-01T12:59:00Z</time>
      </trkpt>
      <trkpt lat="43.4017" lon="1.32474">
        <ele>293</ele>
        <time>2017-10-01T12:59:00Z</time>
      </trkpt>
      <trkpt lat="43.40167" lon="1.32468">
        <ele>293</ele>
        <time>2017-10-01T12:59:00Z</time>
      </trkpt>
      <trkpt lat="43.40164" lon="1.32463">
        <ele>293</ele>
        <time>2017-10-01T12:59:16Z</time>
      </trkpt>
      <trkpt lat="43.40161" lon="1.32458">
        <ele>291</ele>
        <time>2017-10-01T12:59:16Z</time>
      </trkpt>
      <trkpt lat="43.40159" lon="1.32452">
        <ele>291</ele>
        <time>2017-10-01T12:59:16Z</time>
      </trkpt>
      <trkpt lat="43.40155" lon="1.32447">
        <ele>291</ele>
        <time>2017-10-01T12:59:16Z</time>
      </trkpt>
      <trkpt lat="43.40151" lon="1.32443">
        <ele>291</ele>
        <time>2017-10-01T12:59:32Z</time>
      </trkpt>
      <trkpt lat="43.40147" lon="1.32438">
        <ele>291</ele>
        <time>2017-10-01T12:59:32Z</time>
      </trkpt>
      <trkpt lat="43.40144" lon="1.32433">
        <ele>291</ele>
        <time>2017-10-01T12:59:32Z</time>
      </trkpt>
      <trkpt lat="43.40141" lon="1.32428">
        <ele>291</ele>
        <time>2017-10-01T12:59:32Z</time>
      </trkpt>
      <trkpt lat="43.40137" lon="1.32421">
        <ele>291</ele>
        <time>2017-10-01T12:59:48Z</time>
      </trkpt>
      <trkpt lat="43.40135" lon="1.32416">
        <ele>291</ele>
        <time>2017-10-01T12:59:48Z</time>
      </trkpt>
      <trkpt lat="43.40132" lon="1.3241">
        <ele>291</ele>
        <time>2017-10-01T12:59:48Z</time>
      </trkpt>
      <trkpt lat="43.40129" lon="1.32403">
        <ele>291</ele>
        <time>2017-10-01T12:59:48Z</time>
      </trkpt>
      <trkpt lat="43.40127" lon="1.32397">
        <ele>291</ele>
        <time>2017-10-01T13:00:05Z</time>
      </trkpt>
      <trkpt lat="43.40126" lon="1.32393">
        <ele>291</ele>
        <time>2017-10-01T13:00:05Z</time>
      </trkpt>
      <trkpt lat="43.40123" lon="1.32387">
        <ele>294</ele>
        <time>2017-10-01T13:00:05Z</time>
      </trkpt>
      <trkpt lat="43.40121" lon="1.32381">
        <ele>294</ele>
        <time>2017-10-01T13:00:05Z</time>
      </trkpt>
      <trkpt lat="43.40119" lon="1.32374">
        <ele>293</ele>
        <time>2017-10-01T13:00:21Z</time>
      </trkpt>
      <trkpt lat="43.40117" lon="1.32366">
        <ele>293</ele>
        <time>2017-10-01T13:00:21Z</time>
      </trkpt>
      <trkpt lat="43.40114" lon="1.32359">
        <ele>293</ele>
        <time>2017-10-01T13:00:21Z</time>
      </trkpt>
      <trkpt lat="43.40112" lon="1.32352">
        <ele>293</ele>
        <time>2017-10-01T13:00:21Z</time>
      </trkpt>
      <trkpt lat="43.40109" lon="1.32345">
        <ele>293</ele>
        <time>2017-10-01T13:00:36Z</time>
      </trkpt>
      <trkpt lat="43.40106" lon="1.32337">
        <ele>293</ele>
        <time>2017-10-01T13:00:36Z</time>
      </trkpt>
      <trkpt lat="43.40105" lon="1.32332">
        <ele>293</ele>
        <time>2017-10-01T13:00:36Z</time>
      </trkpt>
      <trkpt lat="43.40103" lon="1.32325">
        <ele>293</ele>
        <time>2017-10-01T13:00:36Z</time>
      </trkpt>
      <trkpt lat="43.401" lon="1.32319">
        <ele>293</ele>
        <time>2017-10-01T13:00:53Z</time>
      </trkpt>
      <trkpt lat="43.40098" lon="1.32312">
        <ele>293</ele>
        <time>2017-10-01T13:00:53Z</time>
      </trkpt>
      <trkpt lat="43.40096" lon="1.32305">
        <ele>293</ele>
        <time>2017-10-01T13:00:53Z</time>
      </trkpt>
      <trkpt lat="43.40094" lon="1.32296">
        <ele>293</ele>
        <time>2017-10-01T13:00:53Z</time>
      </trkpt>
      <trkpt lat="43.40092" lon="1.32291">
        <ele>294</ele>
        <time>2017-10-01T13:01:08Z</time>
      </trkpt>
      <trkpt lat="43.4009" lon="1.32284">
        <ele>294</ele>
        <time>2017-10-01T13:01:08Z</time>
      </trkpt>
      <trkpt lat="43.40087" lon="1.32276">
        <ele>294</ele>
        <time>2017-10-01T13:01:08Z</time>
      </trkpt>
      <trkpt lat="43.40085" lon="1.32272">
        <ele>294</ele>
        <time>2017-10-01T13:01:08Z</time>
      </trkpt>
      <trkpt lat="43.40083" lon="1.32265">
        <ele>294</ele>
        <time>2017-10-01T13:01:25Z</time>
      </trkpt>
      <trkpt lat="43.40082" lon="1.32257">
        <ele>294</ele>
        <time>2017-10-01T13:01:25Z</time>
      </trkpt>
      <trkpt lat="43.4008" lon="1.32252">
        <ele>294</ele>
        <time>2017-10-01T13:01:25Z</time>
      </trkpt>
      <trkpt lat="43.40077" lon="1.32244">
        <ele>294</ele>
        <time>2017-10-01T13:01:25Z</time>
      </trkpt>
      <trkpt lat="43.40076" lon="1.32238">
        <ele>294</ele>
        <time>2017-10-01T13:01:41Z</time>
      </trkpt>
      <trkpt lat="43.40074" lon="1.32231">
        <ele>294</ele>
        <time>2017-10-01T13:01:41Z</time>
      </trkpt>
      <trkpt lat="43.40073" lon="1.32225">
        <ele>294</ele>
        <time>2017-10-01T13:01:41Z</time>
      </trkpt>
      <trkpt lat="43.40072" lon="1.32217">
        <ele>294</ele>
        <time>2017-10-01T13:01:41Z</time>
      </trkpt>
      <trkpt lat="43.40071" lon="1.32212">
        <ele>294</ele>
        <time>2017-10-01T13:01:56Z</time>
      </trkpt>
      <trkpt lat="43.40069" lon="1.32205">
        <ele>294</ele>
        <time>2017-10-01T13:01:56Z</time>
      </trkpt>
      <trkpt lat="43.40068" lon="1.32198">
        <ele>294</ele>
        <time>2017-10-01T13:01:56Z</time>
      </trkpt>
      <trkpt lat="43.40068" lon="1.32193">
        <ele>294</ele>
        <time>2017-10-01T13:01:56Z</time>
      </trkpt>
      <trkpt lat="43.40067" lon="1.32186">
        <ele>294</ele>
        <time>2017-10-01T13:02:13Z</time>
      </trkpt>
      <trkpt lat="43.40066" lon="1.3218">
        <ele>294</ele>
        <time>2017-10-01T13:02:13Z</time>
      </trkpt>
      <trkpt lat="43.40065" lon="1.32173">
        <ele>294</ele>
        <time>2017-10-01T13:02:13Z</time>
      </trkpt>
      <trkpt lat="43.40064" lon="1.32165">
        <ele>294</ele>
        <time>2017-10-01T13:02:13Z</time>
      </trkpt>
      <trkpt lat="43.40063" lon="1.3216">
        <ele>294</ele>
        <time>2017-10-01T13:02:28Z</time>
      </trkpt>
      <trkpt lat="43.40063" lon="1.32153">
        <ele>294</ele>
        <time>2017-10-01T13:02:28Z</time>
      </trkpt>
      <trkpt lat="43.40062" lon="1.32144">
        <ele>294</ele>
        <time>2017-10-01T13:02:28Z</time>
      </trkpt>
      <trkpt lat="43.40061" lon="1.32139">
        <ele>294</ele>
        <time>2017-10-01T13:02:28Z</time>
      </trkpt>
      <trkpt lat="43.40061" lon="1.32134">
        <ele>294</ele>
        <time>2017-10-01T13:02:45Z</time>
      </trkpt>
      <trkpt lat="43.4006" lon="1.32127">
        <ele>294</ele>
        <time>2017-10-01T13:02:45Z</time>
      </trkpt>
      <trkpt lat="43.40059" lon="1.3212">
        <ele>293</ele>
        <time>2017-10-01T13:02:45Z</time>
      </trkpt>
      <trkpt lat="43.40058" lon="1.32113">
        <ele>293</ele>
        <time>2017-10-01T13:02:45Z</time>
      </trkpt>
      <trkpt lat="43.40058" lon="1.32109">
        <ele>293</ele>
        <time>2017-10-01T13:03:00Z</time>
      </trkpt>
      <trkpt lat="43.40057" lon="1.32105">
        <ele>293</ele>
        <time>2017-10-01T13:03:00Z</time>
      </trkpt>
      <trkpt lat="43.40056" lon="1.32098">
        <ele>293</ele>
        <time>2017-10-01T13:03:00Z</time>
      </trkpt>
      <trkpt lat="43.40055" lon="1.32094">
        <ele>293</ele>
        <time>2017-10-01T13:03:00Z</time>
      </trkpt>
      <trkpt lat="43.40053" lon="1.32088">
        <ele>293</ele>
        <time>2017-10-01T13:03:16Z</time>
      </trkpt>
      <trkpt lat="43.40051" lon="1.32081">
        <ele>293</ele>
        <time>2017-10-01T13:03:16Z</time>
      </trkpt>
      <trkpt lat="43.40048" lon="1.32074">
        <ele>293</ele>
        <time>2017-10-01T13:03:16Z</time>
      </trkpt>
      <trkpt lat="43.40045" lon="1.32067">
        <ele>293</ele>
        <time>2017-10-01T13:03:16Z</time>
      </trkpt>
      <trkpt lat="43.40042" lon="1.32062">
        <ele>293</ele>
        <time>2017-10-01T13:03:32Z</time>
      </trkpt>
      <trkpt lat="43.40039" lon="1.32056">
        <ele>286</ele>
        <time>2017-10-01T13:03:32Z</time>
      </trkpt>
      <trkpt lat="43.40036" lon="1.32051">
        <ele>286</ele>
        <time>2017-10-01T13:03:32Z</time>
      </trkpt>
      <trkpt lat="43.40032" lon="1.32046">
        <ele>286</ele>
        <time>2017-10-01T13:03:32Z</time>
      </trkpt>
      <trkpt lat="43.40029" lon="1.32041">
        <ele>287</ele>
        <time>2017-10-01T13:03:48Z</time>
      </trkpt>
      <trkpt lat="43.40025" lon="1.32036">
        <ele>287</ele>
        <time>2017-10-01T13:03:48Z</time>
      </trkpt>
      <trkpt lat="43.4002" lon="1.32031">
        <ele>287</ele>
        <time>2017-10-01T13:03:48Z</time>
      </trkpt>
      <trkpt lat="43.40015" lon="1.32027">
        <ele>287</ele>
        <time>2017-10-01T13:03:48Z</time>
      </trkpt>
      <trkpt lat="43.4001" lon="1.32022">
        <ele>287</ele>
        <time>2017-10-01T13:04:04Z</time>
      </trkpt>
      <trkpt lat="43.40009" lon="1.32018">
        <ele>287</ele>
        <time>2017-10-01T13:04:04Z</time>
      </trkpt>
      <trkpt lat="43.40005" lon="1.32015">
        <ele>287</ele>
        <time>2017-10-01T13:04:04Z</time>
      </trkpt>
      <trkpt lat="43.4" lon="1.32012">
        <ele>287</ele>
        <time>2017-10-01T13:04:04Z</time>
      </trkpt>
      <trkpt lat="43.39995" lon="1.3201">
        <ele>287</ele>
        <time>2017-10-01T13:04:20Z</time>
      </trkpt>
      <trkpt lat="43.3999" lon="1.32006">
        <ele>287</ele>
        <time>2017-10-01T13:04:20Z</time>
      </trkpt>
      <trkpt lat="43.39986" lon="1.32001">
        <ele>287</ele>
        <time>2017-10-01T13:04:20Z</time>
      </trkpt>
      <trkpt lat="43.39983" lon="1.31997">
        <ele>287</ele>
        <time>2017-10-01T13:04:20Z</time>
      </trkpt>
      <trkpt lat="43.39979" lon="1.31993">
        <ele>287</ele>
        <time>2017-10-01T13:04:36Z</time>
      </trkpt>
      <trkpt lat="43.39975" lon="1.31989">
        <ele>287</ele>
        <time>2017-10-01T13:04:36Z</time>
      </trkpt>
      <trkpt lat="43.3997" lon="1.31984">
        <ele>287</ele>
        <time>2017-10-01T13:04:36Z</time>
      </trkpt>
      <trkpt lat="43.39965" lon="1.31978">
        <ele>287</ele>
        <time>2017-10-01T13:04:36Z</time>
      </trkpt>
      <trkpt lat="43.39962" lon="1.31972">
        <ele>287</ele>
        <time>2017-10-01T13:04:52Z</time>
      </trkpt>
      <trkpt lat="43.39959" lon="1.31967">
        <ele>287</ele>
        <time>2017-10-01T13:04:52Z</time>
      </trkpt>
      <trkpt lat="43.39955" lon="1.31962">
        <ele>292</ele>
        <time>2017-10-01T13:04:52Z</time>
      </trkpt>
      <trkpt lat="43.39953" lon="1.31958">
        <ele>292</ele>
        <time>2017-10-01T13:04:52Z</time>
      </trkpt>
      <trkpt lat="43.3995" lon="1.31953">
        <ele>292</ele>
        <time>2017-10-01T13:05:08Z</time>
      </trkpt>
      <trkpt lat="43.39948" lon="1.31949">
        <ele>292</ele>
        <time>2017-10-01T13:05:08Z</time>
      </trkpt>
      <trkpt lat="43.39945" lon="1.31943">
        <ele>292</ele>
        <time>2017-10-01T13:05:08Z</time>
      </trkpt>
      <trkpt lat="43.39941" lon="1.31937">
        <ele>292</ele>
        <time>2017-10-01T13:05:08Z</time>
      </trkpt>
      <trkpt lat="43.39938" lon="1.3193">
        <ele>292</ele>
        <time>2017-10-01T13:05:24Z</time>
      </trkpt>
      <trkpt lat="43.39935" lon="1.31923">
        <ele>292</ele>
        <time>2017-10-01T13:05:24Z</time>
      </trkpt>
      <trkpt lat="43.39933" lon="1.31914">
        <ele>292</ele>
        <time>2017-10-01T13:05:24Z</time>
      </trkpt>
      <trkpt lat="43.39932" lon="1.31908">
        <ele>292</ele>
        <time>2017-10-01T13:05:24Z</time>
      </trkpt>
      <trkpt lat="43.39932" lon="1.31902">
        <ele>292</ele>
        <time>2017-10-01T13:05:40Z</time>
      </trkpt>
      <trkpt lat="43.39931" lon="1.31895">
        <ele>292</ele>
        <time>2017-10-01T13:05:40Z</time>
      </trkpt>
      <trkpt lat="43.3993" lon="1.31888">
        <ele>292</ele>
        <time>2017-10-01T13:05:40Z</time>
      </trkpt>
      <trkpt lat="43.3993" lon="1.31882">
        <ele>292</ele>
        <time>2017-10-01T13:05:40Z</time>
      </trkpt>
      <trkpt lat="43.3993" lon="1.31876">
        <ele>292</ele>
        <time>2017-10-01T13:05:56Z</time>
      </trkpt>
      <trkpt lat="43.39931" lon="1.3187">
        <ele>290</ele>
        <time>2017-10-01T13:05:56Z</time>
      </trkpt>
      <trkpt lat="43.39932" lon="1.31862">
        <ele>290</ele>
        <time>2017-10-01T13:05:56Z</time>
      </trkpt>
      <trkpt lat="43.39932" lon="1.31857">
        <ele>290</ele>
        <time>2017-10-01T13:05:56Z</time>
      </trkpt>
      <trkpt lat="43.39933" lon="1.31851">
        <ele>290</ele>
        <time>2017-10-01T13:06:12Z</time>
      </trkpt>
      <trkpt lat="43.39934" lon="1.31843">
        <ele>290</ele>
        <time>2017-10-01T13:06:12Z</time>
      </trkpt>
      <trkpt lat="43.39935" lon="1.31839">
        <ele>290</ele>
        <time>2017-10-01T13:06:12Z</time>
      </trkpt>
      <trkpt lat="43.39936" lon="1.31832">
        <ele>290</ele>
        <time>2017-10-01T13:06:12Z</time>
      </trkpt>
      <trkpt lat="43.39938" lon="1.31823">
        <ele>290</ele>
        <time>2017-10-01T13:06:28Z</time>
      </trkpt>
      <trkpt lat="43.39939" lon="1.31817">
        <ele>290</ele>
        <time>2017-10-01T13:06:28Z</time>
      </trkpt>
      <trkpt lat="43.3994" lon="1.31811">
        <ele>290</ele>
        <time>2017-10-01T13:06:28Z</time>
      </trkpt>
      <trkpt lat="43.39942" lon="1.31805">
        <ele>290</ele>
        <time>2017-10-01T13:06:28Z</time>
      </trkpt>
      <trkpt lat="43.39944" lon="1.31799">
        <ele>290</ele>
        <time>2017-10-01T13:06:45Z</time>
      </trkpt>
      <trkpt lat="43.39945" lon="1.31792">
        <ele>290</ele>
        <time>2017-10-01T13:06:45Z</time>
      </trkpt>
      <trkpt lat="43.39947" lon="1.31785">
        <ele>292</ele>
        <time>2017-10-01T13:06:45Z</time>
      </trkpt>
      <trkpt lat="43.39949" lon="1.31778">
        <ele>292</ele>
        <time>2017-10-01T13:06:45Z</time>
      </trkpt>
      <trkpt lat="43.3995" lon="1.31771">
        <ele>292</ele>
        <time>2017-10-01T13:07:00Z</time>
      </trkpt>
      <trkpt lat="43.39952" lon="1.31761">
        <ele>292</ele>
        <time>2017-10-01T13:07:00Z</time>
      </trkpt>
      <trkpt lat="43.39953" lon="1.31756">
        <ele>292</ele>
        <time>2017-10-01T13:07:00Z</time>
      </trkpt>
      <trkpt lat="43.39953" lon="1.31749">
        <ele>292</ele>
        <time>2017-10-01T13:07:00Z</time>
      </trkpt>
      <trkpt lat="43.39955" lon="1.31742">
        <ele>292</ele>
        <time>2017-10-01T13:07:17Z</time>
      </trkpt>
      <trkpt lat="43.39955" lon="1.31736">
        <ele>292</ele>
        <time>2017-10-01T13:07:17Z</time>
      </trkpt>
      <trkpt lat="43.39955" lon="1.31728">
        <ele>292</ele>
        <time>2017-10-01T13:07:17Z</time>
      </trkpt>
      <trkpt lat="43.39956" lon="1.31719">
        <ele>292</ele>
        <time>2017-10-01T13:07:17Z</time>
      </trkpt>
      <trkpt lat="43.39956" lon="1.31715">
        <ele>292</ele>
        <time>2017-10-01T13:07:32Z</time>
      </trkpt>
      <trkpt lat="43.39957" lon="1.31709">
        <ele>292</ele>
        <time>2017-10-01T13:07:32Z</time>
      </trkpt>
      <trkpt lat="43.39957" lon="1.31704">
        <ele>293</ele>
        <time>2017-10-01T13:07:32Z</time>
      </trkpt>
      <trkpt lat="43.39956" lon="1.31698">
        <ele>293</ele>
        <time>2017-10-01T13:07:32Z</time>
      </trkpt>
      <trkpt lat="43.39955" lon="1.3169">
        <ele>293</ele>
        <time>2017-10-01T13:07:49Z</time>
      </trkpt>
      <trkpt lat="43.39955" lon="1.31683">
        <ele>293</ele>
        <time>2017-10-01T13:07:49Z</time>
      </trkpt>
      <trkpt lat="43.39953" lon="1.31676">
        <ele>293</ele>
        <time>2017-10-01T13:07:49Z</time>
      </trkpt>
      <trkpt lat="43.39952" lon="1.31669">
        <ele>293</ele>
        <time>2017-10-01T13:07:49Z</time>
      </trkpt>
      <trkpt lat="43.3995" lon="1.31666">
        <ele>293</ele>
        <time>2017-10-01T13:08:04Z</time>
      </trkpt>
      <trkpt lat="43.39949" lon="1.31657">
        <ele>293</ele>
        <time>2017-10-01T13:08:04Z</time>
      </trkpt>
      <trkpt lat="43.39949" lon="1.31653">
        <ele>293</ele>
        <time>2017-10-01T13:08:04Z</time>
      </trkpt>
      <trkpt lat="43.39947" lon="1.31649">
        <ele>293</ele>
        <time>2017-10-01T13:08:04Z</time>
      </trkpt>
      <trkpt lat="43.39944" lon="1.31638">
        <ele>293</ele>
        <time>2017-10-01T13:08:21Z</time>
      </trkpt>
      <trkpt lat="43.39942" lon="1.31633">
        <ele>293</ele>
        <time>2017-10-01T13:08:21Z</time>
      </trkpt>
      <trkpt lat="43.39939" lon="1.31626">
        <ele>293</ele>
        <time>2017-10-01T13:08:21Z</time>
      </trkpt>
      <trkpt lat="43.39934" lon="1.31618">
        <ele>295</ele>
        <time>2017-10-01T13:08:21Z</time>
      </trkpt>
      <trkpt lat="43.39931" lon="1.31614">
        <ele>295</ele>
        <time>2017-10-01T13:08:36Z</time>
      </trkpt>
      <trkpt lat="43.39927" lon="1.31608">
        <ele>295</ele>
        <time>2017-10-01T13:08:36Z</time>
      </trkpt>
      <trkpt lat="43.39921" lon="1.31604">
        <ele>295</ele>
        <time>2017-10-01T13:08:36Z</time>
      </trkpt>
      <trkpt lat="43.39918" lon="1.31602">
        <ele>295</ele>
        <time>2017-10-01T13:08:36Z</time>
      </trkpt>
      <trkpt lat="43.39915" lon="1.316">
        <ele>295</ele>
        <time>2017-10-01T13:08:53Z</time>
      </trkpt>
      <trkpt lat="43.39911" lon="1.31599">
        <ele>295</ele>
        <time>2017-10-01T13:08:53Z</time>
      </trkpt>
      <trkpt lat="43.3991" lon="1.31601">
        <ele>295</ele>
        <time>2017-10-01T13:08:53Z</time>
      </trkpt>
      <trkpt lat="43.39904" lon="1.31604">
        <ele>295</ele>
        <time>2017-10-01T13:08:53Z</time>
      </trkpt>
      <trkpt lat="43.399" lon="1.31605">
        <ele>295</ele>
        <time>2017-10-01T13:09:08Z</time>
      </trkpt>
      <trkpt lat="43.39896" lon="1.31606">
        <ele>295</ele>
        <time>2017-10-01T13:09:08Z</time>
      </trkpt>
      <trkpt lat="43.39891" lon="1.31608">
        <ele>295</ele>
        <time>2017-10-01T13:09:08Z</time>
      </trkpt>
      <trkpt lat="43.39888" lon="1.3161">
        <ele>295</ele>
        <time>2017-10-01T13:09:08Z</time>
      </trkpt>
      <trkpt lat="43.3988" lon="1.31615">
        <ele>295</ele>
        <time>2017-10-01T13:09:25Z</time>
      </trkpt>
      <trkpt lat="43.39873" lon="1.31618">
        <ele>291</ele>
        <time>2017-10-01T13:09:25Z</time>
      </trkpt>
      <trkpt lat="43.39869" lon="1.3162">
        <ele>291</ele>
        <time>2017-10-01T13:09:25Z</time>
      </trkpt>
      <trkpt lat="43.39865" lon="1.31621">
        <ele>291</ele>
        <time>2017-10-01T13:09:25Z</time>
      </trkpt>
      <trkpt lat="43.3986" lon="1.31621">
        <ele>291</ele>
        <time>2017-10-01T13:09:40Z</time>
      </trkpt>
      <trkpt lat="43.39856" lon="1.31623">
        <ele>291</ele>
        <time>2017-10-01T13:09:40Z</time>
      </trkpt>
      <trkpt lat="43.39852" lon="1.31622">
        <ele>291</ele>
        <time>2017-10-01T13:09:40Z</time>
      </trkpt>
      <trkpt lat="43.39847" lon="1.31624">
        <ele>291</ele>
        <time>2017-10-01T13:09:40Z</time>
      </trkpt>
      <trkpt lat="43.39842" lon="1.31626">
        <ele>288</ele>
        <time>2017-10-01T13:09:57Z</time>
      </trkpt>
      <trkpt lat="43.39835" lon="1.31628">
        <ele>288</ele>
        <time>2017-10-01T13:09:57Z</time>
      </trkpt>
      <trkpt lat="43.39832" lon="1.31629">
        <ele>288</ele>
        <time>2017-10-01T13:09:57Z</time>
      </trkpt>
      <trkpt lat="43.39827" lon="1.3163">
        <ele>288</ele>
        <time>2017-10-01T13:09:57Z</time>
      </trkpt>
      <trkpt lat="43.39822" lon="1.31633">
        <ele>288</ele>
        <time>2017-10-01T13:10:12Z</time>
      </trkpt>
      <trkpt lat="43.39815" lon="1.31636">
        <ele>288</ele>
        <time>2017-10-01T13:10:12Z</time>
      </trkpt>
      <trkpt lat="43.39809" lon="1.31638">
        <ele>288</ele>
        <time>2017-10-01T13:10:12Z</time>
      </trkpt>
      <trkpt lat="43.39806" lon="1.31639">
        <ele>288</ele>
        <time>2017-10-01T13:10:12Z</time>
      </trkpt>
      <trkpt lat="43.39802" lon="1.31639">
        <ele>288</ele>
        <time>2017-10-01T13:10:28Z</time>
      </trkpt>
      <trkpt lat="43.39798" lon="1.3164">
        <ele>288</ele>
        <time>2017-10-01T13:10:28Z</time>
      </trkpt>
      <trkpt lat="43.39793" lon="1.31641">
        <ele>288</ele>
        <time>2017-10-01T13:10:28Z</time>
      </trkpt>
      <trkpt lat="43.39789" lon="1.31642">
        <ele>284</ele>
        <time>2017-10-01T13:10:28Z</time>
      </trkpt>
      <trkpt lat="43.39784" lon="1.31645">
        <ele>284</ele>
        <time>2017-10-01T13:10:44Z</time>
      </trkpt>
      <trkpt lat="43.39779" lon="1.31645">
        <ele>284</ele>
        <time>2017-10-01T13:10:44Z</time>
      </trkpt>
      <trkpt lat="43.39775" lon="1.31646">
        <ele>284</ele>
        <time>2017-10-01T13:10:44Z</time>
      </trkpt>
      <trkpt lat="43.39771" lon="1.31646">
        <ele>284</ele>
        <time>2017-10-01T13:10:44Z</time>
      </trkpt>
      <trkpt lat="43.39766" lon="1.31647">
        <ele>284</ele>
        <time>2017-10-01T13:11:03Z</time>
      </trkpt>
      <trkpt lat="43.3976" lon="1.31649">
        <ele>284</ele>
        <time>2017-10-01T13:11:03Z</time>
      </trkpt>
      <trkpt lat="43.39756" lon="1.3165">
        <ele>284</ele>
        <time>2017-10-01T13:11:03Z</time>
      </trkpt>
      <trkpt lat="43.39749" lon="1.31652">
        <ele>284</ele>
        <time>2017-10-01T13:11:03Z</time>
      </trkpt>
      <trkpt lat="43.39746" lon="1.31653">
        <ele>284</ele>
        <time>2017-10-01T13:11:16Z</time>
      </trkpt>
      <trkpt lat="43.3974" lon="1.31655">
        <ele>284</ele>
        <time>2017-10-01T13:11:16Z</time>
      </trkpt>
      <trkpt lat="43.39736" lon="1.31657">
        <ele>284</ele>
        <time>2017-10-01T13:11:16Z</time>
      </trkpt>
      <trkpt lat="43.3973" lon="1.31659">
        <ele>284</ele>
        <time>2017-10-01T13:11:16Z</time>
      </trkpt>
      <trkpt lat="43.39725" lon="1.31661">
        <ele>284</ele>
        <time>2017-10-01T13:11:32Z</time>
      </trkpt>
      <trkpt lat="43.3972" lon="1.31662">
        <ele>284</ele>
        <time>2017-10-01T13:11:32Z</time>
      </trkpt>
      <trkpt lat="43.39715" lon="1.31663">
        <ele>284</ele>
        <time>2017-10-01T13:11:32Z</time>
      </trkpt>
      <trkpt lat="43.3971" lon="1.31664">
        <ele>284</ele>
        <time>2017-10-01T13:11:32Z</time>
      </trkpt>
      <trkpt lat="43.39705" lon="1.31667">
        <ele>281</ele>
        <time>2017-10-01T13:11:48Z</time>
      </trkpt>
      <trkpt lat="43.39699" lon="1.31668">
        <ele>281</ele>
        <time>2017-10-01T13:11:48Z</time>
      </trkpt>
      <trkpt lat="43.39695" lon="1.31668">
        <ele>281</ele>
        <time>2017-10-01T13:11:48Z</time>
      </trkpt>
      <trkpt lat="43.3969" lon="1.3167">
        <ele>281</ele>
        <time>2017-10-01T13:11:48Z</time>
      </trkpt>
      <trkpt lat="43.39686" lon="1.3167">
        <ele>281</ele>
        <time>2017-10-01T13:12:04Z</time>
      </trkpt>
      <trkpt lat="43.39681" lon="1.31671">
        <ele>281</ele>
        <time>2017-10-01T13:12:04Z</time>
      </trkpt>
      <trkpt lat="43.39676" lon="1.31672">
        <ele>281</ele>
        <time>2017-10-01T13:12:04Z</time>
      </trkpt>
      <trkpt lat="43.39672" lon="1.31672">
        <ele>281</ele>
        <time>2017-10-01T13:12:04Z</time>
      </trkpt>
      <trkpt lat="43.39665" lon="1.31675">
        <ele>281</ele>
        <time>2017-10-01T13:12:21Z</time>
      </trkpt>
      <trkpt lat="43.3966" lon="1.31677">
        <ele>281</ele>
        <time>2017-10-01T13:12:21Z</time>
      </trkpt>
      <trkpt lat="43.39654" lon="1.31679">
        <ele>281</ele>
        <time>2017-10-01T13:12:21Z</time>
      </trkpt>
      <trkpt lat="43.39649" lon="1.3168">
        <ele>281</ele>
        <time>2017-10-01T13:12:21Z</time>
      </trkpt>
      <trkpt lat="43.39643" lon="1.31681">
        <ele>281</ele>
        <time>2017-10-01T13:12:36Z</time>
      </trkpt>
      <trkpt lat="43.39637" lon="1.31683">
        <ele>281</ele>
        <time>2017-10-01T13:12:36Z</time>
      </trkpt>
      <trkpt lat="43.39632" lon="1.31685">
        <ele>281</ele>
        <time>2017-10-01T13:12:36Z</time>
      </trkpt>
      <trkpt lat="43.39627" lon="1.31688">
        <ele>281</ele>
        <time>2017-10-01T13:12:36Z</time>
      </trkpt>
      <trkpt lat="43.39621" lon="1.31691">
        <ele>280</ele>
        <time>2017-10-01T13:12:53Z</time>
      </trkpt>
      <trkpt lat="43.39618" lon="1.31692">
        <ele>280</ele>
        <time>2017-10-01T13:12:53Z</time>
      </trkpt>
      <trkpt lat="43.39612" lon="1.31694">
        <ele>280</ele>
        <time>2017-10-01T13:12:53Z</time>
      </trkpt>
      <trkpt lat="43.39606" lon="1.31697">
        <ele>280</ele>
        <time>2017-10-01T13:12:53Z</time>
      </trkpt>
      <trkpt lat="43.39602" lon="1.31698">
        <ele>280</ele>
        <time>2017-10-01T13:13:08Z</time>
      </trkpt>
      <trkpt lat="43.39597" lon="1.31699">
        <ele>280</ele>
        <time>2017-10-01T13:13:08Z</time>
      </trkpt>
      <trkpt lat="43.39593" lon="1.317">
        <ele>280</ele>
        <time>2017-10-01T13:13:08Z</time>
      </trkpt>
      <trkpt lat="43.39588" lon="1.31702">
        <ele>280</ele>
        <time>2017-10-01T13:13:08Z</time>
      </trkpt>
      <trkpt lat="43.39582" lon="1.31704">
        <ele>280</ele>
        <time>2017-10-01T13:13:25Z</time>
      </trkpt>
      <trkpt lat="43.39579" lon="1.31705">
        <ele>280</ele>
        <time>2017-10-01T13:13:25Z</time>
      </trkpt>
      <trkpt lat="43.39575" lon="1.31706">
        <ele>280</ele>
        <time>2017-10-01T13:13:25Z</time>
      </trkpt>
      <trkpt lat="43.39569" lon="1.31712">
        <ele>278</ele>
        <time>2017-10-01T13:13:25Z</time>
      </trkpt>
      <trkpt lat="43.39566" lon="1.31714">
        <ele>278</ele>
        <time>2017-10-01T13:13:44Z</time>
      </trkpt>
      <trkpt lat="43.39566" lon="1.31711">
        <ele>278</ele>
        <time>2017-10-01T13:13:44Z</time>
      </trkpt>
      <trkpt lat="43.39563" lon="1.31712">
        <ele>278</ele>
        <time>2017-10-01T13:13:44Z</time>
      </trkpt>
      <trkpt lat="43.39559" lon="1.31714">
        <ele>278</ele>
        <time>2017-10-01T13:13:44Z</time>
      </trkpt>
      <trkpt lat="43.39553" lon="1.31719">
        <ele>278</ele>
        <time>2017-10-01T13:13:44Z</time>
      </trkpt>
      <trkpt lat="43.39547" lon="1.31725">
        <ele>278</ele>
        <time>2017-10-01T13:14:00Z</time>
      </trkpt>
      <trkpt lat="43.39542" lon="1.3173">
        <ele>278</ele>
        <time>2017-10-01T13:14:00Z</time>
      </trkpt>
      <trkpt lat="43.39536" lon="1.31737">
        <ele>278</ele>
        <time>2017-10-01T13:14:00Z</time>
      </trkpt>
      <trkpt lat="43.39531" lon="1.31746">
        <ele>278</ele>
        <time>2017-10-01T13:14:00Z</time>
      </trkpt>
      <trkpt lat="43.39525" lon="1.31755">
        <ele>278</ele>
        <time>2017-10-01T13:14:17Z</time>
      </trkpt>
      <trkpt lat="43.39521" lon="1.31759">
        <ele>278</ele>
        <time>2017-10-01T13:14:17Z</time>
      </trkpt>
      <trkpt lat="43.39517" lon="1.31762">
        <ele>278</ele>
        <time>2017-10-01T13:14:17Z</time>
      </trkpt>
      <trkpt lat="43.39512" lon="1.31766">
        <ele>278</ele>
        <time>2017-10-01T13:14:17Z</time>
      </trkpt>
      <trkpt lat="43.3951" lon="1.31768">
        <ele>278</ele>
        <time>2017-10-01T13:14:32Z</time>
      </trkpt>
      <trkpt lat="43.39506" lon="1.31772">
        <ele>278</ele>
        <time>2017-10-01T13:14:32Z</time>
      </trkpt>
      <trkpt lat="43.39501" lon="1.31779">
        <ele>278</ele>
        <time>2017-10-01T13:14:32Z</time>
      </trkpt>
      <trkpt lat="43.39497" lon="1.31783">
        <ele>278</ele>
        <time>2017-10-01T13:14:32Z</time>
      </trkpt>
      <trkpt lat="43.39493" lon="1.31789">
        <ele>278</ele>
        <time>2017-10-01T13:14:48Z</time>
      </trkpt>
      <trkpt lat="43.39489" lon="1.31794">
        <ele>272</ele>
        <time>2017-10-01T13:14:49Z</time>
      </trkpt>
      <trkpt lat="43.39484" lon="1.318">
        <ele>272</ele>
        <time>2017-10-01T13:14:49Z</time>
      </trkpt>
      <trkpt lat="43.3948" lon="1.31806">
        <ele>272</ele>
        <time>2017-10-01T13:14:49Z</time>
      </trkpt>
      <trkpt lat="43.39475" lon="1.31811">
        <ele>272</ele>
        <time>2017-10-01T13:15:04Z</time>
      </trkpt>
      <trkpt lat="43.3947" lon="1.31816">
        <ele>272</ele>
        <time>2017-10-01T13:15:04Z</time>
      </trkpt>
      <trkpt lat="43.39465" lon="1.31823">
        <ele>272</ele>
        <time>2017-10-01T13:15:04Z</time>
      </trkpt>
      <trkpt lat="43.39461" lon="1.31828">
        <ele>272</ele>
        <time>2017-10-01T13:15:04Z</time>
      </trkpt>
      <trkpt lat="43.39457" lon="1.31836">
        <ele>274</ele>
        <time>2017-10-01T13:15:20Z</time>
      </trkpt>
      <trkpt lat="43.39452" lon="1.31839">
        <ele>274</ele>
        <time>2017-10-01T13:15:20Z</time>
      </trkpt>
      <trkpt lat="43.39449" lon="1.31842">
        <ele>274</ele>
        <time>2017-10-01T13:15:20Z</time>
      </trkpt>
      <trkpt lat="43.39446" lon="1.31847">
        <ele>274</ele>
        <time>2017-10-01T13:15:20Z</time>
      </trkpt>
      <trkpt lat="43.39442" lon="1.31853">
        <ele>274</ele>
        <time>2017-10-01T13:15:36Z</time>
      </trkpt>
      <trkpt lat="43.39439" lon="1.31858">
        <ele>274</ele>
        <time>2017-10-01T13:15:36Z</time>
      </trkpt>
      <trkpt lat="43.39434" lon="1.31865">
        <ele>274</ele>
        <time>2017-10-01T13:15:36Z</time>
      </trkpt>
      <trkpt lat="43.39431" lon="1.31868">
        <ele>274</ele>
        <time>2017-10-01T13:15:36Z</time>
      </trkpt>
      <trkpt lat="43.39426" lon="1.31872">
        <ele>274</ele>
        <time>2017-10-01T13:15:52Z</time>
      </trkpt>
      <trkpt lat="43.39422" lon="1.31877">
        <ele>271</ele>
        <time>2017-10-01T13:15:52Z</time>
      </trkpt>
      <trkpt lat="43.39418" lon="1.31882">
        <ele>271</ele>
        <time>2017-10-01T13:15:52Z</time>
      </trkpt>
      <trkpt lat="43.39415" lon="1.3188">
        <ele>271</ele>
        <time>2017-10-01T13:15:52Z</time>
      </trkpt>
      <trkpt lat="43.39412" lon="1.31875">
        <ele>271</ele>
        <time>2017-10-01T13:16:08Z</time>
      </trkpt>
      <trkpt lat="43.39408" lon="1.31877">
        <ele>271</ele>
        <time>2017-10-01T13:16:08Z</time>
      </trkpt>
      <trkpt lat="43.39405" lon="1.3188">
        <ele>271</ele>
        <time>2017-10-01T13:16:08Z</time>
      </trkpt>
      <trkpt lat="43.39402" lon="1.31882">
        <ele>271</ele>
        <time>2017-10-01T13:16:08Z</time>
      </trkpt>
      <trkpt lat="43.39397" lon="1.31886">
        <ele>271</ele>
        <time>2017-10-01T13:16:25Z</time>
      </trkpt>
      <trkpt lat="43.39393" lon="1.31889">
        <ele>271</ele>
        <time>2017-10-01T13:16:25Z</time>
      </trkpt>
      <trkpt lat="43.39388" lon="1.31895">
        <ele>271</ele>
        <time>2017-10-01T13:16:25Z</time>
      </trkpt>
      <trkpt lat="43.39384" lon="1.319">
        <ele>271</ele>
        <time>2017-10-01T13:16:25Z</time>
      </trkpt>
      <trkpt lat="43.3938" lon="1.31903">
        <ele>271</ele>
        <time>2017-10-01T13:16:40Z</time>
      </trkpt>
      <trkpt lat="43.39376" lon="1.3191">
        <ele>271</ele>
        <time>2017-10-01T13:16:40Z</time>
      </trkpt>
      <trkpt lat="43.39373" lon="1.31914">
        <ele>271</ele>
        <time>2017-10-01T13:16:40Z</time>
      </trkpt>
      <trkpt lat="43.39368" lon="1.31919">
        <ele>271</ele>
        <time>2017-10-01T13:16:40Z</time>
      </trkpt>
      <trkpt lat="43.39363" lon="1.31924">
        <ele>271</ele>
        <time>2017-10-01T13:16:57Z</time>
      </trkpt>
      <trkpt lat="43.39361" lon="1.31926">
        <ele>271</ele>
        <time>2017-10-01T13:16:57Z</time>
      </trkpt>
      <trkpt lat="43.39357" lon="1.31929">
        <ele>271</ele>
        <time>2017-10-01T13:16:57Z</time>
      </trkpt>
      <trkpt lat="43.39351" lon="1.31934">
        <ele>271</ele>
        <time>2017-10-01T13:16:57Z</time>
      </trkpt>
      <trkpt lat="43.39348" lon="1.31938">
        <ele>271</ele>
        <time>2017-10-01T13:17:12Z</time>
      </trkpt>
      <trkpt lat="43.39344" lon="1.31942">
        <ele>271</ele>
        <time>2017-10-01T13:17:12Z</time>
      </trkpt>
      <trkpt lat="43.3934" lon="1.31946">
        <ele>271</ele>
        <time>2017-10-01T13:17:12Z</time>
      </trkpt>
      <trkpt lat="43.39336" lon="1.31949">
        <ele>271</ele>
        <time>2017-10-01T13:17:12Z</time>
      </trkpt>
      <trkpt lat="43.39332" lon="1.31953">
        <ele>271</ele>
        <time>2017-10-01T13:17:29Z</time>
      </trkpt>
      <trkpt lat="43.39328" lon="1.31958">
        <ele>271</ele>
        <time>2017-10-01T13:17:29Z</time>
      </trkpt>
      <trkpt lat="43.39324" lon="1.31963">
        <ele>270</ele>
        <time>2017-10-01T13:17:29Z</time>
      </trkpt>
      <trkpt lat="43.3932" lon="1.31968">
        <ele>270</ele>
        <time>2017-10-01T13:17:29Z</time>
      </trkpt>
      <trkpt lat="43.39315" lon="1.31973">
        <ele>270</ele>
        <time>2017-10-01T13:17:44Z</time>
      </trkpt>
      <trkpt lat="43.3931" lon="1.31979">
        <ele>270</ele>
        <time>2017-10-01T13:17:44Z</time>
      </trkpt>
      <trkpt lat="43.39307" lon="1.31982">
        <ele>270</ele>
        <time>2017-10-01T13:17:44Z</time>
      </trkpt>
      <trkpt lat="43.39304" lon="1.31985">
        <ele>270</ele>
        <time>2017-10-01T13:17:44Z</time>
      </trkpt>
      <trkpt lat="43.393" lon="1.31988">
        <ele>270</ele>
        <time>2017-10-01T13:18:00Z</time>
      </trkpt>
      <trkpt lat="43.39297" lon="1.31995">
        <ele>270</ele>
        <time>2017-10-01T13:18:00Z</time>
      </trkpt>
      <trkpt lat="43.39294" lon="1.32001">
        <ele>270</ele>
        <time>2017-10-01T13:18:00Z</time>
      </trkpt>
      <trkpt lat="43.3929" lon="1.32005">
        <ele>269</ele>
        <time>2017-10-01T13:18:00Z</time>
      </trkpt>
      <trkpt lat="43.39286" lon="1.32006">
        <ele>269</ele>
        <time>2017-10-01T13:18:16Z</time>
      </trkpt>
      <trkpt lat="43.39282" lon="1.3201">
        <ele>269</ele>
        <time>2017-10-01T13:18:16Z</time>
      </trkpt>
      <trkpt lat="43.39278" lon="1.32014">
        <ele>269</ele>
        <time>2017-10-01T13:18:16Z</time>
      </trkpt>
      <trkpt lat="43.39274" lon="1.32018">
        <ele>269</ele>
        <time>2017-10-01T13:18:16Z</time>
      </trkpt>
      <trkpt lat="43.39268" lon="1.32025">
        <ele>269</ele>
        <time>2017-10-01T13:18:33Z</time>
      </trkpt>
      <trkpt lat="43.39265" lon="1.32029">
        <ele>269</ele>
        <time>2017-10-01T13:18:33Z</time>
      </trkpt>
      <trkpt lat="43.39261" lon="1.32035">
        <ele>269</ele>
        <time>2017-10-01T13:18:33Z</time>
      </trkpt>
      <trkpt lat="43.39256" lon="1.32041">
        <ele>269</ele>
        <time>2017-10-01T13:18:33Z</time>
      </trkpt>
      <trkpt lat="43.39253" lon="1.32043">
        <ele>272</ele>
        <time>2017-10-01T13:18:48Z</time>
      </trkpt>
      <trkpt lat="43.39248" lon="1.32048">
        <ele>272</ele>
        <time>2017-10-01T13:18:48Z</time>
      </trkpt>
      <trkpt lat="43.39243" lon="1.32053">
        <ele>272</ele>
        <time>2017-10-01T13:18:48Z</time>
      </trkpt>
      <trkpt lat="43.3924" lon="1.32054">
        <ele>272</ele>
        <time>2017-10-01T13:18:48Z</time>
      </trkpt>
      <trkpt lat="43.39235" lon="1.32057">
        <ele>272</ele>
        <time>2017-10-01T13:19:05Z</time>
      </trkpt>
      <trkpt lat="43.39232" lon="1.32059">
        <ele>272</ele>
        <time>2017-10-01T13:19:05Z</time>
      </trkpt>
      <trkpt lat="43.39229" lon="1.32064">
        <ele>272</ele>
        <time>2017-10-01T13:19:05Z</time>
      </trkpt>
      <trkpt lat="43.39224" lon="1.3207">
        <ele>272</ele>
        <time>2017-10-01T13:19:05Z</time>
      </trkpt>
      <trkpt lat="43.39222" lon="1.32073">
        <ele>272</ele>
        <time>2017-10-01T13:19:20Z</time>
      </trkpt>
      <trkpt lat="43.39218" lon="1.32078">
        <ele>272</ele>
        <time>2017-10-01T13:19:20Z</time>
      </trkpt>
      <trkpt lat="43.39213" lon="1.32083">
        <ele>272</ele>
        <time>2017-10-01T13:19:20Z</time>
      </trkpt>
      <trkpt lat="43.39211" lon="1.32087">
        <ele>272</ele>
        <time>2017-10-01T13:19:20Z</time>
      </trkpt>
      <trkpt lat="43.39207" lon="1.32092">
        <ele>268</ele>
        <time>2017-10-01T13:19:37Z</time>
      </trkpt>
      <trkpt lat="43.39203" lon="1.32096">
        <ele>268</ele>
        <time>2017-10-01T13:19:37Z</time>
      </trkpt>
      <trkpt lat="43.39199" lon="1.32102">
        <ele>268</ele>
        <time>2017-10-01T13:19:37Z</time>
      </trkpt>
      <trkpt lat="43.39193" lon="1.32105">
        <ele>268</ele>
        <time>2017-10-01T13:19:37Z</time>
      </trkpt>
      <trkpt lat="43.39191" lon="1.32108">
        <ele>268</ele>
        <time>2017-10-01T13:19:52Z</time>
      </trkpt>
      <trkpt lat="43.39186" lon="1.32113">
        <ele>268</ele>
        <time>2017-10-01T13:19:52Z</time>
      </trkpt>
      <trkpt lat="43.39183" lon="1.32116">
        <ele>268</ele>
        <time>2017-10-01T13:19:52Z</time>
      </trkpt>
      <trkpt lat="43.3918" lon="1.3212">
        <ele>268</ele>
        <time>2017-10-01T13:19:52Z</time>
      </trkpt>
      <trkpt lat="43.39175" lon="1.32124">
        <ele>268</ele>
        <time>2017-10-01T13:20:08Z</time>
      </trkpt>
      <trkpt lat="43.39171" lon="1.3213">
        <ele>273</ele>
        <time>2017-10-01T13:20:08Z</time>
      </trkpt>
      <trkpt lat="43.39168" lon="1.32133">
        <ele>273</ele>
        <time>2017-10-01T13:20:08Z</time>
      </trkpt>
      <trkpt lat="43.39164" lon="1.32137">
        <ele>273</ele>
        <time>2017-10-01T13:20:08Z</time>
      </trkpt>
      <trkpt lat="43.39158" lon="1.3214">
        <ele>273</ele>
        <time>2017-10-01T13:20:24Z</time>
      </trkpt>
      <trkpt lat="43.39155" lon="1.32142">
        <ele>273</ele>
        <time>2017-10-01T13:20:24Z</time>
      </trkpt>
      <trkpt lat="43.39151" lon="1.32145">
        <ele>273</ele>
        <time>2017-10-01T13:20:24Z</time>
      </trkpt>
      <trkpt lat="43.39147" lon="1.32149">
        <ele>273</ele>
        <time>2017-10-01T13:20:24Z</time>
      </trkpt>
      <trkpt lat="43.39143" lon="1.32154">
        <ele>273</ele>
        <time>2017-10-01T13:20:40Z</time>
      </trkpt>
      <trkpt lat="43.39138" lon="1.32159">
        <ele>273</ele>
        <time>2017-10-01T13:20:40Z</time>
      </trkpt>
      <trkpt lat="43.39134" lon="1.32163">
        <ele>273</ele>
        <time>2017-10-01T13:20:40Z</time>
      </trkpt>
      <trkpt lat="43.3913" lon="1.32167">
        <ele>273</ele>
        <time>2017-10-01T13:20:40Z</time>
      </trkpt>
      <trkpt lat="43.39125" lon="1.32172">
        <ele>273</ele>
        <time>2017-10-01T13:20:57Z</time>
      </trkpt>
      <trkpt lat="43.39122" lon="1.32175">
        <ele>268</ele>
        <time>2017-10-01T13:20:57Z</time>
      </trkpt>
      <trkpt lat="43.39118" lon="1.3218">
        <ele>268</ele>
        <time>2017-10-01T13:20:57Z</time>
      </trkpt>
      <trkpt lat="43.39114" lon="1.32185">
        <ele>268</ele>
        <time>2017-10-01T13:20:57Z</time>
      </trkpt>
      <trkpt lat="43.3911" lon="1.32189">
        <ele>268</ele>
        <time>2017-10-01T13:21:12Z</time>
      </trkpt>
      <trkpt lat="43.39105" lon="1.32195">
        <ele>268</ele>
        <time>2017-10-01T13:21:12Z</time>
      </trkpt>
      <trkpt lat="43.391" lon="1.32202">
        <ele>268</ele>
        <time>2017-10-01T13:21:12Z</time>
      </trkpt>
      <trkpt lat="43.39097" lon="1.32206">
        <ele>268</ele>
        <time>2017-10-01T13:21:12Z</time>
      </trkpt>
      <trkpt lat="43.39094" lon="1.32211">
        <ele>272</ele>
        <time>2017-10-01T13:21:28Z</time>
      </trkpt>
      <trkpt lat="43.39089" lon="1.32217">
        <ele>272</ele>
        <time>2017-10-01T13:21:29Z</time>
      </trkpt>
      <trkpt lat="43.39086" lon="1.3222">
        <ele>272</ele>
        <time>2017-10-01T13:21:29Z</time>
      </trkpt>
      <trkpt lat="43.39082" lon="1.32225">
        <ele>272</ele>
        <time>2017-10-01T13:21:29Z</time>
      </trkpt>
      <trkpt lat="43.39079" lon="1.32227">
        <ele>272</ele>
        <time>2017-10-01T13:21:44Z</time>
      </trkpt>
      <trkpt lat="43.39076" lon="1.3223">
        <ele>272</ele>
        <time>2017-10-01T13:21:44Z</time>
      </trkpt>
      <trkpt lat="43.39071" lon="1.32235">
        <ele>272</ele>
        <time>2017-10-01T13:21:44Z</time>
      </trkpt>
      <trkpt lat="43.39068" lon="1.32238">
        <ele>272</ele>
        <time>2017-10-01T13:21:44Z</time>
      </trkpt>
      <trkpt lat="43.39064" lon="1.32243">
        <ele>272</ele>
        <time>2017-10-01T13:22:00Z</time>
      </trkpt>
      <trkpt lat="43.39059" lon="1.32248">
        <ele>272</ele>
        <time>2017-10-01T13:22:00Z</time>
      </trkpt>
      <trkpt lat="43.39055" lon="1.32251">
        <ele>272</ele>
        <time>2017-10-01T13:22:00Z</time>
      </trkpt>
      <trkpt lat="43.39051" lon="1.32257">
        <ele>272</ele>
        <time>2017-10-01T13:22:00Z</time>
      </trkpt>
      <trkpt lat="43.39044" lon="1.32265">
        <ele>272</ele>
        <time>2017-10-01T13:22:16Z</time>
      </trkpt>
      <trkpt lat="43.39041" lon="1.32271">
        <ele>268</ele>
        <time>2017-10-01T13:22:16Z</time>
      </trkpt>
      <trkpt lat="43.39036" lon="1.32277">
        <ele>268</ele>
        <time>2017-10-01T13:22:16Z</time>
      </trkpt>
      <trkpt lat="43.39032" lon="1.32281">
        <ele>268</ele>
        <time>2017-10-01T13:22:16Z</time>
      </trkpt>
      <trkpt lat="43.39028" lon="1.32287">
        <ele>268</ele>
        <time>2017-10-01T13:22:32Z</time>
      </trkpt>
      <trkpt lat="43.39024" lon="1.32291">
        <ele>268</ele>
        <time>2017-10-01T13:22:32Z</time>
      </trkpt>
      <trkpt lat="43.39019" lon="1.32296">
        <ele>271</ele>
        <time>2017-10-01T13:22:32Z</time>
      </trkpt>
      <trkpt lat="43.39015" lon="1.323">
        <ele>271</ele>
        <time>2017-10-01T13:22:32Z</time>
      </trkpt>
      <trkpt lat="43.39011" lon="1.32305">
        <ele>271</ele>
        <time>2017-10-01T13:22:48Z</time>
      </trkpt>
      <trkpt lat="43.39006" lon="1.32309">
        <ele>271</ele>
        <time>2017-10-01T13:22:48Z</time>
      </trkpt>
      <trkpt lat="43.39003" lon="1.32312">
        <ele>271</ele>
        <time>2017-10-01T13:22:48Z</time>
      </trkpt>
      <trkpt lat="43.38999" lon="1.32314">
        <ele>271</ele>
        <time>2017-10-01T13:22:48Z</time>
      </trkpt>
      <trkpt lat="43.38995" lon="1.32319">
        <ele>271</ele>
        <time>2017-10-01T13:23:04Z</time>
      </trkpt>
      <trkpt lat="43.38991" lon="1.32323">
        <ele>271</ele>
        <time>2017-10-01T13:23:04Z</time>
      </trkpt>
      <trkpt lat="43.38987" lon="1.32327">
        <ele>271</ele>
        <time>2017-10-01T13:23:04Z</time>
      </trkpt>
      <trkpt lat="43.38984" lon="1.32332">
        <ele>271</ele>
        <time>2017-10-01T13:23:04Z</time>
      </trkpt>
      <trkpt lat="43.3898" lon="1.32336">
        <ele>271</ele>
        <time>2017-10-01T13:23:20Z</time>
      </trkpt>
      <trkpt lat="43.38976" lon="1.32341">
        <ele>271</ele>
        <time>2017-10-01T13:23:20Z</time>
      </trkpt>
      <trkpt lat="43.3897" lon="1.32346">
        <ele>271</ele>
        <time>2017-10-01T13:23:20Z</time>
      </trkpt>
      <trkpt lat="43.38967" lon="1.32346">
        <ele>271</ele>
        <time>2017-10-01T13:23:20Z</time>
      </trkpt>
      <trkpt lat="43.38963" lon="1.32349">
        <ele>271</ele>
        <time>2017-10-01T13:23:36Z</time>
      </trkpt>
      <trkpt lat="43.38958" lon="1.32353">
        <ele>271</ele>
        <time>2017-10-01T13:23:36Z</time>
      </trkpt>
      <trkpt lat="43.38954" lon="1.32356">
        <ele>271</ele>
        <time>2017-10-01T13:23:36Z</time>
      </trkpt>
      <trkpt lat="43.38953" lon="1.3236">
        <ele>271</ele>
        <time>2017-10-01T13:23:36Z</time>
      </trkpt>
      <trkpt lat="43.38947" lon="1.32366">
        <ele>271</ele>
        <time>2017-10-01T13:23:52Z</time>
      </trkpt>
      <trkpt lat="43.38944" lon="1.3237">
        <ele>271</ele>
        <time>2017-10-01T13:23:52Z</time>
      </trkpt>
      <trkpt lat="43.3894" lon="1.32376">
        <ele>268</ele>
        <time>2017-10-01T13:23:52Z</time>
      </trkpt>
      <trkpt lat="43.38936" lon="1.32381">
        <ele>268</ele>
        <time>2017-10-01T13:23:52Z</time>
      </trkpt>
      <trkpt lat="43.38931" lon="1.32385">
        <ele>268</ele>
        <time>2017-10-01T13:24:08Z</time>
      </trkpt>
      <trkpt lat="43.38925" lon="1.32382">
        <ele>268</ele>
        <time>2017-10-01T13:24:08Z</time>
      </trkpt>
      <trkpt lat="43.38921" lon="1.32379">
        <ele>268</ele>
        <time>2017-10-01T13:24:08Z</time>
      </trkpt>
      <trkpt lat="43.38918" lon="1.32374">
        <ele>271</ele>
        <time>2017-10-01T13:24:08Z</time>
      </trkpt>
      <trkpt lat="43.38907" lon="1.32359">
        <ele>271</ele>
        <time>2017-10-01T13:24:33Z</time>
      </trkpt>
      <trkpt lat="43.38905" lon="1.32356">
        <ele>271</ele>
        <time>2017-10-01T13:24:33Z</time>
      </trkpt>
      <trkpt lat="43.38902" lon="1.32352">
        <ele>271</ele>
        <time>2017-10-01T13:24:33Z</time>
      </trkpt>
      <trkpt lat="43.38898" lon="1.32348">
        <ele>271</ele>
        <time>2017-10-01T13:24:33Z</time>
      </trkpt>
    </trkseg>
  </trk>
</gpx>